[[{"header":{"parameterUnit":"m.s-1","parameterCategory":1,"la1":30.6,"la2":29.2853,"lo1":-89.7004,"lo2":-87.6739,"dy":0.0162,"dx":0.0183,"nx":112,"ny":82,"refTime":"2026-05-03T00:00:00:Z","depth":0,"parameterNumber":2,"parameterNumberName":"U-component_of_WINDS"},"data":[0.0,0.0,0.0,0.0,0.0,0.0,0.0,0.0,0.0,0.0,0.0,0.0,0.0,0.0,0.0,0.0,0.0,0.0,0.0,0.0,0.0,0.0,0.0,0.0,0.0,0.0,0.0,0.0,0.0,0.0,0.0,0.0,0.0,0.0,0.0,0.0,0.0,0.0,0.0,0.0,0.0,0.0,0.0,0.0,0.0,0.0,0.0,0.0,0.0,0.0,0.0,0.0,0.0,0.0,0.0,0.0,0.0,0.0,0.0,0.0,0.0,0.0,0.0,0.0,0.0,0.0,0.0,0.0,0.0,0.0,0.0,0.0,0.0,0.0,0.0,0.0,0.0,0.0,0.0,0.0,0.0,0.0,0.0,0.0,0.0,0.0,0.0,0.0,0.0,0.0,-3.0187,-3.2281,-3.4844,-3.6197,-3.5716,-3.4945,-3.309,-2.9776,0.0,0.0,0.0,0.0,0.0,0.0,0.0,0.0,0.0,0.0,0.0,0.0,0.0,0.0,0.0,0.0,0.0,0.0,0.0,0.0,0.0,0.0,0.0,0.0,0.0,0.0,0.0,0.0,0.0,0.0,0.0,0.0,0.0,0.0,0.0,0.0,0.0,0.0,0.0,0.0,0.0,0.0,0.0,0.0,0.0,0.0,0.0,0.0,0.0,0.0,0.0,0.0,0.0,0.0,0.0,0.0,0.0,0.0,0.0,0.0,0.0,0.0,0.0,0.0,0.0,0.0,0.0,0.0,0.0,0.0,0.0,0.0,0.0,0.0,0.0,0.0,0.0,0.0,0.0,0.0,0.0,0.0,0.0,0.0,0.0,0.0,0.0,0.0,0.0,0.0,0.0,0.0,0.0,0.0,0.0,0.0,0.0,0.0,0.0,0.0,0.0,0.0,0.0,0.0,-3.1318,-3.6369,-3.7806,-3.7698,-3.6067,-3.5054,-3.3306,-3.0526,0.0,0.0,0.0,0.0,0.0,0.0,0.0,0.0,0.0,0.0,0.0,0.0,0.0,0.0,0.0,0.0,0.0,0.0,0.0,0.0,0.0,0.0,0.0,0.0,0.0,0.0,0.0,0.0,0.0,0.0,0.0,0.0,0.0,0.0,0.0,0.0,0.0,0.0,0.0,0.0,0.0,0.0,0.0,0.0,0.0,0.0,0.0,0.0,0.0,0.0,0.0,0.0,0.0,0.0,0.0,0.0,0.0,0.0,0.0,0.0,0.0,0.0,0.0,0.0,0.0,0.0,0.0,0.0,0.0,0.0,0.0,0.0,0.0,0.0,0.0,0.0,0.0,0.0,0.0,0.0,0.0,0.0,0.0,0.0,0.0,0.0,0.0,0.0,0.0,0.0,0.0,0.0,0.0,0.0,0.0,0.0,0.0,0.0,0.0,0.0,0.0,0.0,0.0,-3.1032,-3.3522,-3.7485,-3.8554,-3.8169,-3.6178,-3.5569,-3.3927,-3.0704,-2.8276,0.0,0.0,0.0,0.0,0.0,0.0,0.0,0.0,0.0,0.0,0.0,0.0,0.0,0.0,0.0,0.0,0.0,0.0,0.0,0.0,0.0,0.0,0.0,0.0,0.0,0.0,0.0,0.0,0.0,0.0,0.0,0.0,0.0,0.0,0.0,0.0,0.0,0.0,0.0,0.0,0.0,0.0,0.0,0.0,0.0,0.0,0.0,0.0,0.0,0.0,0.0,0.0,0.0,0.0,0.0,0.0,0.0,0.0,0.0,0.0,0.0,0.0,0.0,0.0,0.0,0.0,0.0,0.0,0.0,0.0,0.0,0.0,0.0,0.0,0.0,0.0,0.0,0.0,0.0,0.0,0.0,0.0,0.0,0.0,0.0,0.0,0.0,0.0,0.0,0.0,0.0,0.0,0.0,0.0,0.0,0.0,0.0,0.0,0.0,0.0,0.0,0.0,-3.3918,-3.5665,-3.7931,-3.8711,-3.8321,-3.6434,-3.5929,-3.4316,-3.1005,-2.7869,0.0,0.0,0.0,0.0,0.0,0.0,0.0,0.0,0.0,0.0,0.0,0.0,0.0,0.0,0.0,0.0,0.0,0.0,0.0,0.0,0.0,0.0,0.0,0.0,0.0,0.0,0.0,0.0,0.0,0.0,0.0,0.0,0.0,0.0,0.0,0.0,0.0,0.0,0.0,0.0,0.0,0.0,0.0,0.0,0.0,0.0,0.0,0.0,0.0,0.0,0.0,0.0,0.0,0.0,0.0,0.0,0.0,0.0,0.0,0.0,0.0,0.0,0.0,0.0,0.0,0.0,0.0,0.0,0.0,0.0,0.0,0.0,0.0,0.0,0.0,0.0,0.0,0.0,0.0,0.0,0.0,0.0,0.0,0.0,0.0,0.0,0.0,0.0,0.0,0.0,0.0,0.0,0.0,0.0,0.0,0.0,0.0,0.0,0.0,0.0,0.0,0.0,-3.4599,-3.7151,-3.8822,-3.9082,-3.858,-3.7238,-3.5747,-3.3953,-3.177,-2.7295,0.0,0.0,0.0,0.0,0.0,0.0,0.0,0.0,0.0,0.0,0.0,0.0,0.0,0.0,0.0,0.0,0.0,0.0,0.0,0.0,0.0,0.0,0.0,0.0,0.0,0.0,0.0,0.0,0.0,0.0,0.0,0.0,0.0,0.0,0.0,0.0,0.0,0.0,0.0,0.0,0.0,0.0,0.0,0.0,0.0,0.0,0.0,0.0,0.0,0.0,0.0,0.0,0.0,0.0,0.0,0.0,0.0,0.0,0.0,0.0,0.0,0.0,0.0,0.0,0.0,0.0,0.0,0.0,0.0,0.0,0.0,0.0,0.0,0.0,0.0,0.0,0.0,0.0,0.0,0.0,0.0,0.0,0.0,0.0,0.0,0.0,0.0,0.0,0.0,0.0,0.0,0.0,0.0,0.0,0.0,0.0,0.0,0.0,0.0,0.0,0.0,0.0,-3.4525,-3.6755,0.0,-3.9082,-3.8451,-3.686,-3.5967,-3.4084,-3.0664,0.0,0.0,0.0,0.0,0.0,0.0,0.0,0.0,0.0,0.0,0.0,0.0,0.0,0.0,0.0,0.0,0.0,0.0,0.0,0.0,0.0,0.0,0.0,0.0,0.0,0.0,0.0,0.0,0.0,0.0,0.0,0.0,0.0,0.0,0.0,0.0,0.0,0.0,0.0,0.0,0.0,0.0,0.0,0.0,0.0,0.0,0.0,0.0,0.0,0.0,0.0,0.0,0.0,0.0,0.0,0.0,0.0,0.0,0.0,0.0,0.0,0.0,0.0,0.0,0.0,0.0,0.0,0.0,0.0,0.0,0.0,0.0,0.0,0.0,0.0,0.0,0.0,0.0,0.0,0.0,0.0,0.0,0.0,0.0,0.0,0.0,0.0,0.0,0.0,0.0,0.0,0.0,0.0,0.0,0.0,0.0,0.0,0.0,0.0,0.0,0.0,0.0,-3.2497,-3.471,-3.6718,0.0,-3.9082,-3.8442,-3.6901,-3.5899,-3.3834,-3.0297,0.0,0.0,0.0,0.0,0.0,0.0,0.0,0.0,0.0,0.0,0.0,0.0,0.0,0.0,0.0,0.0,0.0,0.0,0.0,0.0,0.0,0.0,0.0,0.0,0.0,0.0,0.0,0.0,0.0,0.0,0.0,0.0,0.0,0.0,0.0,0.0,0.0,0.0,0.0,0.0,0.0,0.0,0.0,0.0,0.0,0.0,0.0,0.0,0.0,0.0,0.0,0.0,0.0,0.0,0.0,0.0,0.0,0.0,0.0,0.0,0.0,0.0,0.0,0.0,0.0,0.0,0.0,0.0,0.0,0.0,0.0,0.0,0.0,0.0,0.0,0.0,0.0,0.0,0.0,0.0,0.0,0.0,0.0,0.0,0.0,0.0,0.0,0.0,0.0,0.0,0.0,0.0,0.0,0.0,0.0,0.0,0.0,0.0,0.0,0.0,0.0,0.0,-3.2777,-3.5279,-3.7299,-3.8934,-3.9082,-3.8665,-3.7573,-3.5339,-3.312,0.0,0.0,0.0,0.0,0.0,0.0,0.0,0.0,0.0,0.0,0.0,0.0,0.0,0.0,0.0,0.0,0.0,0.0,0.0,0.0,0.0,0.0,0.0,0.0,0.0,0.0,0.0,0.0,0.0,0.0,0.0,0.0,0.0,0.0,0.0,0.0,0.0,0.0,0.0,0.0,0.0,0.0,0.0,0.0,0.0,0.0,0.0,0.0,0.0,0.0,0.0,0.0,0.0,0.0,0.0,0.0,0.0,0.0,0.0,0.0,0.0,0.0,0.0,0.0,0.0,0.0,0.0,0.0,0.0,0.0,0.0,0.0,0.0,0.0,0.0,0.0,0.0,0.0,0.0,0.0,0.0,0.0,0.0,0.0,0.0,0.0,0.0,0.0,0.0,0.0,0.0,0.0,0.0,0.0,0.0,0.0,0.0,0.0,0.0,0.0,0.0,0.0,0.0,-3.3553,-3.5652,-3.7299,-3.8934,-3.9082,-3.8498,-3.7071,-3.5605,-3.3259,-2.9721,0.0,0.0,0.0,0.0,0.0,0.0,0.0,0.0,0.0,0.0,0.0,0.0,0.0,0.0,0.0,0.0,0.0,0.0,0.0,0.0,0.0,0.0,0.0,0.0,0.0,0.0,0.0,0.0,0.0,0.0,0.0,0.0,0.0,0.0,0.0,0.0,0.0,0.0,0.0,0.0,0.0,0.0,0.0,0.0,0.0,0.0,0.0,0.0,0.0,0.0,0.0,0.0,0.0,0.0,0.0,0.0,0.0,0.0,0.0,0.0,0.0,0.0,0.0,0.0,0.0,0.0,0.0,0.0,0.0,0.0,0.0,0.0,0.0,0.0,0.0,0.0,0.0,0.0,0.0,0.0,0.0,0.0,0.0,0.0,0.0,0.0,0.0,0.0,0.0,0.0,0.0,0.0,0.0,0.0,0.0,0.0,0.0,0.0,0.0,0.0,0.0,0.0,-3.397,-3.5861,-3.7299,-3.8934,-3.9082,-3.8562,-3.7299,-3.6007,-3.3585,-2.9707,0.0,0.0,0.0,0.0,0.0,0.0,0.0,0.0,0.0,0.0,0.0,0.0,0.0,0.0,0.0,0.0,0.0,0.0,0.0,0.0,0.0,0.0,0.0,0.0,0.0,0.0,0.0,0.0,0.0,0.0,0.0,0.0,0.0,0.0,0.0,0.0,0.0,0.0,0.0,0.0,0.0,0.0,0.0,0.0,0.0,0.0,0.0,0.0,0.0,0.0,0.0,0.0,0.0,0.0,0.0,0.0,0.0,0.0,0.0,0.0,0.0,0.0,0.0,0.0,0.0,0.0,0.0,0.0,0.0,0.0,0.0,0.0,0.0,0.0,0.0,0.0,0.0,0.0,0.0,0.0,0.0,0.0,0.0,0.0,0.0,0.0,0.0,0.0,0.0,0.0,0.0,0.0,0.0,0.0,0.0,0.0,0.0,0.0,0.0,0.0,0.0,0.0,-3.414,-3.5907,-3.7299,-3.8934,-3.9082,-3.8785,-3.7968,-3.642,-3.4043,-3.0658,0.0,0.0,0.0,0.0,0.0,0.0,0.0,0.0,0.0,0.0,0.0,0.0,0.0,0.0,0.0,0.0,0.0,0.0,0.0,0.0,0.0,0.0,0.0,0.0,0.0,0.0,0.0,0.0,0.0,0.0,0.0,0.0,0.0,0.0,0.0,0.0,0.0,0.0,0.0,0.0,0.0,0.0,0.0,0.0,0.0,0.0,0.0,0.0,0.0,0.0,0.0,0.0,0.0,0.0,0.0,0.0,0.0,0.0,0.0,0.0,-3.2314,-3.0565,0.0,0.0,0.0,0.0,0.0,0.0,0.0,0.0,0.0,0.0,0.0,0.0,0.0,0.0,0.0,0.0,0.0,0.0,0.0,0.0,0.0,0.0,0.0,0.0,0.0,0.0,0.0,0.0,0.0,0.0,0.0,0.0,0.0,0.0,0.0,0.0,0.0,0.0,0.0,0.0,-3.4216,-3.5907,-3.7299,-3.8934,-3.9082,-3.8785,-3.7968,-3.642,-3.4315,-3.1518,-2.8249,0.0,0.0,0.0,0.0,0.0,0.0,0.0,0.0,0.0,0.0,0.0,0.0,0.0,0.0,0.0,0.0,0.0,0.0,0.0,0.0,0.0,0.0,0.0,0.0,0.0,0.0,0.0,0.0,0.0,0.0,0.0,0.0,0.0,0.0,0.0,0.0,0.0,0.0,0.0,0.0,0.0,0.0,0.0,0.0,0.0,0.0,0.0,0.0,0.0,0.0,0.0,0.0,0.0,0.0,0.0,0.0,0.0,0.0,0.0,-3.6392,-3.4468,0.0,0.0,0.0,0.0,0.0,0.0,0.0,0.0,0.0,0.0,0.0,0.0,0.0,0.0,0.0,0.0,0.0,0.0,0.0,0.0,0.0,0.0,0.0,0.0,0.0,0.0,0.0,0.0,0.0,0.0,0.0,0.0,0.0,0.0,0.0,0.0,0.0,0.0,0.0,0.0,-3.446,-3.6426,-3.7916,-3.9149,-3.9165,-3.8934,-3.8488,-3.7002,-3.5157,-3.2994,-2.9728,0.0,0.0,0.0,0.0,0.0,0.0,0.0,0.0,0.0,0.0,0.0,0.0,0.0,0.0,0.0,0.0,0.0,0.0,0.0,0.0,0.0,0.0,0.0,0.0,0.0,0.0,0.0,0.0,0.0,0.0,0.0,0.0,0.0,0.0,0.0,0.0,0.0,0.0,0.0,0.0,0.0,0.0,0.0,0.0,0.0,0.0,0.0,0.0,0.0,0.0,0.0,0.0,0.0,-4.1785,-4.2662,-4.3778,-4.3893,-4.397,-4.3816,-4.1162,-3.9469,-3.8546,-3.7007,0.0,0.0,0.0,0.0,0.0,0.0,0.0,0.0,0.0,0.0,0.0,0.0,0.0,0.0,0.0,0.0,0.0,0.0,0.0,0.0,0.0,0.0,-3.5368,-3.664,-3.7045,-3.5929,-3.1597,0.0,0.0,0.0,0.0,0.0,0.0,0.0,0.0,0.0,0.0,0.0,-3.489,-3.7103,-3.8635,-3.9401,-3.9311,-3.9137,-3.9082,-3.7634,-3.6049,-3.4513,-3.1425,-2.8286,0.0,0.0,0.0,0.0,0.0,0.0,0.0,0.0,0.0,0.0,0.0,0.0,0.0,0.0,0.0,0.0,0.0,0.0,0.0,0.0,0.0,0.0,0.0,0.0,0.0,0.0,0.0,0.0,0.0,0.0,0.0,0.0,-2.8665,-2.8896,0.0,0.0,0.0,0.0,0.0,0.0,0.0,0.0,0.0,0.0,0.0,0.0,0.0,-4.0439,-4.2085,-4.4509,-4.5086,-4.3816,-4.6817,-4.7586,-4.6423,-4.7124,-4.7432,-4.7471,-4.7778,0.0,-4.1239,-4.0239,0.0,0.0,0.0,0.0,0.0,0.0,0.0,0.0,0.0,0.0,0.0,0.0,0.0,0.0,0.0,0.0,0.0,0.0,0.0,0.0,0.0,0.0,-3.9677,-3.9892,-3.9938,-3.9377,-3.7276,-3.4661,-3.216,-3.0115,-2.8736,-2.7505,0.0,0.0,0.0,0.0,0.0,0.0,-3.5883,-3.7585,-3.879,-3.9426,-3.9477,-3.9363,-3.911,-3.7634,-3.6309,-3.538,-3.2878,-3.0524,-2.8489,-2.625,0.0,0.0,0.0,0.0,0.0,0.0,0.0,0.0,0.0,0.0,0.0,0.0,0.0,0.0,0.0,0.0,0.0,0.0,0.0,0.0,0.0,0.0,0.0,0.0,0.0,0.0,0.0,0.0,0.0,-2.906,-3.0761,-3.1322,-3.139,-3.121,0.0,0.0,0.0,0.0,0.0,0.0,0.0,0.0,0.0,-4.0844,-4.251,-4.397,-4.524,-4.6778,-4.7432,-4.7163,-4.8663,-4.9279,-4.9048,-4.9394,-4.9548,-4.9586,-4.9971,-4.8586,-4.597,-4.4624,-4.2816,-4.0739,0.0,0.0,0.0,0.0,-3.9462,-3.9385,-4.1654,-4.1623,-4.0631,-4.0816,0.0,0.0,0.0,0.0,0.0,0.0,0.0,-3.7199,-3.8507,-4.0046,-4.147,-4.2393,-4.2277,-4.1893,-4.1585,-3.9238,-3.6238,-3.3122,-3.2699,-3.1968,-2.9192,-2.9154,0.0,0.0,0.0,-3.4978,-3.7049,-3.8582,-3.9533,-3.9675,-3.9561,-3.9401,-3.911,-3.8002,-3.7,-3.6222,-3.4216,-3.2292,-3.0582,-2.8592,-2.6522,0.0,0.0,0.0,0.0,0.0,0.0,0.0,0.0,0.0,0.0,0.0,0.0,0.0,0.0,0.0,0.0,0.0,0.0,0.0,0.0,0.0,0.0,0.0,0.0,0.0,0.0,0.0,0.0,-3.1438,-3.3109,-3.3483,-3.4226,-3.4313,0.0,0.0,0.0,0.0,0.0,0.0,-4.0747,-4.1579,-4.2782,-4.4443,-4.6097,-4.7332,-4.8154,-4.924,-4.9933,-5.0356,-5.0587,-5.0933,-5.1318,-5.1318,-5.1318,-5.1356,-5.1597,-5.1048,-4.9894,-4.8009,-4.597,-4.4008,-4.3124,-4.2393,-4.1978,-4.3239,-4.3316,-4.3162,-4.5932,-4.6317,-4.5518,-4.4893,-4.4124,-4.2662,-3.8654,0.0,0.0,0.0,0.0,-3.9354,-4.1054,-4.1931,-4.2816,-4.4278,-4.4162,-4.3855,-4.4201,-4.2816,-4.0362,-3.6553,-3.6276,-3.5692,-3.2538,-3.2385,0.0,-3.2968,-3.4769,-3.6654,-3.8108,-3.9414,-4.0062,-3.9786,-3.9573,-3.935,-3.9092,-3.8081,-3.7215,-3.6689,-3.4992,-3.3389,-3.1996,-3.036,-2.8518,-2.6469,0.0,0.0,0.0,0.0,0.0,0.0,0.0,0.0,0.0,0.0,0.0,0.0,0.0,0.0,0.0,0.0,0.0,0.0,0.0,0.0,0.0,0.0,0.0,0.0,0.0,0.0,0.0,0.0,0.0,-3.4606,-3.7179,0.0,0.0,0.0,0.0,-4.0584,-4.1438,-4.2649,-4.4423,-4.5351,-4.6513,-4.7981,-4.9745,-5.0971,-5.1654,-5.3318,-5.378,-5.301,-5.3857,-5.3818,-5.3087,-5.3087,-5.3087,-5.3126,-5.3933,-5.3356,-5.1577,-4.9086,-4.7509,-4.6624,-4.574,-4.5364,-4.5364,-4.5441,-4.5441,-4.5556,-4.6547,-4.6317,-4.5979,-4.8317,-4.6894,-4.4047,-4.3047,-4.1008,0.0,0.0,-4.0931,-4.2008,-4.3662,-4.4124,-4.4393,-4.5325,-4.5518,-4.5248,-4.447,-4.4201,-4.3316,-4.0708,-3.8315,-3.6615,-3.6423,0.0,-3.5577,-3.6346,-3.7276,-3.8185,-3.9023,-3.9706,-3.9982,-3.9739,-3.9477,-3.9192,-3.8935,-3.7451,-3.6565,-3.6491,-3.494,-3.3585,-3.271,-3.109,-2.9837,-2.8942,-2.5738,0.0,0.0,0.0,0.0,0.0,0.0,0.0,0.0,0.0,0.0,0.0,0.0,0.0,0.0,0.0,0.0,0.0,0.0,0.0,0.0,0.0,0.0,0.0,0.0,0.0,0.0,0.0,0.0,-3.9301,-4.135,0.0,-4.1271,-4.216,-4.318,-4.4217,-4.4997,-4.6173,-4.7928,-4.8823,-4.9798,-5.0836,-5.1942,-5.263,-5.2872,-5.3388,-5.351,-5.3203,-5.351,-5.351,-5.3203,-5.3203,-5.3203,-5.3241,-5.3549,-5.3318,-5.2664,-5.1779,-5.0587,-4.9317,-4.9019,-4.8865,-4.8865,-4.8865,-4.8865,-4.8942,-4.924,-4.9125,-4.8942,-4.9279,-4.7855,-4.5932,-4.5624,-4.4509,-4.3401,-4.3709,-4.4017,-4.4393,-4.4979,-4.5133,-4.521,-4.5518,-4.5594,-4.5518,-4.521,-4.4701,-4.3893,-4.2431,-4.1008,-3.9462,-3.7815,-3.7777,-3.7853,-3.7584,-3.8277,-3.9146,-3.9953,-4.0232,-4.0262,-3.992,-3.9679,-3.9452,-3.9178,-3.7965,-3.7026,-3.6514,-3.5326,-3.4071,-3.2759,-3.1593,-3.0392,-2.9058,-2.6854,-2.4944,0.0,0.0,0.0,0.0,0.0,0.0,0.0,0.0,0.0,0.0,0.0,0.0,0.0,0.0,0.0,0.0,0.0,0.0,0.0,0.0,0.0,0.0,0.0,0.0,0.0,0.0,-4.1251,-4.2024,-4.4285,-4.5421,-4.4472,-4.5584,-4.6664,-4.7342,-4.8396,-4.9508,-5.0702,-5.1598,-5.2266,-5.2729,-5.3534,-5.3901,-5.376,-5.4005,-5.4082,-5.4049,-5.4049,-5.4049,-5.4049,-5.4049,-5.4049,-5.4049,-5.4049,-5.3895,-5.3626,-5.3626,-5.2818,-5.1548,-5.1548,-5.1548,-5.151,-5.1202,-5.1087,-5.1087,-5.0789,-5.0712,-5.0596,-5.001,-4.8894,-4.774,-4.774,-4.7124,-4.6432,-4.6432,-4.624,-4.6047,-4.6047,-4.5825,-4.5594,-4.5594,-4.5594,-4.5594,-4.5594,-4.5171,-4.447,-4.3662,-4.2585,-4.1162,-3.92,-3.9323,-3.9515,-3.8931,-3.9361,-3.9877,-4.0389,-4.0407,-4.0223,-3.9982,-3.9785,-3.9526,-3.9259,-3.8048,-3.7031,-3.6459,-3.5023,-3.3733,-3.2733,-3.1593,-3.0503,-2.9427,-2.7556,-2.5805,-2.419,0.0,0.0,0.0,0.0,0.0,0.0,0.0,0.0,0.0,0.0,0.0,0.0,0.0,0.0,0.0,0.0,0.0,0.0,0.0,0.0,0.0,0.0,0.0,-3.5836,-4.0752,-4.388,-4.2584,-4.5953,-4.7818,-4.6395,-4.8477,-4.9946,-5.0077,-5.16,-5.2607,-5.2741,-5.3561,-5.394,-5.3668,-5.4616,-5.4932,-5.457,-5.545,-5.5827,-5.5703,-5.5703,-5.5703,-5.5703,-5.5703,-5.5703,-5.5703,-5.5703,-5.5241,-5.4549,-5.4549,-5.4049,-5.328,-5.3241,-5.3203,-5.3087,-5.2231,-5.1923,-5.1769,-5.101,-5.0712,-5.0712,-5.0712,-5.0125,-4.9433,-4.9433,-4.8817,-4.8125,-4.8125,-4.7548,-4.6923,-4.6923,-4.6278,-4.5633,-4.5594,-4.5594,-4.5594,-4.5594,-4.5594,-4.5325,-4.447,-4.3008,-4.1577,-4.07,-4.0516,-4.0516,-4.0508,-4.0508,0.0,-4.0415,-4.0177,-3.9972,-3.9905,-3.967,-3.9414,-3.9124,-3.7623,-3.6576,-3.6332,-3.399,-3.2583,-3.2583,-3.1091,-3.0246,-3.021,-2.7897,-2.5878,-2.4263,0.0,0.0,0.0,0.0,0.0,0.0,0.0,0.0,0.0,0.0,0.0,0.0,0.0,0.0,0.0,0.0,0.0,0.0,0.0,0.0,0.0,-3.8277,-4.1024,-4.1023,-4.3535,-4.5947,-4.7404,-4.9149,-5.0126,-4.9827,-5.0992,-5.1795,-5.194,-5.2957,-5.3587,-5.3639,-5.4459,-5.4858,-5.4675,-5.5436,-5.5733,-5.5507,-5.5682,-5.5728,-5.5703,-5.5703,-5.5703,-5.5703,-5.5703,-5.5703,-5.5703,-5.5703,-5.5549,-5.5357,-5.5357,-5.5241,-5.4895,-5.3664,-5.3203,-5.3164,-5.2933,-5.2423,-5.1885,-5.1654,-5.1202,-5.0712,-5.0712,-5.0558,-5.0327,-5.0327,-4.974,-4.9048,-4.9048,-4.8432,-4.7625,-4.7038,-4.674,-4.6394,-4.5748,-4.5594,-4.5594,-4.5594,-4.5594,-4.5355,-4.4465,-4.3918,-4.315,-4.1621,-4.0891,-4.0491,-4.0419,-4.0449,-4.0386,-4.0334,-4.0242,-4.0225,-4.0196,-3.9954,-3.9682,-3.9414,-3.774,-3.6576,-3.6332,-3.399,-3.2583,-3.2583,-3.1604,-3.0797,-3.021,-2.8987,-2.7556,0.0,0.0,0.0,0.0,0.0,0.0,0.0,0.0,0.0,0.0,0.0,0.0,0.0,0.0,0.0,0.0,0.0,0.0,0.0,0.0,0.0,0.0,-4.1777,-4.4509,-4.5586,-4.6677,-4.7963,-4.9497,-5.0509,-5.1278,-5.1791,-5.2305,-5.2788,-5.3208,-5.4068,-5.4537,-5.4537,-5.5357,-5.575,-5.5546,-5.5953,-5.6064,-5.5817,-5.5779,-5.5758,-5.5703,-5.5703,-5.5703,-5.5703,-5.5703,-5.5703,-5.5703,-5.5703,-5.5703,-5.5703,-5.5703,-5.5703,-5.5588,0.0,0.0,0.0,0.0,-5.3203,-5.2423,-5.2423,-5.1895,-5.1202,-5.1202,-5.0971,-5.0712,-5.0712,-5.0366,-4.9933,-4.9933,-4.9317,-4.8548,-4.8086,-4.7432,-4.6778,-4.6278,-4.5864,-4.5594,-4.5594,-4.5577,-4.5396,-4.4908,-4.4497,0.0,-4.2389,-4.1515,-4.0863,-4.0454,-4.0407,-4.0389,-4.0316,-4.0307,-4.0289,-4.031,-4.0166,-3.9922,-3.9539,-3.7854,0.0,0.0,0.0,-3.2436,-3.2118,-3.1654,0.0,0.0,0.0,0.0,0.0,-2.8128,0.0,0.0,-2.5474,-2.5768,0.0,0.0,0.0,0.0,0.0,0.0,0.0,0.0,0.0,0.0,0.0,0.0,0.0,0.0,0.0,0.0,-4.4855,-4.6826,-4.9086,-4.9603,-4.9773,-4.9914,-5.0772,-5.171,-5.2622,-5.2899,-5.3327,-5.4108,-5.4923,-5.5428,-5.5428,-5.6123,0.0,0.0,0.0,-5.6116,-5.5868,-5.5972,-5.6001,-5.5972,-5.5972,-5.5972,-5.5972,-5.5895,-5.5857,-5.5818,-5.5742,-5.5703,-5.5703,-5.5703,-5.5703,-5.5703,-5.5703,-5.5703,-5.5588,-5.4895,-5.4087,-5.3356,-5.3356,0.0,0.0,-5.2038,-5.151,-5.0827,-5.0827,-5.0789,-5.0712,-5.0712,-5.0125,-4.951,-4.9433,-4.824,-4.7,-4.6923,-4.624,-4.5586,-4.5586,-4.555,-4.5475,-4.5505,-4.4853,-4.403,-4.3101,-4.2249,-4.1403,-4.0504,-4.0389,-4.0381,-4.0307,-4.0298,-4.0318,-4.031,-4.0282,0.0,-3.9551,-3.7937,-3.6783,-3.6346,-3.4064,-3.2375,-3.158,-3.1604,-3.1617,-3.1544,-3.1544,-3.1507,-3.1397,-3.1397,-3.1091,-3.043,-2.8191,-2.8301,0.0,0.0,0.0,0.0,0.0,0.0,0.0,0.0,0.0,0.0,0.0,0.0,0.0,0.0,0.0,-4.4786,-4.7124,-4.8856,-4.9317,-5.0104,-5.0664,-5.0757,-5.1721,-5.2498,-5.2663,-5.3953,-5.489,-5.5044,-5.5705,-5.6102,-5.6102,-5.6145,-5.6136,-5.5946,-5.5978,-5.6227,-5.6753,-5.6757,-5.7131,-5.7819,-5.7819,0.0,-5.778,-5.7049,-5.6753,-5.6714,-5.6011,-5.5703,-5.5703,-5.5703,-5.5703,-5.5703,-5.5703,-5.5703,-5.5665,-5.5511,-5.4934,-5.4241,-5.4241,-5.3664,-5.2972,-5.2972,-5.2356,-5.1654,-5.1654,-5.1202,0.0,-5.0712,-5.0596,-5.0289,-4.9586,-4.8625,-4.7702,-4.7038,-4.6174,-4.5532,-4.5532,-4.5457,-4.541,-4.5409,-4.5275,-4.4862,-4.3922,-4.2575,-4.1331,-4.0453,-4.0329,-4.0329,-4.0281,-4.032,-4.032,-4.0301,-4.0127,-3.9829,-3.9539,-3.7804,-3.6642,-3.6332,-3.4578,-3.322,-3.2412,-3.2999,-3.3036,-3.2362,-3.2375,-3.2045,-3.1397,-3.1397,-3.1641,-3.2106,-3.098,-3.0736,0.0,0.0,0.0,0.0,0.0,0.0,0.0,0.0,0.0,0.0,0.0,-3.8046,-4.0162,0.0,-4.5547,-4.724,-4.8933,-5.0048,-5.0048,-5.0529,-5.109,-5.1579,-5.2204,-5.2988,-5.3912,-5.4773,-5.5426,-5.5786,-5.6102,-5.629,-5.6197,-5.6135,-5.6223,-5.6553,-5.6606,-5.7,-5.7738,-5.7842,-5.8026,-5.8384,-5.8384,-5.8361,-5.828,-5.7857,-5.7665,-5.7627,-5.7203,-5.7011,-5.6973,-5.6511,-5.6088,-5.5703,-5.5703,-5.5703,-5.5703,-5.5703,-5.5434,-5.5088,-5.5088,-5.4549,-5.3857,-5.3857,-5.328,-5.2462,-5.2038,-5.1625,-5.1202,-5.0827,-5.0712,-5.0596,-5.0164,-4.9394,-4.8538,-4.7703,-4.68,-4.6004,-4.5563,-4.54,-4.54,-4.5408,-4.5378,-4.5041,-4.4169,-4.2995,-4.1906,-4.1036,-4.0578,-4.0301,-4.0301,-4.0301,-4.0301,-4.0301,-4.0048,-3.9785,-3.9526,-3.7649,-3.6265,-3.5679,-3.4504,-3.3623,-3.322,-3.3587,-3.3623,-3.322,-3.322,-3.2999,-3.2596,-3.2999,-3.339,-3.3793,-3.3844,-3.3623,0.0,0.0,0.0,0.0,0.0,0.0,0.0,0.0,-3.5161,-3.7853,-3.9546,-4.1247,-4.3624,-4.5893,-4.7894,-4.9394,-5.025,-5.0712,-5.0712,-5.0812,-5.12,-5.2169,-5.2543,-5.3338,-5.4872,-5.5304,-5.5714,-5.6277,-5.6237,-5.6169,-5.6064,-5.6185,-5.6544,-5.7172,-5.7474,-5.7986,-5.8738,-5.8878,-5.894,-5.8944,-5.8944,-5.8896,-5.8781,-5.8627,-5.855,-5.8511,-5.8357,-5.8319,-5.8242,-5.7368,-5.6599,-5.5934,-5.578,-5.5703,-5.5703,-5.5703,-5.5703,-5.5703,-5.5703,-5.528,-5.4741,-5.4741,-5.4164,-5.328,-5.2423,-5.2038,-5.1731,-5.0933,-5.0712,-5.0712,-5.0712,-5.0048,-4.9212,-4.8481,-4.753,-4.6541,-4.5822,-4.5505,-4.5388,-4.5388,-4.5357,-4.5086,-4.435,-4.3558,-4.2679,-4.1648,-4.0807,-4.0301,-4.0301,-4.0301,-4.0291,-4.0215,-3.9986,-3.9618,-3.9164,-3.7521,-3.6156,-3.5298,-3.4491,-3.4027,-3.4027,-3.388,-3.3807,-3.3807,-3.3807,-3.388,-3.4027,-3.4674,-3.5078,-3.5261,-3.6119,-3.6156,-3.4885,-3.443,-3.4391,-3.5776,-3.5615,-3.6462,0.0,0.0,-4.0593,-4.394,-4.4748,-4.5441,-4.7201,-4.8394,-4.9433,-5.0404,-5.0635,-5.0712,-5.0712,-5.0731,-5.1055,-5.2013,-5.3041,-5.3744,-5.3947,-5.5311,-5.6203,-5.6273,-5.6078,-5.5946,-5.5921,-5.6532,-5.6985,-5.7181,-5.7981,-5.8794,-5.9648,-5.9675,-5.9969,-6.0558,-6.0558,-6.0546,-6.0473,-5.9704,-5.9358,-5.9319,-5.8627,-5.8319,-5.8242,-5.7368,-5.6934,-5.6769,-5.6011,-5.5703,-5.5703,-5.5703,-5.5703,-5.5703,-5.5703,-5.5626,-5.5549,-5.5549,-5.5011,-5.4203,-5.3318,-5.25,-5.1731,-5.0933,-5.0712,-5.0712,-5.0712,-5.0009,-4.9278,-4.9191,-4.7854,-4.6595,-4.648,-4.5865,-4.5288,-4.5288,-4.5326,-4.5288,-4.5163,-4.4437,-4.3319,-4.1724,-4.0807,-4.0301,-4.0301,-4.0301,-4.0196,-3.9975,-3.9705,-3.9051,-3.7837,-3.75,-3.7015,-3.6193,-3.5334,-3.4857,-3.4857,-3.4174,-3.3807,-3.3807,-3.3807,-3.4174,-3.4857,-3.4968,-3.5408,-3.6156,-3.6978,-3.7309,-3.8277,-3.7815,-3.7584,0.0,-3.9815,-4.0816,-4.4278,-4.4248,-4.4171,-4.6547,-4.7855,-4.8634,-4.8817,-4.9971,-5.0818,0.0,-5.0712,-5.0712,-5.0712,-5.1087,-5.1357,-5.1296,-5.2647,-5.3811,-5.4386,-5.5151,-5.5745,-5.6147,-5.6146,-5.633,-5.6752,-5.7071,-5.773,-5.8816,-5.9165,-5.9778,-6.0623,-6.0623,-6.0726,-6.0913,-6.0913,-6.0877,-6.0781,-6.0435,-6.0242,-6.0242,-5.9896,-5.9473,-5.8973,-5.8627,-5.7896,-5.6973,-5.6588,-5.6137,-5.5703,-5.5703,-5.5703,-5.5703,-5.5703,-5.5703,-5.5703,-5.5703,-5.5472,-5.5049,-5.4203,-5.3356,-5.2472,-5.1625,-5.1048,-5.0702,-5.0663,-5.0363,-4.991,-4.9311,-4.8262,-4.7225,-4.6658,-4.591,-4.5288,-4.5288,-4.5288,-4.5288,-4.5288,-4.459,-4.3586,-4.2412,-4.1533,-4.0845,-4.0339,-4.0301,-4.0147,-3.9717,-3.9439,-3.8985,-3.8257,-3.7786,-3.7345,-3.7015,-3.5752,-3.5004,-3.5004,-3.4234,-3.3807,-3.3807,-3.3807,-3.4211,-3.5004,-3.5518,-3.6193,-3.7015,-3.7808,-3.8212,-3.9708,0.0,0.0,-4.2008,-4.3124,-4.4278,-4.621,-4.6479,-4.6778,-4.8471,-4.9625,-5.0212,-4.9817,-5.0933,-5.1664,-5.0827,-5.0894,-5.101,-5.101,-5.1356,-5.1433,-5.1087,-5.1999,-5.3041,-5.4012,-5.4691,-5.5361,-5.6119,-5.6202,-5.6586,-5.736,-5.7625,-5.8435,-5.9957,-6.0222,-6.0589,-6.112,-6.112,-6.107,-6.0953,-6.0953,-6.0871,-6.0781,-6.0781,-6.0781,-6.0781,-6.0781,-6.0435,-5.9858,-5.9588,-5.8781,-5.7638,-5.7176,-5.6599,-5.6011,-5.578,-5.5703,-5.5703,-5.5703,-5.5703,-5.5703,-5.5703,-5.5703,-5.5549,-5.4741,-5.3895,-5.301,-5.2154,-5.1318,-5.0692,-5.0632,-5.0612,-5.0378,-4.963,-4.8832,-4.7969,-4.7046,-4.6194,-4.5583,-4.5326,-4.5288,-4.5288,-4.5288,-4.4781,-4.4093,-4.3252,-4.2412,-4.1495,-4.0416,-4.0166,-3.9933,-3.9551,-3.9192,-3.8906,-3.8704,-3.8175,-3.7823,-3.7823,-3.6486,-3.5701,-3.5701,-3.4908,-3.4504,-3.4504,-3.4247,-3.4651,-3.5701,-3.6083,-3.6817,-3.786,-3.8432,-3.8689,0.0,0.0,-4.1054,-4.3585,-4.4893,-4.6172,-4.8702,-4.8625,-4.8509,-5.025,-4.9971,-4.9702,-5.0519,-5.1356,-5.1664,-5.0827,-5.1356,-5.1846,-5.1846,-5.1202,-5.101,-5.1769,-5.1212,-5.1143,0.0,-5.385,-5.5302,-5.6221,-5.6175,-5.6492,-5.7353,-5.8195,-5.905,-5.9957,-6.0766,-6.1112,-6.1011,-6.1011,-6.0943,-6.0793,-6.0793,-6.0793,-6.0781,-6.0781,-6.0781,-6.0781,-6.0781,-6.0781,-6.0704,-5.9858,-5.9473,-5.9242,-5.7627,-5.6983,-5.6868,-5.6011,-5.5703,-5.5703,-5.5703,-5.5703,-5.5703,-5.5703,-5.5703,-5.5549,-5.4741,-5.3895,-5.301,-5.2154,-5.1318,-5.0692,-5.0632,-5.0542,-5.0489,-5.0385,-4.9717,-4.8842,-4.7941,-4.7073,-4.6233,-4.543,-4.5288,-4.5288,-4.5288,-4.5288,-4.4972,-4.4083,-4.3291,-4.2144,-4.0492,-3.9867,-3.9526,-3.9514,-3.9036,-3.8689,-3.8689,-3.8689,-3.8652,-3.8652,-3.7896,-3.7419,-3.7419,-3.6633,-3.6229,-3.6229,-3.5371,-3.5775,-3.7419,-3.6684,-3.711,-3.8652,-3.8689,-3.8689,-4.1008,0.0,-4.3624,-4.6163,-4.7471,-4.8509,-4.9942,-5.0048,-4.9971,-5.0596,-5.001,-4.9471,-4.9779,-5.0048,-5.0164,-4.9894,-5.101,-5.1692,-5.1164,-5.2318,-5.2702,-5.1279,-5.1933,0.0,0.0,0.0,0.0,-5.5403,-5.5553,-5.6402,-5.8286,-5.867,-5.9449,-6.0766,-6.0965,-6.1066,-6.1002,-6.0902,-6.0823,-6.0781,-6.0781,-6.0781,-6.0781,-6.0781,-6.0781,-6.0781,-6.0781,-6.0781,-6.0781,-6.0473,-6.0012,-5.9435,-5.8896,-5.7973,-5.6945,-5.6676,-5.6214,-5.5703,-5.5703,-5.5703,-5.5703,-5.5703,-5.5703,-5.5665,-5.5395,-5.4703,-5.3895,-5.301,-5.2134,-5.1296,-5.0696,-5.0489,-5.0424,-5.0367,-4.9683,-4.8869,-4.7979,-4.7111,-4.6271,-4.5468,-4.5288,-4.5288,-4.5288,-4.5288,-4.4819,-4.3405,-4.2488,-4.1533,-4.0454,-3.9818,-3.9514,-3.9514,-3.9036,-3.8689,-3.8689,-3.8689,-3.8689,-3.8689,-3.7918,-3.7492,-3.7492,-3.6721,-3.6303,-3.6303,-3.6009,-3.6413,-3.7492,-3.7235,-3.7639,-3.8689,-3.8689,-3.8689,-4.2931,-4.4124,-4.5393,-4.7932,-4.8971,-4.9625,-5.0519,-5.0712,-5.0596,-5.0289,-4.9548,-4.8856,-4.8548,-4.8509,-4.8586,-4.8894,-5.0356,-5.151,-5.1587,-5.2741,-5.3203,-5.2164,-5.255,-5.2807,0.0,0.0,0.0,-5.5053,-5.5744,-5.6943,-5.8797,-5.9148,-5.9853,-6.1105,-6.1027,-6.0964,-6.0923,-6.0823,-6.0781,-6.0781,-6.0781,-6.0781,-6.0781,-6.0781,-6.0781,-6.0781,-6.0781,-6.0781,-6.0781,-6.0781,-6.0473,-5.9935,-5.9627,-5.8858,-5.783,-5.7214,-5.6637,-5.6126,-5.5818,-5.5703,-5.5703,-5.5703,-5.5703,-5.5703,-5.5703,-5.5126,-5.4318,-5.3433,-5.2508,-5.161,-5.0751,-5.0457,-5.039,-5.0333,-4.9901,-4.9289,-4.8449,-4.757,-4.6729,-4.5889,-4.5507,-4.5288,-4.5288,-4.5288,-4.4819,-4.3443,-4.2526,-4.1552,-4.0329,-3.9762,-3.9477,-3.9376,-3.8964,-3.8689,-3.8689,-3.8689,-3.8689,-3.8689,-3.8212,-3.7933,-3.7933,-3.7441,-3.7147,-3.7147,-3.6905,-3.711,-3.7933,-3.7639,-3.7933,-3.8689,-3.8689,-3.8689,-4.397,-4.5086,-4.6402,-4.8856,-4.9471,-4.9663,-5.0519,-5.0635,-5.0327,-4.951,-4.8509,-4.7548,0.0,0.0,-4.7048,-4.7855,-4.9548,-5.1318,-5.2895,-5.25,-5.2615,0.0,0.0,0.0,0.0,0.0,0.0,-5.526,-5.6691,-5.7926,-5.8817,-5.9568,-6.0274,-6.0993,-6.0944,-6.0884,-6.0781,-6.0781,-6.0781,-6.0781,-6.0781,-6.0781,-6.0781,-6.0781,-6.0781,-6.0781,-6.0781,-6.0781,-6.0781,-6.0781,-6.0781,-6.0704,-5.9896,-5.955,-5.9319,-5.7665,-5.706,-5.6868,-5.6011,-5.5703,-5.5703,-5.5703,-5.5703,-5.5703,-5.5703,-5.5164,-5.4395,-5.35,-5.2623,-5.1715,-5.0779,-5.0522,-5.0428,-5.0333,-5.0283,-5.0092,-4.9263,-4.8449,-4.7597,-4.6691,-4.5851,-4.5288,-4.5288,-4.5288,-4.501,-4.4111,-4.3347,-4.2131,-4.022,-3.9708,-3.9401,-3.911,-3.8848,-3.8689,-3.8689,-3.8689,-3.8689,-3.8689,-3.8689,-3.8689,-3.8689,-3.8689,-3.8689,-3.8689,-3.7955,-3.7933,-3.8689,-3.7933,-3.7955,-3.8689,-3.8689,-3.8689,-4.5778,-4.7317,-4.874,-5.0058,-5.0366,-5.0442,-5.0635,-4.9702,-4.8702,-4.8471,-4.574,-4.3547,0.0,0.0,0.0,-4.6086,-4.924,0.0,-5.2154,-5.3164,0.0,-5.3549,0.0,-5.3825,-5.3442,-5.4064,0.0,0.0,-5.6263,-5.7101,-5.8545,-5.9349,-6.0123,-6.0845,-6.0217,-6.0184,-6.0781,-6.0781,-6.0781,-6.0781,-6.0781,-6.0781,-6.0781,-6.0781,-6.0781,-6.0781,-6.0781,-6.0781,-6.0781,-6.0781,-6.0781,-6.0781,-6.055,-6.0089,-5.9396,-5.8357,-5.755,-5.6868,-5.6011,-5.5703,-5.5703,-5.5703,-5.5703,-5.5703,-5.5703,-5.5549,-5.5192,-5.4342,-5.3903,-5.331,-5.1798,-5.1346,-5.1135,-5.0474,-5.0283,-5.0092,-4.9263,-4.8919,-4.8334,-4.6806,-4.5851,-4.5288,-4.5288,-4.5288,-4.4957,-4.3855,-4.3529,-4.2784,-4.1032,-4.0047,-3.9401,-3.911,-3.8848,-3.8689,-3.8689,-3.8689,-3.8689,-3.8689,-3.8689,-3.8689,-3.8689,-3.8689,-3.8689,-3.8689,-3.8505,-3.8505,-3.8689,-3.8505,-3.8505,-3.8689,-3.8689,-3.8689,-4.7548,-4.8971,-5.0087,-5.0596,-5.0712,-5.0404,-4.9279,-4.8279,-4.7048,-4.5163,-4.2893,0.0,-4.0893,0.0,0.0,0.0,0.0,0.0,-5.2269,-5.3318,-5.401,0.0,-5.4496,0.0,-5.4409,-5.5281,-5.599,0.0,-5.6908,-5.7683,-5.8943,-5.9399,-5.9798,-6.0204,-5.9396,-5.9396,-6.0204,-6.0589,-6.0781,-6.0781,-6.0781,-6.0781,-6.0781,-6.0781,-6.0781,-6.0781,-6.0781,-6.0781,-6.0781,-6.0781,-6.0781,-6.0781,-6.0781,-6.0281,-5.9396,-5.8588,-5.7742,-5.6868,-5.6011,-5.5703,-5.5703,-5.5703,-5.5703,-5.5703,-5.5703,-5.5703,-5.55,-5.4628,-5.4342,-5.3913,-5.2158,-5.1667,-5.1391,-5.0512,-5.0283,-5.0168,-4.971,-4.9339,-4.8563,-4.6844,-4.5851,-4.5288,-4.5288,-4.5203,-4.4851,-4.4206,-4.3705,-4.2976,-4.1932,-4.0988,-4.0137,-3.9505,-3.9311,-3.9093,-3.8726,-3.8689,-3.8689,-3.8689,-3.8689,-3.8689,-3.8689,-3.8689,-3.8689,-3.8689,-3.8689,-3.8689,-3.8689,-3.8689,-3.8689,-3.8689,-3.8689,-3.8689,-4.9009,-5.0048,-5.0673,-5.0558,-5.0519,-4.9856,-4.7317,-4.6471,-4.5086,-4.117,0.0,-3.9246,-3.7892,-3.9123,-4.117,-4.3739,0.0,-4.9279,-5.2741,-5.3203,-5.3818,-5.5511,-5.5088,-5.4934,-5.5626,-5.6483,-5.706,-5.7176,-5.8075,-5.8944,-5.9631,-5.9573,-5.9435,-5.9358,-5.8781,-5.8781,-5.9473,-6.0358,-6.0781,-6.0781,-6.0781,-6.0781,-6.0781,-6.0781,-6.0781,-6.0781,-6.0781,-6.0781,-6.0781,-6.0781,-6.0781,-6.0781,-6.0781,-6.0319,-5.955,-5.8627,-5.7819,-5.7022,-5.6049,-5.5703,-5.5703,-5.5703,-5.5703,-5.5703,-5.5703,-5.5703,-5.5528,-5.477,-5.4484,-5.4081,-5.2453,-5.1885,-5.1544,-5.0665,-5.0397,-5.0283,-5.0283,-4.9671,-4.8602,-4.6997,-4.6003,-4.543,-4.5246,-4.4981,-4.4776,-4.4701,-4.3864,-4.31,-4.2819,-4.2047,-4.1089,-4.0005,-3.99,-3.957,-3.8762,-3.8689,-3.8689,-3.8689,-3.8689,-3.8689,-3.8689,-3.8689,-3.8689,-3.8689,-3.8689,-3.8689,-3.8689,-3.8689,-3.8689,-3.8689,-3.8689,-3.8689,-4.9317,-5.0048,-5.0519,-4.9817,-4.9625,-4.8971,-4.6402,-4.4201,0.0,0.0,-3.7245,-3.543,-3.5846,-3.7892,-4.0362,-4.2893,0.0,0.0,0.0,0.0,-5.3818,0.0,0.0,0.0,0.0,0.0,0.0,0.0,-5.8853,-5.9375,-5.9529,-5.9496,-5.9204,-5.855,-5.9011,-5.9358,-5.9511,-6.0358,-6.0781,-6.0781,-6.0781,-6.0781,-6.0781,-6.0781,-6.0781,-6.0781,-6.0781,-6.0781,-6.0781,-6.0781,-6.0781,-6.0781,-6.0781,-6.0704,-6.0396,-5.8858,-5.8204,-5.7857,-5.6242,-5.5703,-5.5703,-5.5703,-5.5703,-5.5703,-5.5703,-5.5671,-5.5577,-5.5366,-5.5258,-5.4968,-5.395,-5.3161,-5.2384,-5.1582,-5.0818,-5.0283,-5.0283,-4.9671,-4.8793,-4.7761,-4.6882,-4.5977,-4.5048,-4.4825,-4.465,-4.4192,-4.396,-4.3732,-4.3393,-4.2279,-4.1089,-4.0005,-3.99,-3.957,-3.8762,-3.8689,-3.8689,-3.8689,-3.8689,-3.8689,-3.8689,-3.8689,-3.8689,-3.8689,-3.8689,-3.8689,-3.8689,-3.8689,-3.8689,-3.8689,-3.8689,-3.8689,-4.9817,-5.0366,-5.0481,-4.9625,-4.9048,-4.7702,-4.3825,0.0,0.0,0.0,-3.4353,-3.3506,-3.35,0.0,0.0,0.0,0.0,0.0,0.0,0.0,0.0,0.0,0.0,0.0,0.0,0.0,-5.8011,-5.8858,-5.9704,-6.0165,-6.0165,-5.9742,-5.9127,-5.8319,-5.9088,-5.9511,-5.9511,-6.0358,-6.0781,-6.0781,-6.0781,-6.0781,-6.0781,-6.0781,-6.0781,-6.0781,-6.0781,-6.0781,-6.0781,-6.0781,-6.0781,-6.0781,-6.0781,-6.0281,-5.9396,-5.8588,-5.7742,-5.6819,-5.5972,-5.5703,-5.5703,-5.5703,-5.5703,-5.5703,-5.5703,-5.5671,-5.5604,-5.5535,-5.5437,-5.5211,-5.4345,-5.3454,-5.2614,-5.1811,-5.0932,-5.0283,-5.0283,-4.9671,-4.8797,-4.7791,-4.6891,-4.5934,-4.4788,-4.4465,-4.4294,-4.4033,-4.3844,-4.3664,-4.3532,-4.2934,-4.2173,-4.1238,-4.0781,-4.0194,-3.9386,-3.8946,-3.8689,-3.8689,-3.8689,-3.8689,-3.8689,-3.8689,-3.8689,-3.8689,-3.8689,-3.8689,-3.8689,-3.8689,-3.8689,-3.8689,-3.8689,-3.8689,-5.025,-5.0712,-5.0442,-4.9394,-4.8471,-4.6509,-4.1401,-3.9477,0.0,0.0,-3.2045,-3.2237,-3.1775,0.0,0.0,0.0,0.0,0.0,0.0,0.0,0.0,0.0,0.0,0.0,0.0,0.0,0.0,-5.9435,-6.0319,-6.0704,-6.0512,-5.9858,-5.9204,-5.8588,-5.9165,-5.9588,-5.9781,-6.0473,-6.0781,-6.0781,-6.0781,-6.0781,-6.0781,-6.0781,-6.0781,-6.0781,-6.0781,-6.0781,-6.0781,-6.0781,-6.0781,-6.0781,-6.0781,-5.9896,-5.855,-5.8357,-5.7319,-5.5934,-5.5742,-5.5703,-5.5703,-5.5703,-5.5703,-5.5703,-5.5703,-5.566,-5.5581,-5.5497,-5.5463,-5.5237,-5.4575,-5.3569,-5.2537,-5.1582,-5.0818,-5.0283,-5.0283,-4.9786,-4.9029,-4.7871,-4.7087,-4.6189,-4.4806,-4.4416,-4.4178,-4.3929,-4.3647,-4.3515,-4.3515,-4.3515,-4.324,-4.2616,-4.1846,-4.1022,-4.023,-3.9423,-3.8946,-3.8946,-3.8799,-3.8689,-3.8689,-3.8689,-3.8689,-3.8689,-3.8689,-3.8689,-3.8689,-3.8689,-3.8689,-3.8689,-3.8689,-3.8673,-5.025,-5.0712,-5.0289,-4.8625,-4.7625,-4.5701,-4.0585,0.0,0.0,-3.2429,-3.1115,-3.0846,-3.1583,-3.2545,-3.4314,0.0,0.0,-4.2393,0.0,0.0,0.0,0.0,0.0,0.0,0.0,-5.778,-5.8627,-5.9435,-6.0319,-6.0435,-5.9665,-5.955,-5.9473,-5.9396,-5.9473,-5.9896,-6.0666,-6.0742,-6.0781,-6.0781,-6.0781,-6.0781,-6.0781,-6.0781,-6.0781,-6.0781,-6.0781,-6.0781,-6.0781,-6.0781,-6.0781,-6.0781,-6.0781,-6.0204,-5.9319,-5.8588,-5.7703,-5.6791,-5.5972,-5.5703,-5.5703,-5.5703,-5.5703,-5.5703,-5.5703,-5.5626,-5.5523,-5.5485,-5.5427,-5.5365,-5.5288,-5.4065,-5.2384,-5.0818,-5.0359,-5.0283,-5.0283,-5.0245,-4.9856,-4.8706,-4.8426,-4.7682,-4.5519,-4.5117,-4.4728,-4.371,-4.3532,-4.3515,-4.3515,-4.3515,-4.3478,-4.3387,-4.2653,-4.1882,-4.1058,-4.0267,-3.979,-3.979,-3.9093,-3.8689,-3.8689,-3.8689,-3.8689,-3.8689,-3.8689,-3.8689,-3.8689,-3.8689,-3.8689,-3.8689,-3.8689,-3.8643,-4.9433,-5.0289,-5.0404,-4.9202,-4.7471,-4.4932,-4.0362,0.0,-3.5,-3.1615,-3.0654,-3.05,-3.0846,-3.1621,-3.2968,-3.5315,-3.6283,-3.8469,-4.3585,0.0,0.0,0.0,0.0,0.0,0.0,0.0,-5.8858,-6.0165,-6.0589,-6.0666,-6.0281,-6.0281,-6.0281,-6.0281,-6.0281,-6.0435,-6.0781,-6.0781,-6.0781,-6.0781,-6.0781,-6.0781,-6.0781,-6.0781,-6.0781,-6.0781,-6.0781,-6.0781,-6.0742,-6.0242,-6.0012,-5.9973,-5.9473,-5.8742,-5.7973,-5.7627,-5.6973,-5.6175,-5.5818,-5.5703,-5.5703,-5.5703,-5.5703,-5.5703,-5.566,-5.5554,-5.5473,-5.5437,-5.5428,-5.5288,-5.4753,-5.3339,-5.1773,-5.0588,-5.0283,-5.0283,-5.0283,-5.0125,-4.9669,-4.8499,-4.8145,-4.733,-4.5278,-4.4881,-4.4589,-4.3642,-4.3515,-4.3515,-4.3515,-4.3515,-4.3515,-4.3515,-4.2763,-4.2176,-4.1846,-4.1075,-4.0414,-3.9937,-3.9606,-3.9203,-3.8726,-3.8689,-3.8689,-3.8689,-3.8689,-3.8689,-3.8689,-3.8689,-3.8689,-3.8689,-3.8643,-3.8816,-4.8432,-4.9663,-5.0087,-4.924,-4.7086,-4.4132,0.0,-3.693,-3.4231,-3.1038,-3.0385,-3.0385,-3.0385,-3.0885,-3.1775,-3.3237,-3.4083,-3.6084,-4.0469,0.0,0.0,0.0,0.0,-5.3087,0.0,-5.7357,-5.8781,-5.9973,-6.005,-6.0165,-6.0396,-6.0204,-6.0281,-6.0781,-6.0781,-6.0781,-6.0781,-6.0781,-6.0781,-6.0781,-6.0781,-6.0781,-6.0781,-6.0781,-6.0666,-6.0435,-6.0435,-6.0281,-6.0012,-5.9396,-5.9165,-5.9088,-5.8511,-5.778,-5.6983,-5.6983,-5.6445,-5.5703,-5.5703,-5.5703,-5.5703,-5.5703,-5.5703,-5.5692,-5.5615,-5.5558,-5.5511,-5.5401,-5.5415,-5.5135,-5.4027,-5.2843,-5.1697,-5.055,-5.0224,-5.0137,-5.0137,-4.9884,-4.9405,-4.8474,-4.8108,-4.7339,-4.5404,-4.5039,-4.4709,-4.3662,-4.3515,-4.3515,-4.3515,-4.3515,-4.3515,-4.3515,-4.2983,-4.2653,-4.2653,-4.1919,-4.1222,-4.0634,-4.0157,-3.9643,-3.9093,-3.8836,-3.8689,-3.8689,-3.8689,-3.8689,-3.8689,-3.8689,-3.8836,-3.9056,-3.8925,-3.941,-4.7201,-4.874,-4.9202,-4.8317,-4.6201,-4.3201,0.0,-3.6045,-3.3468,-3.0923,-3.0385,-3.0385,-3.0385,-3.0423,-3.0692,-3.1583,-3.3846,-3.6385,-3.8969,-4.22,0.0,0.0,0.0,-5.0433,-5.301,-5.6319,-5.8319,-5.8319,-5.8319,-5.8665,-5.9473,-5.8781,-5.9088,-6.0742,-6.0781,-6.0781,-6.0781,-6.0781,-6.0781,-6.0781,-6.0781,-6.0781,-6.0781,-6.0781,-6.0319,-5.9511,-5.9511,-5.905,-5.8319,-5.8319,-5.8319,-5.8319,-5.8319,-5.778,-5.6983,-5.6983,-5.6445,-5.5703,-5.5703,-5.5703,-5.5703,-5.5703,-5.5703,-5.5682,-5.552,-5.5485,-5.5511,-5.5401,-5.5415,-5.5021,-5.3263,-5.2805,-5.2384,-5.0703,-5.0051,-4.9817,-4.9817,-4.9541,-4.9209,-4.8847,-4.8799,-4.8174,-4.6213,-4.5883,-4.5333,-4.3735,-4.3515,-4.3515,-4.3515,-4.3515,-4.3515,-4.3515,-4.3515,-4.3515,-4.3515,-4.2763,-4.2286,-4.2286,-4.0781,-3.99,-3.99,-3.9129,-3.8689,-3.8689,-3.8689,-3.8689,-3.8689,-3.8689,-3.9129,-3.9863,-3.9768,-4.046,-4.3355,-4.4816,-4.5701,-4.4893,-4.3162,-4.09,-3.7815,-3.5584,-3.3468,-3.0923,-3.0385,-3.0385,-3.0385,-3.0385,-3.1269,-3.3885,-3.4962,-3.6577,0.0,0.0,0.0,0.0,0.0,-5.3664,0.0,0.0,-5.7665,-5.828,-5.8319,-5.8396,-5.8665,-5.8434,-5.9088,-6.0742,-6.0204,-6.0204,-6.0781,-6.0781,-6.0781,-6.0781,-6.0781,-6.0473,-5.9896,-5.9896,-5.9473,-5.8665,-5.8665,-5.855,-5.8242,-5.7665,-5.7407,-5.7357,-5.6742,-5.6357,-5.6088,-5.6088,-5.5934,-5.5703,-5.5703,-5.5703,-5.5703,-5.5703,-5.5682,-5.5626,-5.5547,-5.5485,-5.5499,-5.5428,-5.4537,-5.3492,-5.2919,-5.1964,-5.0971,-5.0436,-5.0051,-4.9803,-4.9803,-4.9363,-4.8915,-4.8833,-4.8604,-4.7905,-4.6195,-4.5883,-4.5333,-4.3735,-4.3515,-4.3515,-4.3515,-4.3515,-4.3515,-4.3515,-4.3515,-4.3515,-4.3515,-4.3294,-4.2873,-4.2323,-4.1809,-4.1295,-4.0744,-4.0471,-4.0084,-3.9533,-4.0084,-4.0084,-3.9533,-3.947,-3.952,-3.966,-4.072,-4.1414,0.0,-4.2085,-4.3239,-4.2739,-4.1085,-3.8969,-3.6731,-3.4699,-3.2699,-3.0808,-3.0385,-3.0385,-3.0385,-3.0385,-3.1192,-3.3654,-3.4885,-3.6462,0.0,0.0,0.0,0.0,0.0,0.0,0.0,-5.6137,-5.6742,-5.728,-5.7319,-5.7473,-5.778,-5.7511,-5.8088,-5.9781,-5.9319,-5.9319,-5.9858,-6.0165,-6.0165,-5.9858,-6.0165,-5.9858,-5.905,-5.905,-5.8588,-5.7819,-5.7819,-5.7627,0.0,-5.6742,-5.6522,-5.6445,-5.5895,-5.5703,-5.5703,-5.5703,-5.5703,-5.5703,-5.5703,-5.5703,-5.5703,-5.5703,-5.5649,-5.5531,-5.5461,-5.5463,-5.5427,-5.5428,-5.4639,-5.3645,-5.2957,-5.204,-5.1061,-5.0278,-4.9857,-4.957,-4.9453,-4.8982,-4.8586,-4.8586,-4.8439,-4.7902,-4.6581,-4.6104,-4.5443,-4.4158,-4.3681,-4.3515,-4.3515,-4.3515,-4.3515,-4.3515,-4.3515,-4.3515,-4.3515,-4.3515,-4.3277,-4.2763,-4.247,-4.2103,-4.1572,-4.1242,-4.0838,-4.0377,-4.0838,-4.0838,-4.0292,-4.0504,-4.0552,-4.0451,-4.176,-4.2286,0.0,-3.9931,-4.1231,-4.1192,-3.9392,-3.7199,-3.5615,-3.3385,0.0,-3.0577,-3.0385,-3.0423,-3.0577,-3.0538,-3.0846,-3.1968,-3.4115,-3.6269,0.0,0.0,0.0,0.0,-5.0654,0.0,-5.328,-5.478,-5.5703,-5.5703,-5.5703,-5.6049,-5.6868,-5.6126,-5.6434,-5.805,-5.8127,-5.8165,-5.8319,-5.905,-5.905,-5.8319,-5.905,-5.9011,-5.8204,-5.8204,-5.7742,-5.6907,-5.6907,-5.6445,-5.5703,-5.5703,-5.5703,-5.5703,-5.5703,-5.5703,-5.5703,-5.5703,-5.5703,-5.5703,-5.5703,-5.5703,-5.5703,-5.5692,-5.5615,-5.5511,-5.5439,-5.5415,-5.5403,-5.5326,-5.525,-5.483,-5.3148,-5.2639,-5.2107,-5.025,-4.9527,-4.9177,-4.8885,-4.855,-4.8306,-4.8306,-4.8306,-4.8049,-4.7223,-4.6471,-4.57,-4.4856,-4.4048,-4.3534,-4.3515,-4.3515,-4.3515,-4.3515,-4.3515,-4.3515,-4.3515,-4.3515,-4.3515,-4.3515,-4.28,-4.2396,-4.2396,-4.1662,-4.1242,-4.1168,-4.1168,-4.1119,-4.0963,-4.1718,-4.1994,-4.1887,-4.2723,-4.3012,-3.2231,0.0,-3.5815,-3.5161,-3.4545,-3.3814,0.0,-3.2122,-3.1468,0.0,0.0,-3.0808,-3.2083,-3.1814,-3.2506,-3.5968,-3.7007,-3.8238,0.0,0.0,0.0,-5.251,-5.351,-5.4203,-5.5011,-5.5472,-5.5703,-5.5703,-5.5703,-5.578,-5.5972,-5.5818,-5.5895,-5.628,-5.6319,-5.6934,-5.828,-5.8511,-5.8511,-5.8319,-5.8511,-5.8127,-5.7308,-5.7319,-5.6819,-5.6011,-5.6011,-5.5895,-5.5703,-5.5703,-5.5703,-5.5703,-5.5703,-5.5703,-5.5703,-5.5703,-5.5703,-5.5703,-5.5703,-5.5703,-5.5692,-5.5593,-5.5547,-5.5499,-5.5415,-5.5416,-5.525,-5.46,-5.3913,-5.3187,-5.2155,-5.1205,-5.039,-4.9893,-4.9348,-4.8919,-4.8816,-4.855,-4.8306,-4.8306,-4.8306,-4.8049,-4.7223,-4.6929,-4.6342,-4.4911,-4.4562,-4.4195,-4.3588,-4.3515,-4.3515,-4.3515,-4.3515,-4.3515,-4.3515,-4.3515,-4.3515,-4.3515,-4.3331,-4.3204,-4.3204,-4.302,-4.2653,-4.2029,-4.1945,-4.1843,-4.1685,-4.245,-4.2468,-4.1778,-4.2557,-4.292,-2.9236,-3.166,-3.4167,-3.4122,-3.3776,-3.3391,-3.2929,0.0,0.0,0.0,0.0,0.0,-3.2122,-3.2314,-3.3276,-3.6353,-3.7815,0.0,0.0,0.0,0.0,-5.4126,-5.4818,-5.5203,-5.5665,-5.5703,-5.5703,-5.5703,-5.5703,-5.5703,-5.5703,-5.5703,-5.5703,-5.5703,-5.5703,-5.6165,-5.7088,-5.7511,-5.7511,-5.7126,-5.7511,-5.7242,-5.6395,-5.6395,-5.6137,-5.5703,-5.5703,-5.5703,-5.5703,-5.5703,-5.5703,-5.5703,-5.5703,-5.5703,-5.5703,-5.5703,-5.5703,-5.5703,-5.5703,-5.5703,-5.5692,-5.552,-5.5485,-5.5499,-5.5403,-5.5403,-5.5212,-5.4333,-5.376,-5.3085,-5.1701,-5.0873,-5.0227,-4.9521,-4.9048,-4.8764,-4.8586,-4.8421,-4.8306,-4.8306,-4.8306,-4.8159,-4.7736,-4.7333,-4.6782,-4.5938,-4.5168,-4.4562,-4.4121,-4.3718,-4.3515,-4.3515,-4.3515,-4.3515,-4.3515,-4.3515,-4.3515,-4.3515,-4.3515,-4.3515,-4.3515,-4.3515,-4.326,-4.2805,-4.2718,-4.2595,-4.245,-4.2849,-4.2757,-4.2266,-4.2701,-4.2901,-2.8159,-3.1089,-3.4083,-3.443,-3.4276,-3.3936,-3.3667,0.0,0.0,0.0,0.0,0.0,0.0,0.0,0.0,0.0,0.0,0.0,0.0,0.0,-5.2577,-5.4472,-5.528,0.0,-5.5703,-5.5703,-5.5703,-5.5703,-5.5703,-5.5703,-5.5703,-5.5703,-5.5703,-5.5703,-5.5703,-5.5703,-5.5703,-5.6445,-5.6445,-5.5703,-5.6445,-5.6406,-5.5703,-5.5703,-5.5703,-5.5703,-5.5703,-5.5703,-5.5703,-5.5703,-5.5703,-5.5703,-5.5703,-5.5703,-5.5703,-5.5703,-5.5703,-5.5703,-5.5703,-5.5703,-5.5671,-5.552,-5.5473,-5.5488,-5.5441,-5.5326,-5.5021,-5.4142,-5.3913,-5.343,-5.1402,-5.0837,-5.0476,-4.9118,-4.8764,-4.864,-4.8382,-4.8306,-4.8306,-4.8306,-4.8306,-4.8306,-4.8306,-4.7736,-4.7223,-4.7113,-4.5828,-4.4838,-4.4728,-4.4011,-4.3515,-4.3515,-4.3515,-4.3515,-4.3515,-4.3515,-4.3515,-4.3515,-4.3515,-4.3515,-4.3515,-4.3497,-4.3445,-4.3376,-4.3251,-4.3142,-4.3067,-4.2975,-4.2901,-4.2901,-4.2901,-4.2901,-2.9423,-3.1545,-3.2622,-3.0589,-3.1583,-3.2737,-3.1308,0.0,0.0,0.0,0.0,0.0,0.0,0.0,0.0,0.0,0.0,-4.5124,0.0,0.0,-5.2808,-5.5241,0.0,-5.5703,-5.5703,-5.5703,-5.5703,-5.5703,-5.5703,-5.5703,-5.5703,-5.5703,-5.5703,-5.5703,-5.5703,-5.5703,-5.5703,-5.5818,-5.5818,-5.5703,-5.5818,-5.5818,-5.5703,-5.5703,-5.5703,-5.5703,-5.5703,-5.5703,-5.5703,-5.5703,-5.5703,-5.5703,-5.5703,-5.5703,-5.5703,-5.5703,-5.5703,-5.5703,-5.5703,-5.5671,-5.5615,-5.5547,-5.5449,-5.5427,-5.539,-5.4868,-5.4104,-5.3225,-5.2996,-5.2526,-5.0529,-4.9773,-4.9437,-4.8902,-4.8587,-4.8382,-4.8306,-4.8306,-4.8306,-4.8306,-4.8306,-4.8306,-4.8306,-4.8196,-4.7883,-4.7186,-4.6324,-4.548,-4.4764,-4.4011,-4.3515,-4.3515,-4.3515,-4.3515,-4.3515,-4.3515,-4.3515,-4.3515,-4.3515,-4.3515,-4.3515,-4.3465,-4.334,-4.3233,-4.3142,-4.3031,-4.292,-4.2901,-4.2901,-4.2901,-4.2901,-4.2901,-2.7885,-3.0275,-3.1968,-3.0814,-3.3083,-3.5468,-3.4699,0.0,0.0,0.0,0.0,0.0,0.0,0.0,-3.9238,-4.2709,0.0,-4.8048,-5.0933,-5.2472,-5.3895,0.0,-5.5703,-5.5703,-5.5703,-5.5703,-5.5703,-5.5703,-5.5703,-5.5703,-5.5703,-5.5703,-5.5703,-5.5703,-5.5703,-5.5703,-5.5703,-5.5703,-5.5703,-5.5703,-5.5703,-5.5703,-5.5703,-5.5703,-5.5703,-5.5703,-5.5703,-5.5703,-5.5703,-5.5703,-5.5703,-5.5703,-5.5703,-5.5703,-5.5703,-5.5703,-5.5703,-5.5703,-5.5703,-5.5692,-5.5649,-5.552,-5.5461,-5.5451,-5.539,-5.5135,-5.4639,-5.376,-5.2705,-5.1507,-4.9953,-4.9287,-4.8932,-4.8586,-4.8402,-4.8306,-4.8306,-4.8306,-4.8306,-4.8306,-4.8306,-4.8306,-4.8306,-4.8306,-4.8196,-4.7773,-4.7039,-4.625,-4.5443,-4.4635,-4.3975,-4.3551,-4.3515,-4.3515,-4.3515,-4.3515,-4.3515,-4.3515,-4.3515,-4.348,-4.3428,-4.3429,-4.3323,-4.316,-4.3123,-4.3012,-4.2901,-4.2901,-4.2901,-4.2882,-4.2616,-4.2518,-2.739,-2.9544,-3.1583,-3.2391,0.0,-3.7469,-3.7661,0.0,0.0,0.0,0.0,0.0,0.0,-3.9046,0.0,-4.5556,-4.8163,-5.0279,-5.1962,-5.3549,-5.478,-5.5588,-5.5703,-5.5703,-5.5703,-5.5703,-5.5703,-5.5703,-5.5703,-5.5703,-5.5703,-5.5703,-5.5703,-5.5703,-5.5703,-5.5703,-5.5703,-5.5703,-5.5703,-5.5703,-5.5703,-5.5703,-5.5703,-5.5703,-5.5703,-5.5703,-5.5703,-5.5703,-5.5703,-5.5703,-5.5703,-5.5703,-5.5703,-5.5703,-5.5703,-5.5703,-5.5703,-5.5703,-5.5703,-5.5692,-5.5671,-5.5558,-5.5473,-5.5476,-5.5441,-5.525,-5.4931,-5.418,-5.2658,-5.1011,-4.9905,-4.9197,-4.8711,-4.8401,-4.8306,-4.8306,-4.8306,-4.8306,-4.8306,-4.8306,-4.8306,-4.8306,-4.8306,-4.8306,-4.8306,-4.8306,-4.7626,-4.6892,-4.625,-4.548,-4.4745,-4.4121,-4.3864,-4.3681,-4.3515,-4.3515,-4.3497,-4.348,-4.348,-4.3445,-4.3412,-4.3359,-4.3251,-4.3104,-4.3067,-4.2994,-4.2901,-4.2901,-4.2844,-4.2749,-4.2378,-4.2154,-3.0467,-3.0923,-3.1269,-3.4423,-3.5462,0.0,-3.6615,-3.6115,0.0,-3.7507,0.0,0.0,0.0,-4.1739,-4.4816,-4.7509,-4.9433,-5.1202,-5.2856,0.0,-5.478,-5.5588,-5.5703,-5.5703,-5.5703,-5.5703,-5.5703,-5.5703,-5.5703,-5.5703,-5.5703,-5.5703,-5.5703,-5.5703,-5.5703,-5.5703,-5.5703,-5.5703,-5.5703,-5.5703,-5.5703,-5.5703,-5.5703,-5.5703,-5.5703,-5.5703,-5.5703,-5.5703,-5.5703,-5.5703,-5.5703,-5.5703,-5.5703,-5.5703,-5.5703,-5.5703,-5.5703,-5.5703,-5.5703,-5.5671,-5.5615,-5.5508,-5.5437,-5.5415,-5.5377,-5.483,-5.4129,-5.3746,-5.2741,-5.155,-5.0723,-4.9662,-4.8711,-4.8401,-4.8306,-4.8306,-4.8306,-4.8306,-4.8306,-4.8306,-4.8306,-4.8306,-4.8306,-4.8306,-4.8306,-4.8306,-4.7626,-4.7076,-4.7003,-4.6324,-4.5773,-4.5736,-4.5076,-4.4305,-4.3534,-4.3515,-4.3463,-4.3412,-4.3412,-4.3412,-4.3394,-4.3215,-4.3104,-4.3104,-4.2975,-4.2901,-4.2901,-4.2901,-4.2691,-4.2257,-4.2216,-4.1952,-2.8852,-3.0237,-3.1775,-3.4122,-3.5892,0.0,0.0,-3.9315,-4.0546,-4.1662,-4.2162,0.0,0.0,0.0,-4.6394,-4.7855,-5.0433,-5.2472,-5.3126,-5.4395,-5.5357,-5.5665,-5.5703,-5.5703,-5.5703,-5.5703,-5.5703,-5.5703,-5.5703,-5.5703,-5.5703,-5.5703,-5.5703,-5.5703,-5.5703,-5.5703,-5.5703,-5.5703,-5.5703,-5.5703,-5.5703,-5.5703,-5.5703,-5.5703,-5.5703,-5.5703,-5.5703,-5.5703,-5.5703,-5.5703,-5.5703,-5.5703,-5.5703,-5.5703,-5.5703,-5.5703,-5.5703,-5.5703,-5.5703,-5.5671,-5.5604,-5.5508,-5.5437,-5.5415,-5.5416,-5.5174,-5.4842,-5.4425,-5.3104,-5.156,-5.0505,-4.9748,-4.9121,-4.8454,-4.8306,-4.8306,-4.8306,-4.8306,-4.8306,-4.8306,-4.8306,-4.8306,-4.8306,-4.8306,-4.8306,-4.8306,-4.8049,-4.7663,-4.7149,-4.6819,-4.6471,-4.5957,-4.5186,-4.4378,-4.3588,-4.3463,-4.3447,-4.3412,-4.3394,-4.3341,-4.3215,-4.3141,-4.3067,-4.2975,-4.2956,-4.2901,-4.2901,-4.2596,-4.2378,-4.2195,-4.1587,-4.123,-2.8544,-3.016,-3.2083,0.0,0.0,0.0,-3.9777,-4.1662,-4.347,-4.4855,-4.4893,0.0,0.0,0.0,0.0,0.0,-5.0741,-5.2779,-5.2779,-5.4241,-5.5318,-5.5318,-5.5318,-5.5318,-5.5318,-5.5318,-5.5318,-5.5318,-5.5549,-5.5588,-5.5318,-5.5318,-5.5203,-5.4934,-5.5164,-5.5318,-5.5318,-5.5549,-5.5703,-5.5703,-5.5703,-5.5703,-5.5703,-5.5703,-5.5703,-5.5703,-5.5703,-5.5703,-5.5703,-5.5703,-5.5703,-5.5703,-5.5703,-5.5703,-5.5703,-5.5703,-5.5703,-5.5703,-5.5703,-5.5671,-5.5604,-5.5508,-5.5437,-5.5415,-5.5416,-5.53,-5.5127,-5.4731,-5.3548,-5.2071,-5.062,-4.973,-4.904,-4.8453,-4.8306,-4.8306,-4.8306,-4.8306,-4.8306,-4.8306,-4.8306,-4.8306,-4.8306,-4.8306,-4.8306,-4.8306,-4.8306,-4.8122,-4.7553,-4.748,-4.7076,-4.5993,-4.5626,-4.4911,-4.3573,-4.3649,-4.3632,-4.3305,-4.3305,-4.3251,-4.3104,-4.3067,-4.2994,-4.2901,-4.2901,-4.2825,-4.2691,-4.2358,-4.2071,-4.1739,-4.1094,-4.0707,-3.0385,-3.1038,-3.2122,0.0,0.0,0.0,-4.1269,-4.2508,-4.3855,-4.6394,0.0,-4.5902,-4.674,-4.6923,0.0,-4.7971,-5.0231,-5.1885,-5.1885,-5.3395,-5.4472,-5.4472,-5.4472,-5.4472,-5.4472,-5.4472,-5.4472,-5.4472,-5.5241,-5.5318,-5.4511,-5.4472,-5.4087,-5.3241,-5.4049,-5.4472,-5.4472,-5.528,-5.5665,-5.5665,-5.5665,-5.5665,-5.5703,-5.5703,-5.5703,-5.5703,-5.5703,-5.5703,-5.5703,-5.5703,-5.5703,-5.5703,-5.5703,-5.5703,-5.5703,-5.5703,-5.5703,-5.5703,-5.5703,-5.5671,-5.5604,-5.5508,-5.5437,-5.5402,-5.5416,-5.5113,-5.4731,-5.438,-5.3979,-5.3234,-5.129,-4.9554,-4.8306,-4.8306,-4.8306,-4.8306,-4.8306,-4.8306,-4.8306,-4.8306,-4.8306,-4.8306,-4.8306,-4.8306,-4.8306,-4.8306,-4.8306,-4.8306,-4.8306,-4.8306,-4.7682,-4.6067,-4.6599,-4.6085,-4.3631,-4.4163,-4.4181,-4.3177,-4.3104,-4.3104,-4.3104,-4.2975,-4.2901,-4.2882,-4.2882,-4.2635,-4.2216,-4.2195,-4.1696,-4.0802,-4.0802,-4.0538,-2.8967,-3.1006,0.0,0.0,0.0,0.0,0.0,0.0,0.0,0.0,-4.8432,-4.8163,-4.7817,-4.824,0.0,-4.8971,-5.0625,-5.1885,-5.1885,-5.2856,-5.3587,-5.3587,-5.3587,-5.3587,-5.3587,-5.3587,-5.3587,-5.3587,-5.3818,-5.3857,-5.3587,-5.3587,-5.3472,-5.3203,-5.3433,-5.3587,-5.3587,-5.3818,-5.3933,-5.3933,-5.3933,-5.4549,-5.5703,-5.5703,-5.5703,-5.5703,-5.5703,-5.5703,-5.5703,-5.5703,-5.5703,-5.5703,-5.5703,-5.5703,-5.5703,-5.5703,-5.5703,-5.5703,-5.5703,-5.5638,-5.5547,-5.5523,-5.5439,-5.5352,-5.5047,-5.4866,-5.4534,-5.3377,-5.253,-5.1677,-5.0296,-4.9114,-4.8306,-4.8306,-4.8306,-4.8306,-4.8306,-4.8306,-4.8306,-4.8306,-4.8306,-4.8306,-4.8306,-4.8306,-4.8306,-4.8306,-4.8306,-4.8306,-4.8306,-4.8306,-4.7902,-4.6856,-4.6966,-4.6562,-4.5205,-4.4693,-4.4309,-4.3959,-4.3339,-4.2975,-4.2975,-4.2901,-4.2749,-4.2418,-4.2398,-4.2195,-4.1717,-4.1388,-4.1047,-4.0778,-4.0476,-4.0229,-3.0583,-3.2737,0.0,0.0,0.0,0.0,-4.6394,0.0,0.0,0.0,0.0,-4.924,-4.8702,-4.9048,0.0,-4.9394,-5.0548,-5.1433,-5.1433,-5.2164,-5.2692,-5.2692,-5.2692,-5.2692,-5.2692,-5.2692,-5.2692,-5.2692,-5.301,-5.3049,-5.2692,-5.2692,-5.2549,-5.2202,-5.251,-5.2692,-5.2692,-5.3049,-5.3203,-5.3203,-5.3203,-5.3741,-5.4703,-5.4703,-5.4703,-5.4703,-5.4703,-5.4895,-5.5203,-5.5203,-5.5395,-5.5703,-5.5703,-5.5703,-5.5703,-5.5703,-5.5703,-5.5703,-5.5703,-5.5626,-5.5485,-5.5485,-5.5427,-5.5313,-5.4933,-5.4489,-5.3908,-5.2806,-5.1844,-5.0878,-4.9853,-4.9206,-4.871,-4.8379,-4.8306,-4.8306,-4.8306,-4.8306,-4.8306,-4.8306,-4.8306,-4.8306,-4.8306,-4.8306,-4.8306,-4.8306,-4.8306,-4.8306,-4.8306,-4.8306,-4.7993,-4.7186,-4.7368,-4.7018,-4.5845,-4.5475,-4.5016,-4.4266,-4.3681,-4.3208,-4.2918,-4.2901,-4.2691,-4.2216,-4.2216,-4.1867,-4.123,-4.0943,-4.0707,-4.0524,-4.051,-4.0527,-3.3667,0.0,0.0,0.0,0.0,0.0,0.0,0.0,-4.974,-5.0558,0.0,-4.951,-4.951,-4.951,-4.951,-4.951,-5.0164,-5.0712,-5.0712,-5.1318,-5.1769,-5.1769,-5.1769,-5.1769,-5.1769,-5.1769,-5.1769,-5.1769,-5.251,-5.2626,-5.1808,-5.1769,-5.1471,-5.0712,-5.1395,-5.1769,-5.1769,-5.2587,-5.2972,-5.2972,-5.2972,-5.2972,-5.2972,-5.3126,-5.3203,-5.3203,-5.3203,-5.3664,-5.4395,-5.4395,-5.4857,-5.5588,-5.5588,-5.5626,-5.5703,-5.5703,-5.5703,-5.5703,-5.5703,-5.5626,-5.5485,-5.5396,-5.5389,-5.53,-5.479,-5.3918,-5.3007,-5.2512,-5.156,-5.0508,-4.9684,-4.95,-4.928,-4.8489,-4.8306,-4.8306,-4.8306,-4.8306,-4.8306,-4.8306,-4.8306,-4.8306,-4.8306,-4.8306,-4.8306,-4.8306,-4.8306,-4.8306,-4.8306,-4.8306,-4.7993,-4.7296,-4.7806,-4.7563,-4.595,-4.6362,-4.6009,-4.4423,-4.4258,-4.3841,-4.3078,-4.2917,-4.2596,-4.2154,-4.2148,-4.1736,-4.0834,-4.0903,-4.073,-4.0316,-4.1001,-4.1305,0.0,-3.4391,0.0,0.0,0.0,0.0,0.0,-4.9433,-5.0481,-5.0673,-5.0558,-5.0442,-5.0442,-5.0442,-5.0442,-5.0442,-5.0596,-5.0712,-5.0712,-5.0866,-5.0971,-5.0971,-5.0971,-5.0971,-5.0971,-5.0971,-5.0971,-5.0971,-5.1125,-5.1164,-5.0971,-5.0971,-5.0894,-5.0712,-5.0856,-5.0971,-5.0971,-5.1125,-5.1241,-5.1241,-5.1241,-5.1241,-5.1279,-5.2587,-5.3203,-5.3203,-5.3203,-5.3318,-5.3472,-5.3472,-5.3972,-5.4741,-5.4741,-5.5126,-5.5703,-5.5703,-5.5703,-5.5703,-5.5649,-5.5581,-5.5396,-5.4697,-5.4892,-5.5159,-5.3799,-5.3236,-5.2844,-5.1525,-5.0515,-4.9684,-4.8783,-4.86,-4.8526,-4.8343,-4.8306,-4.8306,-4.8306,-4.8306,-4.8306,-4.8306,-4.8306,-4.8306,-4.8306,-4.8306,-4.8306,-4.8306,-4.8306,-4.8306,-4.8306,-4.8306,-4.8233,-4.8086,-4.8136,-4.8002,-4.7538,-4.6981,-4.6517,-4.5997,-4.5381,-4.4786,-4.4163,-4.2982,-4.2118,-4.1674,-4.1869,-4.1664,-4.1146,-4.1724,-4.1944,-4.1839,-4.1982,-4.2049,0.0,0.0,0.0,0.0,0.0,0.0,0.0,0.0,-5.0212,-5.0596,-5.0712,-5.0712,-5.0712,-5.0712,-5.0712,-5.0712,-5.0712,-5.0712,-5.0712,-5.0712,-5.0712,-5.0712,-5.0712,-5.0712,-5.0712,-5.0712,-5.0712,-5.0712,-5.0712,-5.0712,-5.0712,-5.0712,-5.0712,-5.0712,-5.0712,-5.0712,-5.0712,-5.0712,-5.0712,-5.0712,-5.0712,-5.0712,-5.075,-5.1587,-5.201,-5.201,-5.201,-5.2202,-5.2577,-5.2577,-5.3087,-5.3895,-5.3895,-5.4126,-5.4511,-5.4511,-5.4511,-5.45,-5.4446,-5.4353,-5.4208,-5.3728,-5.386,-5.3925,-5.2762,-5.2193,-5.1665,-5.0543,-4.9627,-4.8857,-4.8416,-4.8306,-4.8306,-4.8306,-4.8306,-4.8306,-4.8306,-4.8306,-4.8306,-4.8306,-4.8306,-4.8306,-4.8306,-4.8306,-4.8306,-4.8306,-4.8306,-4.8306,-4.8306,-4.8306,-4.8306,-4.8306,-4.817,-4.8088,-4.8012,-4.7486,-4.6861,-4.6154,-4.5702,-4.5094,-4.416,-4.3122,-4.245,-4.2218,-4.2348,-4.2218,-4.1745,-4.2117,-4.2286,-4.2286,-4.2658,-4.2828,0.0,0.0,0.0,0.0,0.0,0.0,0.0,0.0,-4.9586,-5.0327,-5.0596,-5.0712,-5.0712,-5.0712,-5.0712,-5.0712,-5.0712,-5.0712,-5.0712,-5.0712,-5.0712,-5.0712,-5.0712,-5.0712,-5.0712,-5.0712,-5.0712,-5.0712,-5.0712,-5.0712,-5.0712,-5.0712,-5.0712,-5.0712,-5.0712,-5.0712,-5.0712,-5.0712,-5.0712,-5.0712,-5.0712,-5.0712,-5.0712,-5.0712,-5.0712,-5.0712,-5.0712,-5.1087,-5.1692,-5.1692,-5.2192,-5.2972,-5.2972,-5.3087,-5.3203,-5.3203,-5.3192,-5.3182,-5.3129,-5.3026,-5.2931,-5.2721,-5.2676,-5.2564,-5.1804,-5.1072,-5.0385,-4.9786,-4.8967,-4.8306,-4.8306,-4.8306,-4.8306,-4.8306,-4.8306,-4.8306,-4.8306,-4.8306,-4.8306,-4.8306,-4.8306,-4.8306,-4.8306,-4.8306,-4.8306,-4.8306,-4.8306,-4.8306,-4.8306,-4.8306,-4.8306,-4.8306,-4.8131,-4.8012,-4.7992,-4.7845,-4.7183,-4.5985,-4.5905,-4.5313,-4.4036,-4.3598,-4.3356,-4.328,-4.3117,-4.2877,-4.2489,-4.2625,-4.2719,-4.2692,-4.3335,-4.3606,0.0,0.0,0.0,0.0,0.0,0.0,0.0,0.0,-4.9433,0.0,-5.0164,-5.0712,-5.0712,-5.0712,-5.0712,-5.0712,-5.0712,-5.0712,-5.0712,-5.0712,-5.0712,-5.0712,-5.0712,-5.0712,-5.0712,-5.0712,-5.0712,-5.0712,-5.0712,-5.0712,-5.0712,-5.0712,-5.0712,-5.0712,-5.0712,-5.0712,-5.0712,-5.0712,-5.0712,-5.0712,-5.0712,-5.0712,-5.0712,-5.0712,-5.0712,-5.0712,-5.0712,-5.075,-5.0856,-5.0856,-5.1356,-5.2077,-5.2077,-5.2538,-5.3203,-5.3203,-5.3172,-5.3091,-5.3026,-5.297,-5.2797,-5.2038,-5.2044,-5.2153,-5.1011,-5.0443,-5.0077,-4.9709,-4.8967,-4.8306,-4.8306,-4.8306,-4.8306,-4.8306,-4.8306,-4.8306,-4.8306,-4.8306,-4.8306,-4.8306,-4.8306,-4.8306,-4.8306,-4.8306,-4.8306,-4.8306,-4.8306,-4.8306,-4.8306,-4.8306,-4.8306,-4.8306,-4.8209,-4.8128,-4.8012,-4.7907,-4.7557,-4.677,-4.6748,-4.6259,-4.5139,-4.5036,-4.4807,-4.4387,-4.3715,-4.3322,-4.324,-4.3944,-4.431,-4.431,-4.4412,-4.4445,-3.4584,-3.7469,-4.0554,0.0,0.0,0.0,0.0,0.0,-4.8125,-4.8586,-4.9356,-5.0125,-5.0596,-5.0712,-5.0712,-5.0712,-5.0712,-5.0712,-5.0712,-5.0712,-5.0712,-5.0712,-5.0712,-5.0712,-5.0712,-5.0712,-5.0712,-5.0712,-5.0712,-5.0712,-5.0712,-5.0712,-5.0712,-5.0712,-5.0712,-5.0712,-5.0712,-5.0712,-5.0712,-5.0712,-5.0712,-5.0712,-5.0712,-5.0712,-5.0712,-5.0712,-5.0712,-5.0712,-5.0712,-5.0712,-5.0894,-5.1241,-5.1241,-5.1471,-5.1779,-5.1739,-5.1718,-5.1687,-5.159,-5.1507,-5.1411,-5.0786,-5.0745,-5.0743,-4.9797,-4.9457,-4.9303,-4.8972,-4.86,-4.8306,-4.8306,-4.8306,-4.8306,-4.8306,-4.8306,-4.8306,-4.8306,-4.8306,-4.8306,-4.8306,-4.8306,-4.8306,-4.8306,-4.8306,-4.8306,-4.8306,-4.8306,-4.8306,-4.8306,-4.8306,-4.8306,-4.8306,-4.8246,-4.8168,-4.8128,-4.7705,-4.7196,-4.6613,-4.6196,-4.5683,-4.4961,-4.4906,-4.4797,-4.4615,-4.4248,-4.4079,-4.4079,-4.4445,-4.4615,-4.4615,-4.4615,-4.4615,-3.5661,-3.7507,-3.9084,-4.2239,0.0,0.0,0.0,0.0,-4.7077,0.0,-4.8471,-4.9279,-4.9933,-5.0404,-5.0712,-5.0712,-5.0712,-5.0712,-5.0712,-5.0712,-5.0712,-5.0712,-5.0712,-5.0712,-5.0712,-5.0712,-5.0712,-5.0712,-5.0712,-5.0712,-5.0712,-5.0712,-5.0712,-5.0712,-5.0712,-5.0712,-5.0712,-5.0712,-5.0712,-5.0712,-5.0712,-5.0712,-5.0712,-5.0712,-5.0712,-5.0712,-5.0712,-5.0712,-5.0712,-5.0712,-5.0712,-5.0712,-5.0712,-5.0702,-5.0682,-5.0632,-5.0563,-5.0521,-5.0435,-5.0317,-5.0212,-4.9897,-4.9669,-4.9453,-4.8932,-4.8746,-4.8604,-4.8382,-4.8306,-4.8306,-4.8306,-4.8306,-4.8306,-4.8306,-4.8306,-4.8306,-4.8306,-4.8306,-4.8306,-4.8306,-4.8306,-4.8306,-4.8306,-4.8306,-4.8306,-4.8306,-4.8306,-4.8306,-4.8306,-4.8306,-4.8306,-4.8306,-4.8265,-4.8226,-4.8207,-4.76,-4.6913,-4.6317,-4.5734,-4.5142,-4.4643,-4.4615,-4.4615,-4.4615,-4.4615,-4.4615,-4.4615,-4.4615,-4.4615,-4.4615,-4.4615,-4.4615,-3.2468,-3.4391,0.0,0.0,0.0,0.0,0.0,0.0,-4.6923,-4.6962,-4.7625,-4.8202,-4.824,-4.9586,-5.0712,-5.0712,-5.0712,-5.0712,-5.0712,-5.0712,-5.0712,-5.0712,-5.0712,-5.0712,-5.0712,-5.0712,-5.0712,-5.0712,-5.0712,-5.0712,-5.0712,-5.0712,-5.0712,-5.0712,-5.0712,-5.0712,-5.0712,-5.0712,-5.0712,-5.0712,-5.0712,-5.0712,-5.0712,-5.0712,-5.0712,-5.0712,-5.0712,-5.0712,-5.0712,-5.0712,-5.0712,-5.0712,-5.0712,-5.0673,-5.0584,-5.0584,-5.0511,-5.0412,-5.0401,-5.0137,-4.983,-4.9817,-4.9363,-4.885,-4.8816,-4.8587,-4.8325,-4.8306,-4.8306,-4.8306,-4.8306,-4.8306,-4.8306,-4.8306,-4.8306,-4.8306,-4.8306,-4.8306,-4.8306,-4.8306,-4.8306,-4.8306,-4.8306,-4.8306,-4.8306,-4.8306,-4.8306,-4.8306,-4.8306,-4.8306,-4.8306,-4.8306,-4.8287,-4.8248,-4.8207,-4.7783,-4.7129,-4.6341,-4.587,-4.5283,-4.4643,-4.4615,-4.4615,-4.4615,-4.4615,-4.4615,-4.4615,-4.4615,-4.4615,-4.4615,-4.4615,-4.4615,-3.1583,-3.2968,0.0,0.0,0.0,0.0,-4.3085,-4.4393,-4.5393,-4.5932,-4.674,-4.7317,-4.7317,-4.8279,-4.9202,-4.9779,-4.9856,-5.0048,-5.0635,-5.0712,-5.0712,-5.0712,-5.0712,-5.0712,-5.0712,-5.0712,-5.0712,-5.0712,-5.0712,-5.0712,-5.0712,-5.0712,-5.0712,-5.0712,-5.0712,-5.0712,-5.0712,-5.0712,-5.0712,-5.0712,-5.0712,-5.0712,-5.0712,-5.0712,-5.0712,-5.0712,-5.0712,-5.0712,-5.0712,-5.0712,-5.0712,-5.0702,-5.0663,-5.0642,-5.0573,-5.05,-5.0446,-5.0401,-5.0367,-5.0088,-4.9776,-4.9541,-4.9177,-4.8764,-4.855,-4.842,-4.8306,-4.8306,-4.8306,-4.8306,-4.8306,-4.8306,-4.8306,-4.8306,-4.8306,-4.8306,-4.8306,-4.8306,-4.8306,-4.8306,-4.8306,-4.8306,-4.8306,-4.8306,-4.8306,-4.8306,-4.8306,-4.8306,-4.8306,-4.8306,-4.8306,-4.8306,-4.8306,-4.819,-4.7834,-4.7327,-4.6707,-4.6074,-4.5537,-4.5042,-4.472,-4.472,-4.4665,-4.4615,-4.4615,-4.4615,-4.4615,-4.4615,-4.4615,-4.4615,-4.4615,-4.4615,-3.0429,0.0,0.0,0.0,0.0,0.0,-4.197,0.0,-4.3778,-4.494,-4.5855,-4.6471,-4.6471,-4.6894,-4.7625,-4.8779,-4.8971,-4.9163,-4.974,-4.9817,-4.9817,-4.9817,-4.9817,-4.9817,-4.9817,-4.9817,-4.9817,-4.9817,-4.9817,-4.9817,-4.9817,-4.9817,-4.9817,-4.9817,-5.0404,-5.0558,-5.0289,-5.0558,-5.0712,-5.0712,-5.0712,-5.0712,-5.0712,-5.0712,-5.0712,-5.0712,-5.0712,-5.0712,-5.0712,-5.0712,-5.0702,-5.0673,-5.0632,-5.0553,-5.0511,-5.0435,-5.039,-5.0317,-5.02,-4.9897,-4.957,-4.924,-4.8919,-4.8605,-4.8382,-4.8306,-4.8306,-4.8306,-4.8306,-4.8306,-4.8306,-4.8306,-4.8306,-4.8306,-4.8306,-4.8306,-4.8306,-4.8306,-4.8306,-4.8306,-4.8306,-4.8306,-4.8306,-4.8306,-4.8306,-4.8306,-4.8306,-4.8306,-4.8306,-4.8306,-4.8306,-4.8306,-4.8306,-4.8094,-4.7632,-4.7093,-4.6543,-4.5925,-4.5328,-4.494,-4.4803,-4.4748,-4.4665,-4.4615,-4.4615,-4.4615,-4.4615,-4.4615,-4.4615,-4.4615,-4.4615,-4.4615,0.0,0.0,0.0,0.0,0.0,0.0,-4.0692,0.0,-4.2162,-4.3893,-4.494,-4.5518,-4.5594,-4.5594,-4.6133,-4.7778,-4.8048,-4.8086,-4.8086,-4.8086,-4.8086,-4.8086,-4.8086,-4.8086,-4.8086,-4.8086,-4.8086,-4.8086,-4.8086,-4.8086,-4.8086,-4.8086,-4.8086,-4.8086,-4.974,-5.0212,-4.9356,-5.0212,-5.0635,-5.0635,-5.0635,-5.0673,-5.0673,-5.0712,-5.0712,-5.0712,-5.0712,-5.0712,-5.0712,-5.0712,-5.0673,-5.0622,-5.0612,-5.0511,-5.0401,-5.0401,-5.0367,-5.0236,-4.9897,-4.957,-4.924,-4.8919,-4.8587,-4.8306,-4.8306,-4.8306,-4.8306,-4.8306,-4.8306,-4.8306,-4.8306,-4.8306,-4.8306,-4.8306,-4.8306,-4.8306,-4.8306,-4.8306,-4.8306,-4.8306,-4.8306,-4.8306,-4.8306,-4.8306,-4.8306,-4.8306,-4.8306,-4.8306,-4.8306,-4.8306,-4.8306,-4.8306,-4.8306,-4.8094,-4.7611,-4.716,-4.6613,-4.5925,-4.5328,-4.4968,-4.4803,-4.4699,-4.4615,-4.4615,-4.4615,-4.4615,-4.4615,-4.4615,-4.4615,-4.4615,-4.4615,-4.4615,-2.8165,0.0,0.0,0.0,0.0,0.0,0.0,0.0,-3.9115,-4.2701,-4.3124,-4.3393,-4.5248,-4.5594,-4.5748,-4.621,-4.6817,-4.7432,-4.8009,-4.8086,-4.8086,-4.8086,-4.8086,-4.8086,-4.8086,-4.8086,-4.8086,-4.8086,-4.8086,-4.8086,-4.8086,-4.8086,-4.8086,-4.8086,-4.8586,-4.8702,-4.8471,-4.8702,-4.8817,-4.8817,-4.9471,-4.974,-4.9779,-5.0404,-5.0712,-5.0712,-5.0712,-5.0712,-5.0712,-5.0712,-5.0673,-5.0612,-5.0542,-5.0478,-5.0401,-5.0356,-5.0137,-4.991,-4.983,-4.9424,-4.8898,-4.8833,-4.8587,-4.8306,-4.8306,-4.8306,-4.8306,-4.8306,-4.8306,-4.8306,-4.8306,-4.8306,-4.8306,-4.8306,-4.8306,-4.8306,-4.8306,-4.8306,-4.8306,-4.8306,-4.8306,-4.8306,-4.8306,-4.8306,-4.8306,-4.8306,-4.8306,-4.8306,-4.8306,-4.8306,-4.8306,-4.8306,-4.8306,-4.7975,-4.716,-4.6959,-4.6495,-4.5598,-4.5283,-4.5069,-4.4968,-4.4803,-4.4692,-4.4615,-4.4615,-4.4615,-4.4615,-4.4615,-4.4615,-4.4615,-4.4615,-4.4615,-2.9044,0.0,0.0,0.0,0.0,0.0,-3.6038,-3.6423,-3.7308,0.0,-4.1893,-4.2354,-4.4201,-4.4547,-4.4671,-4.5017,-4.547,-4.6124,-4.6932,-4.7048,-4.7048,-4.7048,-4.7048,-4.7048,-4.7048,-4.7048,-4.7048,-4.7048,-4.7048,-4.7048,-4.7048,-4.7394,-4.7432,-4.7086,-4.774,-4.7932,-4.7586,-4.7932,-4.8086,-4.8125,-4.8971,-4.9394,-4.9433,-5.0289,-5.0712,-5.0712,-5.0712,-5.0712,-5.0712,-5.0712,-5.0624,-5.0542,-5.0511,-5.0352,-5.0137,-5.01,-4.987,-4.957,-4.9424,-4.9113,-4.8781,-4.8622,-4.8458,-4.8306,-4.8306,-4.8306,-4.8306,-4.8306,-4.8306,-4.8306,-4.8306,-4.8306,-4.8306,-4.8306,-4.8306,-4.8306,-4.8306,-4.8306,-4.8306,-4.8306,-4.8306,-4.8306,-4.8306,-4.8306,-4.8306,-4.8306,-4.8306,-4.8306,-4.8306,-4.8306,-4.8306,-4.8306,-4.8114,-4.7695,-4.6959,-4.6742,-4.6266,-4.545,-4.5203,-4.5069,-4.4988,-4.4831,-4.4665,-4.4615,-4.4615,-4.4615,-4.4615,-4.4615,-4.4615,-4.4615,-4.4615,-4.4615,-3.0731,-3.1698,0.0,0.0,-3.2929,0.0,-3.55,-3.5654,-3.6115,0.0,-4.0469,-4.1316,-4.247,-4.2662,-4.2931,-4.3739,-4.4047,-4.4509,-4.5479,-4.5594,-4.5594,-4.5594,-4.5594,-4.5594,-4.5594,-4.5594,-4.5594,-4.5594,-4.5594,-4.5594,-4.5594,-4.6317,-4.6394,-4.5633,-4.7048,-4.7471,-4.6778,-4.7471,-4.7817,-4.7817,-4.8702,-4.9163,-4.9279,-5.0164,-5.0596,-5.0712,-5.0712,-5.0712,-5.0712,-5.0712,-5.0604,-5.05,-5.05,-5.0221,-4.9844,-4.9817,-4.9584,-4.9256,-4.8936,-4.8781,-4.8693,-4.842,-4.8306,-4.8306,-4.8306,-4.8306,-4.8306,-4.8306,-4.8306,-4.8306,-4.8306,-4.8306,-4.8306,-4.8306,-4.8306,-4.8306,-4.8306,-4.8306,-4.8306,-4.8306,-4.8306,-4.8306,-4.8306,-4.8306,-4.8306,-4.8306,-4.8306,-4.8306,-4.8306,-4.8306,-4.8287,-4.8248,-4.7875,-4.7399,-4.6845,-4.6435,-4.598,-4.5423,-4.5157,-4.5022,-4.5022,-4.472,-4.4615,-4.4615,-4.4615,-4.4615,-4.4615,-4.4615,-4.4615,-4.4615,-4.4615,-4.4615,-3.1506,-3.216,-3.2776,-3.2314,-3.2968,0.0,-3.2814,-3.3045,-3.4007,0.0,-3.6045,-3.6584,-3.9515,-4.0054,-4.0285,-4.1131,-4.2431,-4.3855,-4.5402,-4.5594,-4.5594,-4.5594,-4.5594,-4.5594,-4.5594,-4.5594,-4.5594,-4.5594,-4.5594,-4.5594,-4.5594,-4.5748,-4.5787,-4.5594,-4.5941,-4.6018,-4.5864,-4.6018,-4.6095,-4.6095,-4.6971,-4.774,-4.8394,-4.924,-5.0048,-5.0712,-5.0712,-5.0712,-5.0712,-5.0712,-5.0604,-5.05,-5.05,-5.0363,-5.0188,-4.9897,-4.9584,-4.9256,-4.8936,-4.8604,-4.8401,-4.8325,-4.8306,-4.8306,-4.8306,-4.8306,-4.8306,-4.8306,-4.8306,-4.8306,-4.8306,-4.8306,-4.8306,-4.8306,-4.8306,-4.8306,-4.8306,-4.8306,-4.8306,-4.8306,-4.8306,-4.8306,-4.8306,-4.8306,-4.8306,-4.8306,-4.8306,-4.8306,-4.8306,-4.8306,-4.817,-4.7756,-4.7653,-4.727,-4.6411,-4.6242,-4.598,-4.5423,-4.5157,-4.5022,-4.5022,-4.472,-4.4615,-4.4615,-4.4615,-4.4615,-4.4615,-4.4615,-4.4615,-4.4615,-4.4615,-4.4615,-3.316,-3.3545,-3.4115,-3.3692,0.0,0.0,0.0,-3.3237,-3.3506,-3.5654,-3.5084,-3.4975,-3.7546,-3.8007,-3.843,-3.9708,-4.0977,-4.2239,-4.3547,-4.4786,-4.5594,-4.5594,-4.5594,-4.5594,-4.5594,-4.5594,-4.5594,-4.5594,-4.5594,-4.5594,-4.5594,-4.5594,-4.5594,-4.5594,-4.5594,-4.5594,-4.5594,-4.5594,-4.5594,-4.5594,-4.6471,-4.7115,-4.7548,-4.8817,-4.9625,-5.0087,-5.0519,-5.0712,-5.0712,-5.0712,-5.0504,-5.0256,-5.0256,-5.005,-4.9776,-4.9424,-4.908,-4.8799,-4.8586,-4.8439,-4.8306,-4.8306,-4.8306,-4.8306,-4.8306,-4.8306,-4.8306,-4.8306,-4.8306,-4.8306,-4.8306,-4.8306,-4.8306,-4.8306,-4.8306,-4.8306,-4.8306,-4.8306,-4.8306,-4.8306,-4.8306,-4.8306,-4.8306,-4.8306,-4.8306,-4.8306,-4.8306,-4.8306,-4.8306,-4.8306,-4.8114,-4.7653,-4.7399,-4.6959,-4.6242,-4.5955,-4.5675,-4.5423,-4.5157,-4.5049,-4.5096,-4.4776,-4.4615,-4.4615,-4.4615,-4.4615,-4.4615,-4.4615,-4.4615,-4.4615,-4.4615,-4.4615,-3.5353,-3.5584,-3.6115,-3.5615,0.0,-3.5161,0.0,0.0,0.0,-3.5615,-3.4891,0.0,0.0,0.0,0.0,-3.8053,-3.913,-4.0008,-4.0731,-4.2893,-4.4517,-4.4825,-4.5017,-4.5171,-4.5325,-4.521,-4.5248,-4.5594,-4.5287,-4.5248,-4.5594,-4.5594,-4.5594,-4.5594,-4.5594,-4.5594,-4.5594,-4.5594,-4.5594,-4.5594,-4.6317,-4.674,-4.6962,-4.8471,-4.924,-4.9433,-5.0327,-5.0712,-5.0702,-5.0614,-5.0347,-4.9987,-4.9987,-4.9725,-4.9271,-4.8915,-4.8604,-4.8401,-4.8325,-4.8306,-4.8306,-4.8306,-4.8306,-4.8306,-4.8306,-4.8306,-4.8306,-4.8306,-4.8306,-4.8306,-4.8306,-4.8306,-4.8306,-4.8306,-4.8306,-4.8306,-4.8306,-4.8306,-4.8306,-4.8306,-4.8306,-4.8306,-4.8306,-4.8306,-4.8306,-4.8306,-4.8306,-4.8306,-4.8306,-4.8306,-4.8075,-4.7527,-4.7115,-4.6695,-4.607,-4.5624,-4.5397,-4.5397,-4.5184,-4.5103,-4.5177,-4.4831,-4.4643,-4.4643,-4.4615,-4.4615,-4.4615,-4.4615,-4.4615,-4.4615,-4.4615,-4.4615,0.0,0.0,0.0,0.0,-3.7123,-3.7745,-3.4045,0.0,-3.4846,-3.3583,0.0,0.0,0.0,0.0,0.0,0.0,-3.6084,-3.7154,-3.7269,-3.8854,-4.0585,-4.2047,-4.2893,-4.3662,-4.4393,-4.3816,-4.4008,-4.5479,-4.4201,-4.4008,-4.5518,-4.5594,-4.5594,-4.5594,-4.5594,-4.5594,-4.5594,-4.5594,-4.5594,-4.5594,-4.571,-4.6163,-4.6923,-4.7855,-4.8663,-4.9433,-5.0327,-5.0712,-5.0654,-5.0325,-5.0111,-4.9987,-4.9987,-4.9725,-4.9271,-4.8915,-4.8781,-4.8693,-4.8383,-4.8306,-4.8306,-4.8306,-4.8306,-4.8306,-4.8306,-4.8306,-4.8306,-4.8306,-4.8306,-4.8306,-4.8306,-4.8306,-4.8306,-4.8306,-4.8306,-4.8306,-4.8306,-4.8306,-4.8306,-4.8306,-4.8306,-4.8306,-4.8306,-4.8306,-4.8306,-4.8306,-4.8306,-4.8306,-4.8306,-4.8306,-4.7955,-4.7071,-4.6913,-4.6531,-4.5546,-4.5423,-4.5397,-4.5397,-4.5264,-4.5177,-4.5203,-4.494,-4.4776,-4.4776,-4.4671,-4.4615,-4.4615,-4.4615,-4.4615,-4.4615,-4.4615,-4.4615,0.0,0.0,0.0,-3.7353,-3.7738,-3.793,-3.5622,-3.493,-3.4699,-3.4468,0.0,0.0,0.0,0.0,0.0,0.0,-3.4776,-3.5084,-3.4584,-3.6007,-3.8084,-4.0739,-4.0508,-4.0662,-4.1978,-4.2239,-4.2854,-4.4047,-4.3508,-4.3624,-4.4778,-4.5325,-4.5594,-4.5594,-4.5594,-4.5594,-4.5594,-4.5594,-4.5594,-4.5594,-4.5594,-4.5787,-4.6163,-4.7009,-4.7855,-4.8702,-4.9586,-5.0133,-5.038,-5.0183,-4.9846,-4.9468,-4.9386,-4.9202,-4.8965,-4.8622,-4.8514,-4.8495,-4.8363,-4.8306,-4.8306,-4.8306,-4.8306,-4.8306,-4.8306,-4.8306,-4.8306,-4.8306,-4.8306,-4.8306,-4.8306,-4.8306,-4.8306,-4.8306,-4.8306,-4.8306,-4.8306,-4.8306,-4.8306,-4.8306,-4.8306,-4.8306,-4.8306,-4.8306,-4.8306,-4.8306,-4.8306,-4.8306,-4.8306,-4.8055,-4.7632,-4.6959,-4.6672,-4.6193,-4.5476,-4.5397,-4.5397,-4.5397,-4.5344,-4.5211,-4.4995,-4.494,-4.4831,-4.4699,-4.4643,-4.4615,-4.4615,-4.4615,-4.4615,-4.4615,-4.4615,-4.4615,-3.9354,-3.9662,-3.9969,-3.8392,-3.8161,-3.8007,-3.6654,-3.5776,-3.5353,-3.5731,-3.5199,0.0,0.0,0.0,0.0,0.0,0.0,-3.3821,0.0,-3.3654,0.0,-3.8092,-3.8161,-3.8584,-4.0015,-4.0315,-4.1038,-4.2624,-4.2085,-4.247,-4.4201,-4.4893,-4.5364,-4.5594,-4.5594,-4.5594,-4.5594,-4.5594,-4.5594,-4.5594,-4.5594,-4.5594,-4.5633,-4.6509,-4.7355,-4.8154,-4.8942,-4.9635,-5.0183,-4.9936,-4.9556,-4.9069,-4.8885,-4.8746,-4.8622,-4.8364,-4.8306,-4.8306,-4.8306,-4.8306,-4.8306,-4.8306,-4.8306,-4.8306,-4.8306,-4.8306,-4.8306,-4.8306,-4.8306,-4.8306,-4.8306,-4.8306,-4.8306,-4.8306,-4.8306,-4.8306,-4.8306,-4.8306,-4.8306,-4.8306,-4.8306,-4.8306,-4.8306,-4.8306,-4.8306,-4.8306,-4.8306,-4.8267,-4.8114,-4.7797,-4.7378,-4.6753,-4.6387,-4.598,-4.545,-4.5397,-4.5397,-4.5397,-4.5397,-4.5264,-4.4968,-4.4995,-4.4913,-4.4692,-4.4643,-4.4615,-4.4615,-4.4615,-4.4615,-4.4615,-4.4615,-4.4615,-4.2124,-4.2316,-4.2162,-3.8815,-3.8623,-3.8623,-3.6115,-3.6738,-3.7661,-3.6846,-3.7969,-3.8861,-3.8046,0.0,0.0,0.0,0.0,0.0,0.0,0.0,0.0,0.0,0.0,0.0,-3.9246,-3.7853,-3.8231,-4.1577,-3.9546,-3.9969,-4.4085,-4.4316,-4.4739,-4.5556,-4.5594,-4.5594,-4.5594,-4.5594,-4.5594,-4.5594,-4.5594,-4.5594,-4.5633,-4.6509,-4.7355,-4.8145,-4.8739,-4.948,-5.0159,-4.9498,-4.9182,-4.9052,-4.866,-4.8438,-4.8325,-4.8306,-4.8306,-4.8306,-4.8306,-4.8306,-4.8306,-4.8306,-4.8306,-4.8306,-4.8306,-4.8306,-4.8306,-4.8306,-4.8306,-4.8306,-4.8306,-4.8306,-4.8306,-4.8306,-4.8306,-4.8306,-4.8306,-4.8306,-4.8306,-4.8306,-4.8306,-4.8306,-4.8306,-4.8306,-4.8306,-4.8306,-4.8306,-4.8151,-4.7674,-4.7611,-4.7248,-4.6315,-4.6228,-4.598,-4.545,-4.5397,-4.5397,-4.5397,-4.5397,-4.5397,-4.5371,-4.5157,-4.5022,-4.4995,-4.472,-4.4615,-4.4615,-4.4615,-4.4615,-4.4615,-4.4615,-4.4615,-4.3778,-4.4509,-4.4778,-4.1354,-4.0739,-4.0123,-3.7,-3.7199,-3.7738,-3.6885,-3.8084,-3.9015,-3.8161,0.0,0.0,0.0,0.0,0.0,0.0,0.0,0.0,0.0,0.0,0.0,0.0,-3.6045,-3.7423,-3.9161,-3.9008,-3.9969,-4.2508,-4.3701,-4.4432,-4.4739,-4.5287,-4.5594,-4.5594,-4.5594,-4.5594,-4.5594,-4.5594,-4.5594,-4.5633,-4.6509,-4.7355,-4.8145,-4.8728,-4.9375,-4.991,-4.9394,-4.9019,-4.8748,-4.8587,-4.8419,-4.8306,-4.8306,-4.8306,-4.8306,-4.8306,-4.8306,-4.8306,-4.8306,-4.8306,-4.8306,-4.8306,-4.8306,-4.8306,-4.8306,-4.8306,-4.8306,-4.8306,-4.8306,-4.8306,-4.8306,-4.8306,-4.8306,-4.8306,-4.8306,-4.8306,-4.8306,-4.8306,-4.8306,-4.8306,-4.8306,-4.8306,-4.8306,-4.8306,-4.8114,-4.7653,-4.7335,-4.689,-4.6266,-4.5879,-4.5607,-4.5423,-4.5397,-4.5397,-4.5397,-4.5397,-4.5371,-4.5257,-4.5103,-4.4968,-4.4886,-4.4665,-4.4615,-4.4615,-4.4615,-4.4615,-4.4615,-4.4615,-4.4615,-4.5432,-4.6047,-4.6231,-4.3393,-4.2701,-4.1854,-3.8777,-3.8969,-3.9469,-3.8277,-3.92,-4.0123,-3.9854,-3.8623,0.0,0.0,0.0,0.0,0.0,-2.8621,0.0,0.0,0.0,0.0,0.0,-3.4314,-3.5661,-3.743,-3.7777,-3.8931,-4.1239,-4.2662,-4.3662,-4.4278,-4.4855,-4.5287,-4.5594,-4.5594,-4.5594,-4.5594,-4.5594,-4.5594,-4.5633,-4.6509,-4.7271,-4.8,-4.8556,-4.9137,-4.9622,-4.9246,-4.8905,-4.8605,-4.8532,-4.842,-4.8306,-4.8306,-4.8306,-4.8306,-4.8306,-4.8306,-4.8306,-4.8306,-4.8306,-4.8306,-4.8306,-4.8306,-4.8306,-4.8306,-4.8306,-4.8306,-4.8306,-4.8306,-4.8306,-4.8306,-4.8306,-4.8306,-4.8306,-4.8306,-4.8306,-4.8306,-4.8306,-4.8306,-4.8306,-4.8306,-4.8306,-4.8306,-4.8306,-4.8055,-4.7442,-4.7071,-4.6672,-4.6005,-4.5632,-4.5397,-4.5397,-4.5397,-4.5397,-4.5397,-4.5397,-4.5371,-4.5257,-4.5103,-4.4968,-4.4886,-4.4692,-4.4615,-4.4615,-4.4615,-4.4615,-4.4615,-4.4615,-4.4615]},{"header":{"parameterUnit":"m.s-1","parameterCategory":1,"la1":30.6,"la2":29.2853,"lo1":-89.7004,"lo2":-87.6739,"dy":0.0162,"dx":0.0183,"nx":112,"ny":82,"refTime":"2026-05-03T00:00:00:Z","depth":0,"parameterNumber":3,"parameterNumberName":"V-component_of_WINDS"},"data":[0.0,0.0,0.0,0.0,0.0,0.0,0.0,0.0,0.0,0.0,0.0,0.0,0.0,0.0,0.0,0.0,0.0,0.0,0.0,0.0,0.0,0.0,0.0,0.0,0.0,0.0,0.0,0.0,0.0,0.0,0.0,0.0,0.0,0.0,0.0,0.0,0.0,0.0,0.0,0.0,0.0,0.0,0.0,0.0,0.0,0.0,0.0,0.0,0.0,0.0,0.0,0.0,0.0,0.0,0.0,0.0,0.0,0.0,0.0,0.0,0.0,0.0,0.0,0.0,0.0,0.0,0.0,0.0,0.0,0.0,0.0,0.0,0.0,0.0,0.0,0.0,0.0,0.0,0.0,0.0,0.0,0.0,0.0,0.0,0.0,0.0,0.0,0.0,0.0,0.0,0.9991,1.1233,1.2768,1.394,1.4521,1.4341,1.3918,1.3218,0.0,0.0,0.0,0.0,0.0,0.0,0.0,0.0,0.0,0.0,0.0,0.0,0.0,0.0,0.0,0.0,0.0,0.0,0.0,0.0,0.0,0.0,0.0,0.0,0.0,0.0,0.0,0.0,0.0,0.0,0.0,0.0,0.0,0.0,0.0,0.0,0.0,0.0,0.0,0.0,0.0,0.0,0.0,0.0,0.0,0.0,0.0,0.0,0.0,0.0,0.0,0.0,0.0,0.0,0.0,0.0,0.0,0.0,0.0,0.0,0.0,0.0,0.0,0.0,0.0,0.0,0.0,0.0,0.0,0.0,0.0,0.0,0.0,0.0,0.0,0.0,0.0,0.0,0.0,0.0,0.0,0.0,0.0,0.0,0.0,0.0,0.0,0.0,0.0,0.0,0.0,0.0,0.0,0.0,0.0,0.0,0.0,0.0,0.0,0.0,0.0,0.0,0.0,0.0,1.0176,1.1949,1.3064,1.3721,1.3845,1.4074,1.4009,1.3551,0.0,0.0,0.0,0.0,0.0,0.0,0.0,0.0,0.0,0.0,0.0,0.0,0.0,0.0,0.0,0.0,0.0,0.0,0.0,0.0,0.0,0.0,0.0,0.0,0.0,0.0,0.0,0.0,0.0,0.0,0.0,0.0,0.0,0.0,0.0,0.0,0.0,0.0,0.0,0.0,0.0,0.0,0.0,0.0,0.0,0.0,0.0,0.0,0.0,0.0,0.0,0.0,0.0,0.0,0.0,0.0,0.0,0.0,0.0,0.0,0.0,0.0,0.0,0.0,0.0,0.0,0.0,0.0,0.0,0.0,0.0,0.0,0.0,0.0,0.0,0.0,0.0,0.0,0.0,0.0,0.0,0.0,0.0,0.0,0.0,0.0,0.0,0.0,0.0,0.0,0.0,0.0,0.0,0.0,0.0,0.0,0.0,0.0,0.0,0.0,0.0,0.0,0.0,1.0045,1.0851,1.218,1.2806,1.3329,1.3662,1.3832,1.3837,1.363,1.3487,0.0,0.0,0.0,0.0,0.0,0.0,0.0,0.0,0.0,0.0,0.0,0.0,0.0,0.0,0.0,0.0,0.0,0.0,0.0,0.0,0.0,0.0,0.0,0.0,0.0,0.0,0.0,0.0,0.0,0.0,0.0,0.0,0.0,0.0,0.0,0.0,0.0,0.0,0.0,0.0,0.0,0.0,0.0,0.0,0.0,0.0,0.0,0.0,0.0,0.0,0.0,0.0,0.0,0.0,0.0,0.0,0.0,0.0,0.0,0.0,0.0,0.0,0.0,0.0,0.0,0.0,0.0,0.0,0.0,0.0,0.0,0.0,0.0,0.0,0.0,0.0,0.0,0.0,0.0,0.0,0.0,0.0,0.0,0.0,0.0,0.0,0.0,0.0,0.0,0.0,0.0,0.0,0.0,0.0,0.0,0.0,0.0,0.0,0.0,0.0,0.0,0.0,1.1021,1.1588,1.2324,1.2578,1.3008,1.3758,1.3657,1.3604,1.3723,1.2885,0.0,0.0,0.0,0.0,0.0,0.0,0.0,0.0,0.0,0.0,0.0,0.0,0.0,0.0,0.0,0.0,0.0,0.0,0.0,0.0,0.0,0.0,0.0,0.0,0.0,0.0,0.0,0.0,0.0,0.0,0.0,0.0,0.0,0.0,0.0,0.0,0.0,0.0,0.0,0.0,0.0,0.0,0.0,0.0,0.0,0.0,0.0,0.0,0.0,0.0,0.0,0.0,0.0,0.0,0.0,0.0,0.0,0.0,0.0,0.0,0.0,0.0,0.0,0.0,0.0,0.0,0.0,0.0,0.0,0.0,0.0,0.0,0.0,0.0,0.0,0.0,0.0,0.0,0.0,0.0,0.0,0.0,0.0,0.0,0.0,0.0,0.0,0.0,0.0,0.0,0.0,0.0,0.0,0.0,0.0,0.0,0.0,0.0,0.0,0.0,0.0,0.0,1.12,1.2071,1.2614,1.2699,1.3096,1.4062,1.3588,1.346,1.4021,1.226,0.0,0.0,0.0,0.0,0.0,0.0,0.0,0.0,0.0,0.0,0.0,0.0,0.0,0.0,0.0,0.0,0.0,0.0,0.0,0.0,0.0,0.0,0.0,0.0,0.0,0.0,0.0,0.0,0.0,0.0,0.0,0.0,0.0,0.0,0.0,0.0,0.0,0.0,0.0,0.0,0.0,0.0,0.0,0.0,0.0,0.0,0.0,0.0,0.0,0.0,0.0,0.0,0.0,0.0,0.0,0.0,0.0,0.0,0.0,0.0,0.0,0.0,0.0,0.0,0.0,0.0,0.0,0.0,0.0,0.0,0.0,0.0,0.0,0.0,0.0,0.0,0.0,0.0,0.0,0.0,0.0,0.0,0.0,0.0,0.0,0.0,0.0,0.0,0.0,0.0,0.0,0.0,0.0,0.0,0.0,0.0,0.0,0.0,0.0,0.0,0.0,0.0,1.1176,1.1898,0.0,1.2699,1.2866,1.328,1.3447,1.334,1.2937,0.0,0.0,0.0,0.0,0.0,0.0,0.0,0.0,0.0,0.0,0.0,0.0,0.0,0.0,0.0,0.0,0.0,0.0,0.0,0.0,0.0,0.0,0.0,0.0,0.0,0.0,0.0,0.0,0.0,0.0,0.0,0.0,0.0,0.0,0.0,0.0,0.0,0.0,0.0,0.0,0.0,0.0,0.0,0.0,0.0,0.0,0.0,0.0,0.0,0.0,0.0,0.0,0.0,0.0,0.0,0.0,0.0,0.0,0.0,0.0,0.0,0.0,0.0,0.0,0.0,0.0,0.0,0.0,0.0,0.0,0.0,0.0,0.0,0.0,0.0,0.0,0.0,0.0,0.0,0.0,0.0,0.0,0.0,0.0,0.0,0.0,0.0,0.0,0.0,0.0,0.0,0.0,0.0,0.0,0.0,0.0,0.0,0.0,0.0,0.0,0.0,0.0,1.0207,1.1111,1.1886,0.0,1.2699,1.2769,1.2932,1.3066,1.2903,1.2395,0.0,0.0,0.0,0.0,0.0,0.0,0.0,0.0,0.0,0.0,0.0,0.0,0.0,0.0,0.0,0.0,0.0,0.0,0.0,0.0,0.0,0.0,0.0,0.0,0.0,0.0,0.0,0.0,0.0,0.0,0.0,0.0,0.0,0.0,0.0,0.0,0.0,0.0,0.0,0.0,0.0,0.0,0.0,0.0,0.0,0.0,0.0,0.0,0.0,0.0,0.0,0.0,0.0,0.0,0.0,0.0,0.0,0.0,0.0,0.0,0.0,0.0,0.0,0.0,0.0,0.0,0.0,0.0,0.0,0.0,0.0,0.0,0.0,0.0,0.0,0.0,0.0,0.0,0.0,0.0,0.0,0.0,0.0,0.0,0.0,0.0,0.0,0.0,0.0,0.0,0.0,0.0,0.0,0.0,0.0,0.0,0.0,0.0,0.0,0.0,0.0,0.0,0.9554,1.0997,1.2119,1.265,1.2699,1.2843,1.3259,1.2428,1.2136,0.0,0.0,0.0,0.0,0.0,0.0,0.0,0.0,0.0,0.0,0.0,0.0,0.0,0.0,0.0,0.0,0.0,0.0,0.0,0.0,0.0,0.0,0.0,0.0,0.0,0.0,0.0,0.0,0.0,0.0,0.0,0.0,0.0,0.0,0.0,0.0,0.0,0.0,0.0,0.0,0.0,0.0,0.0,0.0,0.0,0.0,0.0,0.0,0.0,0.0,0.0,0.0,0.0,0.0,0.0,0.0,0.0,0.0,0.0,0.0,0.0,0.0,0.0,0.0,0.0,0.0,0.0,0.0,0.0,0.0,0.0,0.0,0.0,0.0,0.0,0.0,0.0,0.0,0.0,0.0,0.0,0.0,0.0,0.0,0.0,0.0,0.0,0.0,0.0,0.0,0.0,0.0,0.0,0.0,0.0,0.0,0.0,0.0,0.0,0.0,0.0,0.0,0.0,0.982,1.1113,1.2119,1.265,1.2699,1.2602,1.2314,1.226,1.1982,1.1409,0.0,0.0,0.0,0.0,0.0,0.0,0.0,0.0,0.0,0.0,0.0,0.0,0.0,0.0,0.0,0.0,0.0,0.0,0.0,0.0,0.0,0.0,0.0,0.0,0.0,0.0,0.0,0.0,0.0,0.0,0.0,0.0,0.0,0.0,0.0,0.0,0.0,0.0,0.0,0.0,0.0,0.0,0.0,0.0,0.0,0.0,0.0,0.0,0.0,0.0,0.0,0.0,0.0,0.0,0.0,0.0,0.0,0.0,0.0,0.0,0.0,0.0,0.0,0.0,0.0,0.0,0.0,0.0,0.0,0.0,0.0,0.0,0.0,0.0,0.0,0.0,0.0,0.0,0.0,0.0,0.0,0.0,0.0,0.0,0.0,0.0,0.0,0.0,0.0,0.0,0.0,0.0,0.0,0.0,0.0,0.0,0.0,0.0,0.0,0.0,0.0,0.0,0.9501,1.0964,1.2119,1.265,1.2699,1.253,1.2119,1.2048,1.1646,1.0776,0.0,0.0,0.0,0.0,0.0,0.0,0.0,0.0,0.0,0.0,0.0,0.0,0.0,0.0,0.0,0.0,0.0,0.0,0.0,0.0,0.0,0.0,0.0,0.0,0.0,0.0,0.0,0.0,0.0,0.0,0.0,0.0,0.0,0.0,0.0,0.0,0.0,0.0,0.0,0.0,0.0,0.0,0.0,0.0,0.0,0.0,0.0,0.0,0.0,0.0,0.0,0.0,0.0,0.0,0.0,0.0,0.0,0.0,0.0,0.0,0.0,0.0,0.0,0.0,0.0,0.0,0.0,0.0,0.0,0.0,0.0,0.0,0.0,0.0,0.0,0.0,0.0,0.0,0.0,0.0,0.0,0.0,0.0,0.0,0.0,0.0,0.0,0.0,0.0,0.0,0.0,0.0,0.0,0.0,0.0,0.0,0.0,0.0,0.0,0.0,0.0,0.0,0.8869,1.0679,1.2119,1.265,1.2699,1.2602,1.2337,1.179,1.1267,1.0669,0.0,0.0,0.0,0.0,0.0,0.0,0.0,0.0,0.0,0.0,0.0,0.0,0.0,0.0,0.0,0.0,0.0,0.0,0.0,0.0,0.0,0.0,0.0,0.0,0.0,0.0,0.0,0.0,0.0,0.0,0.0,0.0,0.0,0.0,0.0,0.0,0.0,0.0,0.0,0.0,0.0,0.0,0.0,0.0,0.0,0.0,0.0,0.0,0.0,0.0,0.0,0.0,0.0,0.0,0.0,0.0,0.0,0.0,0.0,0.0,0.5698,0.5493,0.0,0.0,0.0,0.0,0.0,0.0,0.0,0.0,0.0,0.0,0.0,0.0,0.0,0.0,0.0,0.0,0.0,0.0,0.0,0.0,0.0,0.0,0.0,0.0,0.0,0.0,0.0,0.0,0.0,0.0,0.0,0.0,0.0,0.0,0.0,0.0,0.0,0.0,0.0,0.0,0.8889,1.0679,1.2119,1.265,1.2699,1.2602,1.2337,1.179,1.1315,1.093,0.9865,0.0,0.0,0.0,0.0,0.0,0.0,0.0,0.0,0.0,0.0,0.0,0.0,0.0,0.0,0.0,0.0,0.0,0.0,0.0,0.0,0.0,0.0,0.0,0.0,0.0,0.0,0.0,0.0,0.0,0.0,0.0,0.0,0.0,0.0,0.0,0.0,0.0,0.0,0.0,0.0,0.0,0.0,0.0,0.0,0.0,0.0,0.0,0.0,0.0,0.0,0.0,0.0,0.0,0.0,0.0,0.0,0.0,0.0,0.0,0.6417,0.6078,0.0,0.0,0.0,0.0,0.0,0.0,0.0,0.0,0.0,0.0,0.0,0.0,0.0,0.0,0.0,0.0,0.0,0.0,0.0,0.0,0.0,0.0,0.0,0.0,0.0,0.0,0.0,0.0,0.0,0.0,0.0,0.0,0.0,0.0,0.0,0.0,0.0,0.0,0.0,0.0,0.8233,1.0145,1.1592,1.1969,1.2443,1.265,1.2506,1.2023,1.1508,1.108,1.0128,0.0,0.0,0.0,0.0,0.0,0.0,0.0,0.0,0.0,0.0,0.0,0.0,0.0,0.0,0.0,0.0,0.0,0.0,0.0,0.0,0.0,0.0,0.0,0.0,0.0,0.0,0.0,0.0,0.0,0.0,0.0,0.0,0.0,0.0,0.0,0.0,0.0,0.0,0.0,0.0,0.0,0.0,0.0,0.0,0.0,0.0,0.0,0.0,0.0,0.0,0.0,0.0,0.0,0.7321,0.7522,0.7719,0.774,0.7753,0.7726,0.7258,0.6959,0.6797,0.6525,0.0,0.0,0.0,0.0,0.0,0.0,0.0,0.0,0.0,0.0,0.0,0.0,0.0,0.0,0.0,0.0,0.0,0.0,0.0,0.0,0.0,0.0,0.7397,0.8165,0.7959,0.7187,0.5714,0.0,0.0,0.0,0.0,0.0,0.0,0.0,0.0,0.0,0.0,0.0,0.7575,0.9423,1.0805,1.1252,1.1972,1.2528,1.2699,1.2228,1.167,1.1214,1.0476,0.9636,0.0,0.0,0.0,0.0,0.0,0.0,0.0,0.0,0.0,0.0,0.0,0.0,0.0,0.0,0.0,0.0,0.0,0.0,0.0,0.0,0.0,0.0,0.0,0.0,0.0,0.0,0.0,0.0,0.0,0.0,0.0,0.0,0.5022,0.5063,0.0,0.0,0.0,0.0,0.0,0.0,0.0,0.0,0.0,0.0,0.0,0.0,0.0,0.7085,0.7421,0.7848,0.795,0.7726,0.8255,0.8391,0.8238,0.8309,0.8364,0.837,0.8425,0.0,0.7272,0.7095,0.0,0.0,0.0,0.0,0.0,0.0,0.0,0.0,0.0,0.0,0.0,0.0,0.0,0.0,0.0,0.0,0.0,0.0,0.0,0.0,0.0,0.0,0.713,0.7259,0.7222,0.7032,0.6573,0.6112,0.5671,0.5344,0.5067,0.485,0.0,0.0,0.0,0.0,0.0,0.0,0.7791,0.8937,1.0077,1.1166,1.1413,1.18,1.2613,1.2228,1.1754,1.1453,1.0683,1.0213,1.0124,0.9425,0.0,0.0,0.0,0.0,0.0,0.0,0.0,0.0,0.0,0.0,0.0,0.0,0.0,0.0,0.0,0.0,0.0,0.0,0.0,0.0,0.0,0.0,0.0,0.0,0.0,0.0,0.0,0.0,0.0,0.4798,0.5044,0.4193,0.4272,0.4144,0.0,0.0,0.0,0.0,0.0,0.0,0.0,0.0,0.0,0.656,0.7257,0.7753,0.7977,0.8248,0.8364,0.8316,0.8581,0.8689,0.8648,0.871,0.8737,0.8743,0.8811,0.8567,0.8106,0.7868,0.755,0.7183,0.0,0.0,0.0,0.0,0.7003,0.6989,0.7392,0.7339,0.7119,0.7197,0.0,0.0,0.0,0.0,0.0,0.0,0.0,0.6559,0.679,0.7061,0.7312,0.7475,0.7455,0.7387,0.7333,0.6919,0.639,0.584,0.5766,0.5637,0.518,0.5173,0.0,0.0,0.0,0.6759,0.716,0.8245,0.9354,1.0399,1.0971,1.1671,1.2613,1.2485,1.2156,1.1769,1.1366,1.0962,1.053,0.995,0.9359,0.0,0.0,0.0,0.0,0.0,0.0,0.0,0.0,0.0,0.0,0.0,0.0,0.0,0.0,0.0,0.0,0.0,0.0,0.0,0.0,0.0,0.0,0.0,0.0,0.0,0.0,0.0,0.0,0.5015,0.5207,0.3556,0.4278,0.4517,0.0,0.0,0.0,0.0,0.0,0.0,0.4328,0.4967,0.5727,0.6543,0.7353,0.8027,0.8545,0.8682,0.8804,0.8879,0.892,0.8981,0.9049,0.9049,0.9049,0.9055,0.904,0.9001,0.8798,0.8465,0.8106,0.776,0.7604,0.7475,0.7355,0.7624,0.7638,0.7611,0.8099,0.8167,0.7975,0.7916,0.778,0.7522,0.6859,0.0,0.0,0.0,0.0,0.6939,0.7193,0.7394,0.755,0.7807,0.7787,0.7733,0.7794,0.755,0.7071,0.6404,0.6396,0.6334,0.5774,0.5747,0.0,0.5813,0.617,0.6504,0.6805,0.7885,0.8973,0.9966,1.0928,1.1843,1.2796,1.2742,1.2497,1.2098,1.1878,1.1497,1.0861,1.0454,0.9924,0.9276,0.0,0.0,0.0,0.0,0.0,0.0,0.0,0.0,0.0,0.0,0.0,0.0,0.0,0.0,0.0,0.0,0.0,0.0,0.0,0.0,0.0,0.0,0.0,0.0,0.0,0.0,0.0,0.0,0.0,0.3714,0.4895,0.0,0.0,0.0,0.0,0.3105,0.3216,0.3263,0.3106,0.3271,0.4376,0.6637,0.6991,0.7788,0.9166,0.9401,0.9483,0.9347,0.9496,0.949,0.9361,0.9361,0.9361,0.9367,0.951,0.9408,0.9152,0.8655,0.8377,0.8221,0.8065,0.7948,0.7948,0.7961,0.7961,0.7982,0.8208,0.8167,0.8056,0.852,0.8269,0.7767,0.759,0.7231,0.0,0.0,0.7217,0.7407,0.7699,0.778,0.7828,0.7941,0.7975,0.7928,0.7841,0.7794,0.7638,0.7132,0.6756,0.6497,0.6463,0.0,0.6313,0.645,0.6573,0.6819,0.7232,0.8214,0.9323,1.0463,1.1413,1.2357,1.3264,1.2896,1.259,1.2565,1.2031,1.1646,1.1543,1.0971,1.0529,1.0249,0.9114,0.0,0.0,0.0,0.0,0.0,0.0,0.0,0.0,0.0,0.0,0.0,0.0,0.0,0.0,0.0,0.0,0.0,0.0,0.0,0.0,0.0,0.0,0.0,0.0,0.0,0.0,0.0,0.0,0.4608,0.5536,0.0,0.3792,0.4338,0.4348,0.3237,0.3788,0.4243,0.4351,0.4432,0.4905,0.5848,0.6781,0.7514,0.802,0.8994,0.9435,0.9381,0.9435,0.9435,0.9381,0.9381,0.9381,0.9388,0.9442,0.9401,0.9286,0.913,0.892,0.8696,0.8588,0.8561,0.8561,0.8561,0.8561,0.8575,0.8682,0.8662,0.8575,0.8689,0.8438,0.8099,0.8045,0.7848,0.7604,0.7658,0.7712,0.7828,0.788,0.7907,0.7921,0.7975,0.7988,0.7975,0.7921,0.7882,0.774,0.7482,0.7231,0.7003,0.6668,0.6661,0.6675,0.6627,0.6749,0.6991,0.736,0.7775,0.842,0.9584,1.0539,1.1499,1.24,1.2841,1.293,1.2617,1.2466,1.2149,1.1641,1.1304,1.0949,1.0504,0.9708,0.9017,0.0,0.0,0.0,0.0,0.0,0.0,0.0,0.0,0.0,0.0,0.0,0.0,0.0,0.0,0.0,0.0,0.0,0.0,0.0,0.0,0.0,0.0,0.0,0.0,0.0,0.0,0.6487,0.451,0.5683,0.5728,0.35,0.4239,0.4442,0.3362,0.3915,0.4223,0.399,0.4061,0.4515,0.5426,0.5981,0.6857,0.8154,0.8614,0.9111,0.953,0.953,0.953,0.953,0.953,0.953,0.953,0.953,0.9503,0.9456,0.9456,0.9313,0.9089,0.9089,0.9089,0.9083,0.9028,0.9008,0.9008,0.8898,0.8885,0.8865,0.8818,0.8621,0.8418,0.8418,0.8309,0.8187,0.8187,0.8153,0.8119,0.8119,0.8029,0.7988,0.7988,0.7988,0.7988,0.7988,0.7914,0.7841,0.7699,0.7509,0.7258,0.6912,0.6889,0.6923,0.6865,0.6896,0.7121,0.7577,0.79,0.8412,0.9323,1.0289,1.1241,1.2143,1.2593,1.2796,1.2777,1.2618,1.2278,1.1712,1.1421,1.1102,1.0747,1.0064,0.9392,0.8804,0.0,0.0,0.0,0.0,0.0,0.0,0.0,0.0,0.0,0.0,0.0,0.0,0.0,0.0,0.0,0.0,0.0,0.0,0.0,0.0,0.0,0.0,0.0,0.5196,0.6637,0.6607,0.3585,0.5236,0.5765,0.3448,0.4348,0.4589,0.3447,0.3495,0.3045,0.1842,0.187,0.3004,0.5463,0.4538,0.5774,0.9499,0.8473,0.8593,0.9822,0.9822,0.9822,0.9822,0.9822,0.9822,0.9822,0.9822,0.9741,0.9618,0.9618,0.953,0.9395,0.9388,0.9381,0.9361,0.9268,0.9214,0.9187,0.8994,0.8885,0.8885,0.8885,0.8838,0.8716,0.8716,0.8608,0.8486,0.8486,0.8384,0.8327,0.8327,0.816,0.7995,0.7988,0.7988,0.7988,0.7988,0.7988,0.7941,0.7841,0.7584,0.7378,0.7177,0.7098,0.7098,0.7143,0.7143,0.0,0.7856,0.8632,0.9366,0.9811,1.0722,1.1628,1.2571,1.2134,1.2194,1.3134,1.2371,1.1899,1.1899,1.1316,1.1009,1.0995,1.0154,0.9419,0.8831,0.0,0.0,0.0,0.0,0.0,0.0,0.0,0.0,0.0,0.0,0.0,0.0,0.0,0.0,0.0,0.0,0.0,0.0,0.0,0.0,0.0,0.6749,0.7141,0.6911,0.6798,0.6509,0.5926,0.5817,0.5158,0.3648,0.3789,0.3508,0.2325,0.2312,0.2223,0.1873,0.1902,0.2635,0.4303,0.5033,0.635,0.8357,0.9006,0.9451,0.9822,0.9822,0.9822,0.9822,0.9822,0.9822,0.9822,0.9822,0.9795,0.9761,0.9761,0.9741,0.968,0.9462,0.9381,0.9374,0.9334,0.9303,0.9207,0.9166,0.9028,0.8885,0.8885,0.8858,0.8817,0.8817,0.8771,0.8648,0.8648,0.854,0.8397,0.8347,0.8241,0.818,0.8015,0.7988,0.7988,0.7988,0.7988,0.7997,0.8091,0.8041,0.79,0.7573,0.744,0.7459,0.7628,0.768,0.7804,0.8069,0.8324,0.8596,0.8911,0.9777,1.0679,1.1628,1.1764,1.2194,1.3134,1.2371,1.1899,1.1899,1.1503,1.1209,1.0995,1.0586,1.0064,0.0,0.0,0.0,0.0,0.0,0.0,0.0,0.0,0.0,0.0,0.0,0.0,0.0,0.0,0.0,0.0,0.0,0.0,0.0,0.0,0.0,0.0,0.7366,0.7848,0.8038,0.7184,0.6474,0.6187,0.5253,0.4148,0.2941,0.2856,0.2593,0.1916,0.1888,0.1904,0.1904,0.1933,0.28,0.4676,0.4957,0.6202,0.8653,0.8897,0.9268,0.9822,0.9822,0.9822,0.9822,0.9822,0.9822,0.9822,0.9822,0.9822,0.9822,0.9822,0.9822,0.9802,0.0,0.0,0.0,0.0,0.9381,0.9303,0.9303,0.915,0.9028,0.9028,0.8988,0.8885,0.8885,0.8824,0.8804,0.8804,0.8696,0.856,0.8479,0.8364,0.8248,0.816,0.8035,0.7988,0.7988,0.8088,0.8209,0.8273,0.8348,0.0,0.8144,0.7929,0.7804,0.7863,0.79,0.7988,0.8157,0.8201,0.8288,0.8568,0.9043,0.9907,1.1198,1.1258,0.0,0.0,0.0,1.1846,1.169,1.1482,0.0,0.0,0.0,0.0,0.0,1.0203,0.0,0.0,0.9272,0.9379,0.0,0.0,0.0,0.0,0.0,0.0,0.0,0.0,0.0,0.0,0.0,0.0,0.0,0.0,0.0,0.0,0.7909,0.8204,0.8655,0.769,0.6497,0.5301,0.4107,0.2993,0.1895,0.179,0.1862,0.1889,0.2038,0.2117,0.2117,0.2328,0.0,0.0,0.0,0.6084,0.9788,0.8677,0.8744,0.9869,0.9869,0.9869,0.9869,0.9856,0.9849,0.9842,0.9829,0.9822,0.9822,0.9822,0.9822,0.9822,0.9822,0.9822,0.9802,0.968,0.9537,0.9408,0.9408,0.0,0.0,0.9234,0.9083,0.8905,0.8905,0.8898,0.8885,0.8885,0.8838,0.873,0.8716,0.8506,0.834,0.8327,0.8153,0.8038,0.8038,0.8237,0.8428,0.8485,0.8566,0.8708,0.8769,0.8452,0.8095,0.8011,0.7988,0.8032,0.8201,0.8245,0.834,0.8568,0.87,0.0,1.1154,1.0833,1.129,1.3094,1.2398,1.1784,1.1455,1.1503,1.1469,1.1442,1.1442,1.1429,1.1389,1.1389,1.1316,1.1076,1.0261,1.0301,0.0,0.0,0.0,0.0,0.0,0.0,0.0,0.0,0.0,0.0,0.0,0.0,0.0,0.0,0.0,0.7847,0.8309,0.8615,0.8696,0.7768,0.6614,0.5503,0.3447,0.2063,0.1839,0.1825,0.1857,0.1922,0.2919,0.3493,0.3493,0.4542,0.59,0.749,0.7245,0.8027,0.9943,0.9689,0.9817,1.0195,1.0195,0.0,1.0188,1.0059,0.9943,0.9936,0.9876,0.9822,0.9822,0.9822,0.9822,0.9822,0.9822,0.9822,0.9815,0.9788,0.9686,0.9564,0.9564,0.9462,0.934,0.934,0.9232,0.9166,0.9166,0.9028,0.0,0.8885,0.8865,0.8811,0.8743,0.8574,0.8411,0.8347,0.8298,0.8336,0.8336,0.8528,0.8775,0.8981,0.9057,0.9127,0.9236,0.8807,0.8456,0.846,0.848,0.848,0.8516,0.8524,0.8524,0.8612,0.9218,1.0115,1.1198,1.1423,1.1994,1.3134,1.2585,1.2091,1.1797,1.2011,1.2024,1.1819,1.1784,1.1663,1.1389,1.1389,1.1516,1.1725,1.1276,1.1149,0.0,0.0,0.0,0.0,0.0,0.0,0.0,0.0,0.0,0.0,0.0,0.6709,0.7082,0.0,0.8031,0.833,0.8628,0.8825,0.8825,0.7834,0.6669,0.5535,0.3822,0.2487,0.1883,0.1853,0.2178,0.2863,0.3493,0.4183,0.4855,0.5529,0.653,0.7948,0.7264,0.7567,0.9016,0.8322,0.8413,0.9182,0.9182,0.957,1.0276,1.0202,1.0168,1.0161,1.0086,1.0053,1.0046,0.9964,0.989,0.9822,0.9822,0.9822,0.9822,0.9822,0.9774,0.9713,0.9713,0.9618,0.9496,0.9496,0.9395,0.9309,0.9234,0.9103,0.9028,0.8905,0.8885,0.8865,0.8845,0.871,0.8613,0.8626,0.8568,0.8578,0.8599,0.8825,0.9031,0.9187,0.9335,0.942,0.9388,0.909,0.8764,0.8723,0.8625,0.8612,0.8612,0.8612,0.8612,0.8612,0.9384,1.0289,1.1241,1.2052,1.262,1.2986,1.2559,1.2238,1.2091,1.2225,1.2238,1.2091,1.2091,1.2011,1.1864,1.2011,1.2194,1.2342,1.2318,1.2238,0.0,0.0,0.0,0.0,0.0,0.0,0.0,0.0,0.62,0.6675,0.6973,0.7227,0.7692,0.8092,0.8445,0.871,0.8804,0.8885,0.8885,0.8048,0.7025,0.5886,0.4481,0.3262,0.2336,0.2294,0.2737,0.3812,0.4364,0.5161,0.6202,0.6526,0.7131,0.8035,0.693,0.6927,0.8124,0.7034,0.7172,0.8612,0.8612,0.9196,1.0365,1.0337,1.0324,1.0317,1.029,1.0283,1.027,1.0051,0.9916,0.9863,0.9836,0.9822,0.9822,0.9822,0.9822,0.9822,0.9822,0.9747,0.9652,0.9652,0.9551,0.9395,0.9303,0.9234,0.918,0.8981,0.8885,0.8885,0.8885,0.8825,0.8843,0.8931,0.8916,0.8889,0.8907,0.9103,0.9286,0.9286,0.9434,0.9583,0.9477,0.9259,0.9072,0.8852,0.8674,0.8612,0.8612,0.8612,0.8656,0.8823,0.9646,1.0616,1.1647,1.2691,1.316,1.2891,1.2596,1.2385,1.2385,1.2331,1.2305,1.2305,1.2305,1.2331,1.2385,1.2663,1.2811,1.2878,1.3146,1.316,0.619,0.6071,0.6064,0.6308,0.632,0.647,0.0,0.0,0.7112,0.7698,0.784,0.7961,0.8323,0.8533,0.8716,0.8831,0.8871,0.8885,0.8885,0.8774,0.8258,0.7136,0.5049,0.364,0.3536,0.3625,0.3745,0.3873,0.608,0.749,0.7673,0.8891,0.9026,0.7973,0.7891,0.8001,0.8383,0.8188,0.8896,1.0406,1.0406,1.0472,1.0663,1.0527,1.0466,1.046,1.0337,1.0283,1.027,1.0051,1.0039,1.0074,0.9876,0.9822,0.9822,0.9822,0.9822,0.9822,0.9822,0.9808,0.9795,0.9795,0.97,0.9557,0.9401,0.9316,0.918,0.8981,0.8885,0.8885,0.8885,0.9043,0.9133,0.9173,0.9302,0.9427,0.9404,0.9488,0.9575,0.9575,0.9583,0.9575,0.96,0.9445,0.9257,0.8869,0.8674,0.8612,0.8612,0.8612,0.8911,0.9689,1.0593,1.1753,1.3213,1.3464,1.3427,1.3173,1.2904,1.273,1.273,1.2438,1.2305,1.2305,1.2305,1.2438,1.273,1.277,1.2931,1.316,1.3413,1.3533,0.6749,0.6668,0.6627,0.0,0.7021,0.7197,0.7807,0.7752,0.7739,0.8208,0.8438,0.8521,0.8608,0.8811,0.896,0.0,0.8885,0.8885,0.8885,0.9008,0.8825,0.8239,0.6814,0.5596,0.4938,0.4219,0.4143,0.4974,0.5406,0.5921,0.6717,0.7324,0.7408,0.6896,0.6937,0.7075,0.7242,0.7242,0.7995,0.9443,0.9443,0.9915,1.0717,1.0656,1.0622,1.0622,1.0561,1.0487,1.0399,1.0337,1.0209,1.0046,0.9978,0.9835,0.9822,0.9822,0.9822,0.9822,0.9822,0.9822,0.9822,0.9822,0.9781,0.9707,0.9557,0.9408,0.9252,0.9103,0.9001,0.894,0.9161,0.9277,0.9363,0.9585,0.9655,0.9662,0.9705,0.9654,0.9575,0.9575,0.9575,0.9575,0.9575,0.9478,0.9314,0.9015,0.8828,0.8682,0.862,0.8612,0.913,1.0549,1.1542,1.262,1.3783,1.3706,1.3547,1.3427,1.3013,1.2784,1.2784,1.2502,1.2305,1.2305,1.2305,1.2452,1.2784,1.2971,1.3173,1.3427,1.3761,1.3908,0.6957,0.0,0.0,0.7407,0.7604,0.7807,0.8096,0.8143,0.8248,0.8547,0.875,0.8797,0.8784,0.8981,0.911,0.8905,0.8974,0.8994,0.8994,0.9055,0.9069,0.9008,0.8294,0.7395,0.6273,0.5025,0.4539,0.528,0.4794,0.4888,0.5839,0.593,0.6077,0.6169,0.6263,0.6502,0.7031,0.7031,0.7769,0.9178,0.9178,0.9709,1.0717,1.0717,1.0717,1.0717,1.0717,1.0656,1.0555,1.0507,1.0365,1.0098,1.0017,0.9916,0.9876,0.9836,0.9822,0.9822,0.9822,0.9822,0.9822,0.9822,0.9822,0.9795,0.9652,0.9503,0.9347,0.9255,0.9049,0.8995,0.9327,0.9437,0.9622,0.9985,0.999,0.9923,0.9946,0.9819,0.9689,0.9583,0.9575,0.9575,0.9575,0.9518,0.9372,0.9194,0.9015,0.882,0.8637,0.9043,0.9864,1.1154,1.2357,1.3349,1.4039,1.3895,1.372,1.372,1.328,1.3038,1.3038,1.2705,1.2559,1.2559,1.2465,1.2612,1.3038,1.3133,1.34,1.3733,1.3988,1.4082,0.0,0.0,0.7193,0.7685,0.7916,0.8089,0.8587,0.8574,0.8554,0.8804,0.8811,0.8764,0.8851,0.9055,0.911,0.8905,0.9055,0.92,0.92,0.9028,0.8994,0.9187,0.8972,0.8444,0.0,0.6314,0.5203,0.4055,0.51,0.5875,0.5902,0.6117,0.6206,0.6169,0.632,0.7098,0.8507,0.8507,0.9244,1.0651,1.0651,1.0651,1.0717,1.0717,1.0717,1.0717,1.0717,1.0717,1.0704,1.0555,1.0487,1.0446,1.0161,0.9984,0.9963,0.9876,0.9822,0.9822,0.9822,0.9822,0.9822,0.9822,0.9822,0.9795,0.9652,0.9503,0.9347,0.9255,0.9049,0.8995,0.9327,0.9596,0.9871,1.0194,1.0341,1.0326,1.0245,1.0006,0.9827,0.9657,0.9575,0.9575,0.9575,0.9575,0.9559,0.942,0.9202,0.8958,0.8653,1.0125,1.1241,1.1284,1.2966,1.4082,1.4082,1.4082,1.4068,1.4068,1.3746,1.3573,1.3573,1.3333,1.3186,1.3186,1.2918,1.3065,1.3573,1.3307,1.3507,1.4068,1.4082,1.4082,0.7231,0.0,0.7692,0.814,0.837,0.8554,0.875,0.8825,0.8811,0.8865,0.8818,0.8723,0.8777,0.8825,0.8845,0.8798,0.8994,0.9173,0.9022,0.9225,0.9293,0.9042,0.8458,0.0,0.0,0.0,0.0,0.3996,0.3519,0.3697,0.4715,0.4811,0.5332,0.632,0.7351,0.8107,0.8573,0.951,1.0246,1.0717,1.0717,1.0717,1.0717,1.0717,1.0717,1.0717,1.0717,1.0717,1.0717,1.0663,1.0582,1.048,1.0385,1.0222,0.9977,0.993,0.9849,0.9822,0.9822,0.9822,0.9822,0.9822,0.9822,0.9815,0.9768,0.9646,0.9503,0.9347,0.9369,0.9391,0.9625,0.9871,1.0202,1.0476,1.0504,1.0387,1.0253,1.0014,0.9835,0.9665,0.9575,0.9575,0.9575,0.9575,0.9527,0.9226,0.9031,0.8828,0.8645,1.0159,1.1284,1.1284,1.2966,1.4082,1.4082,1.4082,1.4082,1.4082,1.3801,1.36,1.36,1.332,1.3213,1.3213,1.3106,1.3253,1.36,1.3507,1.3653,1.4082,1.4082,1.4082,0.757,0.778,0.8004,0.8452,0.8635,0.875,0.8851,0.8885,0.8865,0.8811,0.8737,0.8615,0.856,0.8554,0.8567,0.8621,0.8879,0.9083,0.9096,0.93,0.9381,0.9198,0.8558,0.7657,0.0,0.0,0.0,0.3367,0.2921,0.3171,0.4176,0.472,0.5631,0.7165,0.8102,0.8839,0.9377,1.0246,1.0717,1.0717,1.0717,1.0717,1.0717,1.0717,1.0717,1.0717,1.0717,1.0717,1.0717,1.0717,1.0663,1.0568,1.0514,1.0378,1.0132,1.0024,0.9923,0.9897,0.9842,0.9822,0.9822,0.9822,0.9822,0.9822,0.9822,0.972,0.9578,0.9422,0.9495,0.9624,0.975,1.0036,1.0366,1.0641,1.0607,1.0477,1.0298,1.0111,0.9933,0.9754,0.9673,0.9575,0.9575,0.9575,0.9527,0.9234,0.9039,0.8927,0.9033,1.0376,1.1413,1.1757,1.3179,1.4082,1.4082,1.4082,1.4082,1.4082,1.3908,1.376,1.376,1.3627,1.352,1.352,1.3387,1.3507,1.376,1.3653,1.376,1.4082,1.4082,1.4082,0.7753,0.795,0.813,0.8615,0.8723,0.8757,0.8851,0.8871,0.8817,0.873,0.8554,0.8384,0.0,0.0,0.8296,0.8438,0.8737,0.9049,0.9327,0.9316,0.9337,0.0,0.0,0.0,0.0,0.0,0.0,0.2413,0.3467,0.4305,0.4435,0.5736,0.7201,0.864,0.8701,0.9371,1.0717,1.0717,1.0717,1.0717,1.0717,1.0717,1.0717,1.0717,1.0717,1.0717,1.0717,1.0717,1.0717,1.0717,1.0717,1.0704,1.0561,1.05,1.046,1.0168,0.9997,0.9963,0.9876,0.9822,0.9822,0.9822,0.9822,0.9822,0.9822,0.9727,0.9591,0.9494,0.9516,0.9702,0.9813,1.0107,1.0374,1.0641,1.0688,1.0647,1.0415,1.0298,1.0171,0.9925,0.9746,0.9575,0.9575,0.9575,0.9567,0.9477,0.9313,0.9388,0.9842,1.0733,1.1671,1.2613,1.3519,1.4082,1.4082,1.4082,1.4082,1.4082,1.4082,1.4082,1.4082,1.4082,1.4082,1.4082,1.3814,1.376,1.4082,1.376,1.3814,1.4082,1.4082,1.4082,0.8072,0.8343,0.8594,0.877,0.8824,0.8838,0.8871,0.8764,0.8587,0.8547,0.8065,0.7678,0.0,0.0,0.0,0.8126,0.8682,0.0,0.9255,0.9374,0.0,0.9442,0.0,0.7984,0.763,0.6818,0.0,0.0,0.5418,0.6064,0.7188,0.7682,0.865,1.0114,1.0077,1.0274,1.0717,1.0717,1.0717,1.0717,1.0717,1.0717,1.0717,1.0717,1.0717,1.0717,1.0717,1.0717,1.0717,1.0717,1.0717,1.0717,1.0677,1.0595,1.0473,1.029,1.0148,0.9963,0.9876,0.9822,0.9822,0.9822,0.9822,0.9822,0.9822,0.9795,0.9794,0.9888,1.0112,1.0302,1.0303,1.0563,1.0811,1.0729,1.0688,1.0647,1.0415,1.0342,1.0274,0.9949,0.9746,0.9575,0.9575,0.9575,0.9813,1.0428,1.045,1.037,1.0135,1.0824,1.1671,1.2613,1.3519,1.4082,1.4082,1.4082,1.4082,1.4082,1.4082,1.4082,1.4082,1.4082,1.4082,1.4082,1.4015,1.4015,1.4082,1.4015,1.4015,1.4082,1.4082,1.4082,0.8384,0.8635,0.8832,0.8865,0.8885,0.8831,0.8689,0.8513,0.8296,0.7963,0.7563,0.0,0.721,0.0,0.0,0.0,0.0,0.0,0.9275,0.9401,0.9523,0.0,0.8997,0.0,0.8557,0.8015,0.7744,0.0,0.7366,0.7466,0.8349,0.901,0.9739,1.0616,1.0473,1.0473,1.0616,1.0683,1.0717,1.0717,1.0717,1.0717,1.0717,1.0717,1.0717,1.0717,1.0717,1.0717,1.0717,1.0717,1.0717,1.0717,1.0717,1.0629,1.0473,1.0331,1.0181,0.9963,0.9876,0.9822,0.9822,0.9822,0.9822,0.9822,0.9822,0.9822,0.9849,1.0063,1.0317,1.048,1.0493,1.0747,1.0923,1.0737,1.0688,1.0664,1.0566,1.0431,1.0322,0.9957,0.9746,0.9575,0.9575,0.9969,1.0458,1.0971,1.1354,1.1666,1.1777,1.2092,1.2607,1.341,1.3969,1.4229,1.4095,1.4082,1.4082,1.4082,1.4082,1.4082,1.4082,1.4082,1.4082,1.4082,1.4082,1.4082,1.4082,1.4082,1.4082,1.4082,1.4082,1.4082,0.8642,0.8825,0.8878,0.8858,0.8851,0.8791,0.8343,0.8194,0.795,0.7213,0.0,0.6876,0.6681,0.6898,0.7213,0.7712,0.0,0.8689,0.93,0.9381,0.949,0.9788,0.9713,0.9686,0.9808,0.9896,0.9997,1.0017,0.9133,0.8612,0.8779,0.9902,1.048,1.0466,1.0365,1.0365,1.0487,1.0643,1.0717,1.0717,1.0717,1.0717,1.0717,1.0717,1.0717,1.0717,1.0717,1.0717,1.0717,1.0717,1.0717,1.0717,1.0717,1.0636,1.05,1.0337,1.0195,0.999,0.9883,0.9822,0.9822,0.9822,0.9822,0.9822,0.9822,0.9822,0.9916,1.0151,1.0406,1.0635,1.0612,1.0851,1.0956,1.0769,1.0712,1.0688,1.0688,1.0558,1.0331,0.9989,0.9778,0.9657,0.9772,1.0592,1.1268,1.156,1.2268,1.3074,1.3965,1.3814,1.3848,1.4462,1.4522,1.4402,1.4108,1.4082,1.4082,1.4082,1.4082,1.4082,1.4082,1.4082,1.4082,1.4082,1.4082,1.4082,1.4082,1.4082,1.4082,1.4082,1.4082,1.4082,0.8696,0.8825,0.8851,0.8784,0.875,0.8635,0.813,0.7794,0.0,0.0,0.6525,0.6247,0.6361,0.6681,0.7071,0.7563,0.0,0.0,0.0,0.0,0.949,0.0,0.0,0.0,0.0,0.0,0.0,0.0,1.0179,1.0136,1.0162,1.0357,1.0439,1.0324,1.0405,1.0466,1.0493,1.0643,1.0717,1.0717,1.0717,1.0717,1.0717,1.0717,1.0717,1.0717,1.0717,1.0717,1.0717,1.0717,1.0717,1.0717,1.0717,1.0704,1.0649,1.0378,1.0263,1.0202,0.9917,0.9822,0.9822,0.9822,0.9822,0.9822,0.9822,1.0004,1.0301,1.0574,1.0929,1.1183,1.1283,1.1239,1.1135,1.0964,1.0802,1.0688,1.0688,1.0558,1.0371,1.0152,0.9965,1.0088,1.0815,1.1072,1.1755,1.3511,1.3861,1.4315,1.5313,1.4352,1.3848,1.4462,1.4522,1.4402,1.4108,1.4082,1.4082,1.4082,1.4082,1.4082,1.4082,1.4082,1.4082,1.4082,1.4082,1.4082,1.4082,1.4082,1.4082,1.4082,1.4082,1.4082,0.8784,0.8824,0.8844,0.875,0.8648,0.8411,0.7678,0.0,0.0,0.0,0.6057,0.5908,0.5945,0.0,0.0,0.0,0.0,0.0,0.0,0.0,0.0,0.0,0.0,0.0,0.0,0.0,1.0229,1.0378,1.0527,1.0609,1.0609,1.0534,1.0426,1.0283,1.0419,1.0493,1.0493,1.0643,1.0717,1.0717,1.0717,1.0717,1.0717,1.0717,1.0717,1.0717,1.0717,1.0717,1.0717,1.0717,1.0717,1.0717,1.0717,1.0629,1.0473,1.0331,1.0181,1.0019,0.9869,0.9822,0.9822,0.9822,0.9822,0.9822,0.9822,1.0004,1.0368,1.0732,1.1027,1.1358,1.149,1.1362,1.1183,1.1013,1.0826,1.0688,1.0688,1.0558,1.0539,1.0924,1.0826,1.0975,1.1844,1.2436,1.3173,1.4148,1.4723,1.5248,1.5737,1.5204,1.4779,1.4958,1.4843,1.4629,1.4335,1.4175,1.4082,1.4082,1.4082,1.4082,1.4082,1.4082,1.4082,1.4082,1.4082,1.4082,1.4082,1.4082,1.4082,1.4082,1.4082,1.4082,0.8804,0.8885,0.8838,0.871,0.8547,0.8201,0.7253,0.6916,0.0,0.0,0.565,0.5684,0.5603,0.0,0.0,0.0,0.0,0.0,0.0,0.0,0.0,0.0,0.0,0.0,0.0,0.0,0.0,1.048,1.0636,1.0704,1.067,1.0555,1.0439,1.0331,1.0432,1.0507,1.0541,1.0663,1.0717,1.0717,1.0717,1.0717,1.0717,1.0717,1.0717,1.0717,1.0717,1.0717,1.0717,1.0717,1.0717,1.0717,1.0717,1.0561,1.0324,1.029,1.0107,0.9863,0.9829,0.9822,0.9822,0.9822,0.9822,0.9822,0.9822,1.0065,1.049,1.0725,1.1095,1.1426,1.1538,1.1386,1.1167,1.0964,1.0802,1.0688,1.0688,1.0582,1.0757,1.1603,1.1686,1.1892,1.2954,1.3845,1.4461,1.4592,1.5296,1.5784,1.5784,1.5784,1.5738,1.5511,1.5231,1.4981,1.4643,1.4349,1.4175,1.4175,1.4122,1.4082,1.4082,1.4082,1.4082,1.4082,1.4082,1.4082,1.4082,1.4082,1.4082,1.4082,1.4082,1.4124,0.8804,0.8885,0.8811,0.8574,0.8397,0.8058,0.7156,0.0,0.0,0.5718,0.5521,0.5474,0.5569,0.5739,0.6051,0.0,0.0,0.7475,0.0,0.0,0.0,0.0,0.0,0.0,0.0,1.0188,1.0337,1.048,1.0636,1.0656,1.0521,1.05,1.0487,1.0473,1.0487,1.0561,1.0697,1.0711,1.0717,1.0717,1.0717,1.0717,1.0717,1.0717,1.0717,1.0717,1.0717,1.0717,1.0717,1.0717,1.0717,1.0717,1.0717,1.0616,1.046,1.0331,1.0175,0.995,0.9869,0.9822,0.9822,0.9822,0.9822,0.9822,0.9822,1.0247,1.0793,1.0785,1.1277,1.1768,1.1752,1.1492,1.1135,1.0802,1.0704,1.0688,1.0688,1.068,1.0996,1.1975,1.213,1.2665,1.4243,1.4605,1.4912,1.5586,1.5737,1.5784,1.5784,1.5784,1.5771,1.5792,1.5524,1.5244,1.4995,1.4656,1.4482,1.4482,1.4229,1.4082,1.4082,1.4082,1.4082,1.4082,1.4082,1.4082,1.4082,1.4082,1.4082,1.4082,1.4082,1.4208,0.8716,0.8811,0.8831,0.8676,0.837,0.7923,0.7071,0.0,0.6211,0.561,0.544,0.5412,0.5474,0.5576,0.5813,0.6227,0.6357,0.6783,0.7685,0.0,0.0,0.0,0.0,0.0,0.0,0.0,1.0378,1.0609,1.0683,1.0697,1.0629,1.0629,1.0629,1.0629,1.0629,1.0656,1.0717,1.0717,1.0717,1.0717,1.0717,1.0717,1.0717,1.0717,1.0717,1.0717,1.0717,1.0717,1.0711,1.0622,1.0582,1.0575,1.0487,1.0358,1.0222,1.0161,1.0046,0.9842,0.9842,0.9822,0.9822,0.9822,0.9822,0.9822,1.0065,1.0422,1.0846,1.1027,1.1466,1.1752,1.1638,1.1338,1.1005,1.0753,1.0688,1.0688,1.0688,1.1227,1.1982,1.2939,1.3635,1.447,1.548,1.5673,1.568,1.5777,1.5784,1.5784,1.5784,1.5784,1.5784,1.5784,1.5565,1.5351,1.5231,1.495,1.471,1.4536,1.4416,1.4269,1.4095,1.4082,1.4082,1.4082,1.4082,1.4082,1.4082,1.4082,1.4082,1.4082,1.4208,1.4416,0.854,0.8757,0.8832,0.8682,0.8303,0.7732,0.0,0.6512,0.6074,0.5508,0.5392,0.5392,0.5392,0.5481,0.5603,0.5861,0.601,0.6363,0.7136,0.0,0.0,0.0,0.0,0.9361,0.0,1.0114,1.0365,1.0575,1.0588,1.0609,1.0649,1.0616,1.0629,1.0717,1.0717,1.0717,1.0717,1.0717,1.0717,1.0717,1.0717,1.0717,1.0717,1.0717,1.0697,1.0656,1.0656,1.0629,1.0582,1.0473,1.0432,1.0419,1.0317,1.0188,0.9984,0.9984,0.9889,0.9822,0.9822,0.9822,0.9822,0.9822,0.9822,0.9883,1.0308,1.0611,1.0853,1.1209,1.1526,1.1719,1.1484,1.1232,1.0988,1.0745,1.0962,1.1173,1.1173,1.2091,1.318,1.4186,1.4995,1.5725,1.6302,1.6393,1.6273,1.5838,1.5784,1.5784,1.5784,1.5784,1.5784,1.5784,1.5645,1.5524,1.5524,1.5257,1.5003,1.479,1.4616,1.4429,1.4229,1.4135,1.4082,1.4082,1.4082,1.4082,1.4082,1.4082,1.4135,1.4215,1.4457,1.4833,0.8323,0.8594,0.8676,0.852,0.8147,0.7617,0.0,0.6356,0.5901,0.5487,0.5392,0.5392,0.5392,0.5399,0.5446,0.5569,0.6006,0.6457,0.6871,0.7441,0.0,0.0,0.0,0.8893,0.9347,0.993,1.0283,1.0283,1.0283,1.0344,1.0487,1.0365,1.0419,1.0711,1.0717,1.0717,1.0717,1.0717,1.0717,1.0717,1.0717,1.0717,1.0717,1.0717,1.0636,1.0493,1.0493,1.0412,1.0283,1.0283,1.0283,1.0283,1.0283,1.0188,0.9984,0.9984,0.9889,0.9822,0.9822,0.9822,0.9822,0.9822,0.9822,0.9943,1.0604,1.0785,1.0853,1.1209,1.1526,1.1695,1.1321,1.1224,1.1135,1.0777,1.1555,1.2363,1.2363,1.3275,1.446,1.5636,1.5914,1.6061,1.6592,1.67,1.65,1.5864,1.5784,1.5784,1.5784,1.5784,1.5784,1.5784,1.5784,1.5784,1.5784,1.5565,1.5391,1.5391,1.4843,1.4522,1.4522,1.4242,1.4082,1.4082,1.4082,1.4082,1.4082,1.4082,1.4242,1.4509,1.477,1.548,0.7645,0.7902,0.8058,0.7916,0.7611,0.7166,0.6668,0.6274,0.5901,0.5487,0.5392,0.5392,0.5392,0.5392,0.5549,0.6013,0.6204,0.6491,0.0,0.0,0.0,0.0,0.0,0.9462,0.0,0.0,1.0168,1.0276,1.0283,1.0297,1.0344,1.0304,1.0419,1.0711,1.0616,1.0616,1.0717,1.0717,1.0717,1.0717,1.0717,1.0663,1.0561,1.0561,1.0487,1.0344,1.0344,1.0324,1.027,1.0168,1.0058,1.0114,1.0005,0.9937,0.989,0.989,0.9863,0.9822,0.9822,0.9822,0.9822,0.9822,0.9943,1.0247,1.0671,1.0785,1.0914,1.1466,1.153,1.137,1.1248,1.1045,1.0834,1.072,1.1555,1.2417,1.2417,1.3922,1.5423,1.5808,1.6499,1.6964,1.6757,1.67,1.65,1.5864,1.5784,1.5784,1.5784,1.5784,1.5784,1.5784,1.5784,1.5784,1.5784,1.5704,1.5605,1.5404,1.5217,1.503,1.483,1.478,1.4589,1.4389,1.4589,1.4589,1.4389,1.4561,1.4874,1.5274,1.5784,1.6261,0.0,0.7421,0.7624,0.7536,0.7244,0.6871,0.6518,0.6118,0.5766,0.5467,0.5392,0.5392,0.5392,0.5392,0.5535,0.5972,0.619,0.647,0.0,0.0,0.0,0.0,0.0,0.0,0.0,0.9835,1.0005,1.01,1.0107,1.0134,1.0188,1.0141,1.0243,1.0541,1.046,1.046,1.0555,1.0609,1.0609,1.0555,1.0609,1.0555,1.0412,1.0412,1.0331,1.0195,1.0195,1.0161,0.0,1.0005,0.9903,0.9889,0.9856,0.9822,0.9822,0.9822,0.9822,0.9822,0.9822,0.9822,0.9822,0.9822,1.0126,1.0543,1.0906,1.1095,1.1277,1.1655,1.1614,1.1403,1.1256,1.1062,1.097,1.1261,1.22,1.3166,1.3599,1.5209,1.6552,1.6552,1.7094,1.7435,1.6954,1.678,1.654,1.6072,1.5899,1.5784,1.5784,1.5784,1.5784,1.5784,1.5784,1.5784,1.5784,1.5784,1.5752,1.5565,1.5458,1.5324,1.5182,1.5062,1.4914,1.4696,1.4914,1.4914,1.4815,1.5144,1.5567,1.5934,1.645,1.6817,0.0,0.7041,0.7316,0.731,0.6946,0.6559,0.632,0.5924,0.0,0.5426,0.5392,0.5399,0.5426,0.5419,0.5474,0.5637,0.6054,0.6436,0.0,0.0,0.0,0.0,0.8989,0.0,0.9395,0.9659,0.9822,0.9822,0.9822,0.9883,0.9963,0.9897,0.9951,1.0236,1.0249,1.0256,1.0283,1.0412,1.0412,1.0283,1.0412,1.0405,1.0263,1.0263,1.0181,0.997,0.997,0.9889,0.9822,0.9822,0.9822,0.9822,0.9822,0.9822,0.9822,0.9822,0.9822,0.9822,0.9822,0.9822,0.9822,0.9883,1.0308,1.0853,1.1216,1.1526,1.1776,1.176,1.1744,1.1654,1.1297,1.1249,1.1492,1.2238,1.3329,1.4567,1.5648,1.6776,1.7582,1.7582,1.7582,1.7488,1.7246,1.6914,1.6633,1.6326,1.6032,1.5845,1.5784,1.5784,1.5784,1.5784,1.5784,1.5784,1.5784,1.5784,1.5784,1.5784,1.5578,1.5431,1.5431,1.5164,1.5062,1.5035,1.5035,1.517,1.5366,1.591,1.6278,1.6553,1.6883,1.7106,0.5719,0.0,0.6315,0.62,0.6091,0.5962,0.0,0.5664,0.5549,0.0,0.0,0.5467,0.5657,0.561,0.5732,0.6342,0.6525,0.6742,0.0,0.0,0.0,0.9259,0.9435,0.9557,0.97,0.9781,0.9822,0.9822,0.9822,0.9836,0.9869,0.9842,0.9856,0.9924,0.993,1.0039,1.0276,1.0317,1.0317,1.0283,1.0317,1.0249,1.0169,1.0107,1.0019,0.9876,0.9876,0.9856,0.9822,0.9822,0.9822,0.9822,0.9822,0.9822,0.9822,0.9822,0.9822,0.9822,0.9822,0.9822,0.9883,1.0429,1.0671,1.0914,1.1526,1.1716,1.1744,1.1606,1.1459,1.1305,1.1086,1.1587,1.2156,1.2382,1.3976,1.5541,1.5861,1.6776,1.7582,1.7582,1.7582,1.7488,1.7246,1.7139,1.6924,1.6402,1.6219,1.6086,1.5811,1.5784,1.5784,1.5784,1.5784,1.5784,1.5784,1.5784,1.5784,1.5784,1.5718,1.5725,1.5725,1.5658,1.5524,1.5297,1.5526,1.5801,1.6211,1.6615,1.6782,1.6826,1.7086,1.7232,0.5155,0.5583,0.5986,0.6017,0.5956,0.5888,0.5806,0.0,0.0,0.0,0.0,0.0,0.5664,0.5698,0.5867,0.641,0.6668,0.0,0.0,0.0,0.0,0.9544,0.9666,0.9734,0.9815,0.9822,0.9822,0.9822,0.9822,0.9822,0.9822,0.9822,0.9822,0.9822,0.9822,0.9903,1.0066,1.0141,1.0141,1.0073,1.0141,1.0093,0.9944,0.9944,0.9835,0.9822,0.9822,0.9822,0.9822,0.9822,0.9822,0.9822,0.9822,0.9822,0.9822,0.9822,0.9822,0.9822,0.9822,0.9822,0.9883,1.0604,1.0785,1.0914,1.1587,1.1776,1.1736,1.1549,1.1427,1.1405,1.1699,1.2155,1.2814,1.3792,1.4995,1.6021,1.6552,1.7147,1.7582,1.7582,1.7582,1.7528,1.7434,1.7286,1.7085,1.6777,1.6496,1.6219,1.6059,1.5912,1.5784,1.5784,1.5784,1.5784,1.5784,1.5784,1.5784,1.5784,1.5784,1.5784,1.5784,1.5784,1.5799,1.5792,1.6025,1.635,1.6722,1.6987,1.7113,1.7077,1.7252,1.7279,0.4965,0.5447,0.601,0.6071,0.6044,0.5946,0.5899,0.0,0.0,0.0,0.0,0.0,0.0,0.0,0.0,0.0,0.0,0.0,0.0,0.0,0.933,0.9605,0.9747,0.0,0.9822,0.9822,0.9822,0.9822,0.9822,0.9822,0.9822,0.9822,0.9822,0.9822,0.9822,0.9822,0.9822,0.9889,0.9889,0.9822,0.9889,0.9883,0.9822,0.9822,0.9822,0.9822,0.9822,0.9822,0.9822,0.9822,0.9822,0.9822,0.9822,0.9822,0.9822,0.9822,0.9822,0.9822,0.9822,0.9822,1.0004,1.0604,1.0846,1.0974,1.1595,1.176,1.1695,1.1508,1.1459,1.1662,1.2459,1.2793,1.3407,1.5428,1.6021,1.6393,1.7371,1.7582,1.7582,1.7582,1.7582,1.7582,1.7582,1.7434,1.7246,1.7206,1.6737,1.6375,1.6335,1.6019,1.5784,1.5784,1.5784,1.5784,1.5784,1.5784,1.5784,1.5784,1.5784,1.5784,1.5784,1.5832,1.5974,1.6272,1.6494,1.6777,1.7073,1.72,1.7279,1.7279,1.7279,1.7279,0.5221,0.5562,0.5752,0.5359,0.5569,0.5772,0.5556,0.0,0.0,0.0,0.0,0.0,0.0,0.0,0.0,0.0,0.0,0.7957,0.0,0.0,0.9371,0.9741,0.0,0.9822,0.9822,0.9822,0.9822,0.9822,0.9822,0.9822,0.9822,0.9822,0.9822,0.9822,0.9822,0.9822,0.9822,0.9842,0.9842,0.9822,0.9842,0.9842,0.9822,0.9822,0.9822,0.9822,0.9822,0.9822,0.9822,0.9822,0.9822,0.9822,0.9822,0.9822,0.9822,0.9822,0.9822,0.9822,0.9822,1.0004,1.0308,1.0671,1.0967,1.1277,1.1647,1.1663,1.15,1.1313,1.1265,1.1405,1.2248,1.3162,1.4234,1.5595,1.667,1.7371,1.7582,1.7582,1.7582,1.7582,1.7582,1.7582,1.7582,1.7542,1.7487,1.7233,1.686,1.6553,1.6348,1.6019,1.5784,1.5784,1.5784,1.5784,1.5784,1.5784,1.5784,1.5784,1.5784,1.5784,1.5784,1.6035,1.6258,1.6541,1.6777,1.7059,1.7232,1.7279,1.7279,1.7279,1.7279,1.7279,0.4948,0.5338,0.5637,0.5433,0.5833,0.6254,0.6118,0.0,0.0,0.0,0.0,0.0,0.0,0.0,0.6919,0.7483,0.0,0.8472,0.8981,0.9252,0.9503,0.0,0.9822,0.9822,0.9822,0.9822,0.9822,0.9822,0.9822,0.9822,0.9822,0.9822,0.9822,0.9822,0.9822,0.9822,0.9822,0.9822,0.9822,0.9822,0.9822,0.9822,0.9822,0.9822,0.9822,0.9822,0.9822,0.9822,0.9822,0.9822,0.9822,0.9822,0.9822,0.9822,0.9822,0.9822,0.9822,0.9822,0.9822,0.9883,1.0126,1.0604,1.0906,1.1156,1.1647,1.1719,1.1614,1.1427,1.1684,1.2188,1.3093,1.4191,1.537,1.6552,1.7199,1.7582,1.7582,1.7582,1.7582,1.7582,1.7582,1.7582,1.7582,1.7582,1.7542,1.7447,1.7179,1.6834,1.654,1.6246,1.6005,1.5798,1.5784,1.5784,1.5784,1.5784,1.5784,1.5784,1.5784,1.5879,1.6021,1.613,1.6414,1.6838,1.6932,1.7106,1.7279,1.7279,1.7279,1.7326,1.787,1.8102,0.483,0.5209,0.5569,0.5711,0.0,0.6607,0.6641,0.0,0.0,0.0,0.0,0.0,0.0,0.6885,0.0,0.7982,0.8492,0.8866,0.9221,0.9442,0.9659,0.9802,0.9822,0.9822,0.9822,0.9822,0.9822,0.9822,0.9822,0.9822,0.9822,0.9822,0.9822,0.9822,0.9822,0.9822,0.9822,0.9822,0.9822,0.9822,0.9822,0.9822,0.9822,0.9822,0.9822,0.9822,0.9822,0.9822,0.9822,0.9822,0.9822,0.9822,0.9822,0.9822,0.9822,0.9822,0.9822,0.9822,0.9822,0.9883,1.0004,1.0611,1.0846,1.1035,1.1595,1.1744,1.1739,1.1887,1.2581,1.3371,1.4016,1.5041,1.618,1.7318,1.7582,1.7582,1.7582,1.7582,1.7582,1.7582,1.7582,1.7582,1.7582,1.7582,1.7582,1.7582,1.7393,1.7125,1.6834,1.6553,1.6286,1.6059,1.5965,1.5899,1.5784,1.5784,1.5832,1.5879,1.5879,1.5974,1.6177,1.6319,1.6602,1.6979,1.7073,1.7153,1.7279,1.7279,1.7419,1.7652,1.8427,1.8934,0.5372,0.5487,0.5549,0.6108,0.6293,0.0,0.6497,0.6409,0.0,0.6614,0.0,0.0,0.0,0.736,0.7902,0.8377,0.8716,0.9028,0.932,0.0,0.9659,0.9802,0.9822,0.9822,0.9822,0.9822,0.9822,0.9822,0.9822,0.9822,0.9822,0.9822,0.9822,0.9822,0.9822,0.9822,0.9822,0.9822,0.9822,0.9822,0.9822,0.9822,0.9822,0.9822,0.9822,0.9822,0.9822,0.9822,0.9822,0.9822,0.9822,0.9822,0.9822,0.9822,0.9822,0.9822,0.9822,0.9822,0.9822,1.0004,1.0308,1.0664,1.1027,1.1337,1.1708,1.1654,1.1753,1.2903,1.4009,1.466,1.4425,1.5124,1.618,1.7318,1.7582,1.7582,1.7582,1.7582,1.7582,1.7582,1.7582,1.7582,1.7582,1.7582,1.7582,1.7582,1.7393,1.7192,1.7166,1.686,1.666,1.6647,1.6406,1.6126,1.5845,1.5784,1.5927,1.6177,1.6177,1.6177,1.6224,1.6697,1.6979,1.6979,1.72,1.7279,1.7279,1.7279,1.7792,1.8703,1.8796,1.9285,0.5087,0.5332,0.5603,0.6017,0.6329,0.0,0.0,0.6932,0.7149,0.7346,0.7434,0.0,0.0,0.0,0.818,0.8438,0.8893,0.9252,0.9367,0.9591,0.9761,0.9815,0.9822,0.9822,0.9822,0.9822,0.9822,0.9822,0.9822,0.9822,0.9822,0.9822,0.9822,0.9822,0.9822,0.9822,0.9822,0.9822,0.9822,0.9822,0.9822,0.9822,0.9822,0.9822,0.9822,0.9822,0.9822,0.9822,0.9822,0.9822,0.9822,0.9822,0.9822,0.9822,0.9822,0.9822,0.9822,0.9822,0.9822,1.0004,1.0368,1.0664,1.1027,1.1337,1.1716,1.1727,1.197,1.3255,1.4167,1.4906,1.5441,1.6404,1.7274,1.7516,1.7582,1.7582,1.7582,1.7582,1.7582,1.7582,1.7582,1.7582,1.7582,1.7582,1.7582,1.7582,1.7488,1.7407,1.7219,1.7099,1.6914,1.6727,1.6446,1.6152,1.5811,1.5927,1.6082,1.6177,1.6224,1.6366,1.6697,1.6885,1.7073,1.72,1.7246,1.7279,1.7279,1.7917,1.8427,1.8842,2.0059,2.0782,0.5033,0.5318,0.5657,0.0,0.0,0.0,0.7014,0.7346,0.7665,0.7909,0.7916,0.0,0.0,0.0,0.0,0.0,0.8947,0.9306,0.9306,0.9564,0.9754,0.9754,0.9754,0.9754,0.9754,0.9754,0.9754,0.9754,0.9795,0.9802,0.9754,0.9754,0.9734,0.9686,0.9727,0.9754,0.9754,0.9795,0.9822,0.9822,0.9822,0.9822,0.9822,0.9822,0.9822,0.9822,0.9822,0.9822,0.9822,0.9822,0.9822,0.9822,0.9822,0.9822,0.9822,0.9822,0.9822,0.9822,0.9822,1.0004,1.0368,1.0664,1.1027,1.1337,1.1716,1.207,1.2664,1.3963,1.4913,1.5796,1.6753,1.7427,1.7849,1.7635,1.7582,1.7582,1.7582,1.7582,1.7582,1.7582,1.7582,1.7582,1.7582,1.7582,1.7582,1.7582,1.7582,1.7515,1.7367,1.734,1.7192,1.674,1.6607,1.6402,1.5967,1.6211,1.6368,1.6461,1.6461,1.6602,1.6979,1.7073,1.7153,1.7279,1.7279,1.7466,1.7792,1.8473,1.9117,1.9741,2.1051,2.1872,0.5392,0.5508,0.5664,0.0,0.0,0.0,0.7323,0.7495,0.7733,0.818,0.0,0.8042,0.8241,0.8327,0.0,0.8459,0.8914,0.9207,0.9207,0.9415,0.9605,0.9605,0.9605,0.9605,0.9605,0.9605,0.9605,0.9605,0.9741,0.9754,0.9612,0.9605,0.9537,0.9388,0.953,0.9605,0.9605,0.9747,0.9815,0.9815,0.9815,0.9815,0.9822,0.9822,0.9822,0.9822,0.9822,0.9822,0.9822,0.9822,0.9822,0.9822,0.9822,0.9822,0.9822,0.9822,0.9822,0.9822,0.9822,1.0004,1.0368,1.0664,1.1027,1.1398,1.1716,1.2724,1.3963,1.5273,1.6503,1.7683,1.8289,1.8036,1.7582,1.7582,1.7582,1.7582,1.7582,1.7582,1.7582,1.7582,1.7582,1.7582,1.7582,1.7582,1.7582,1.7582,1.7582,1.7582,1.7582,1.7582,1.7355,1.6767,1.7018,1.6945,1.6259,1.6512,1.6794,1.7008,1.6979,1.6979,1.6979,1.72,1.7279,1.7326,1.7326,1.7824,1.8796,1.8842,1.9832,2.1695,2.1695,2.2183,0.5108,0.5467,0.0,0.0,0.0,0.0,0.0,0.0,0.0,0.0,0.854,0.8492,0.8431,0.8506,0.0,0.8635,0.8927,0.9207,0.9207,0.932,0.9449,0.9449,0.9449,0.9449,0.9449,0.9449,0.9449,0.9449,0.949,0.9496,0.9449,0.9449,0.9429,0.9381,0.9422,0.9449,0.9449,0.949,0.951,0.951,0.951,0.9618,0.9822,0.9822,0.9822,0.9822,0.9822,0.9822,0.9822,0.9822,0.9822,0.9822,0.9822,0.9822,0.9822,0.9822,0.9822,0.9822,0.9822,1.0186,1.0671,1.0793,1.1216,1.1828,1.2835,1.3426,1.4103,1.6065,1.6689,1.704,1.7934,1.7876,1.7582,1.7582,1.7582,1.7582,1.7582,1.7582,1.7582,1.7582,1.7582,1.7582,1.7582,1.7582,1.7582,1.7582,1.7582,1.7582,1.7582,1.7582,1.7435,1.7112,1.7152,1.712,1.6845,1.6877,1.7008,1.7261,1.7236,1.72,1.72,1.7279,1.7652,1.8334,1.838,1.8842,1.9786,2.0466,2.1141,2.1739,2.2378,2.2818,0.5393,0.5772,0.0,0.0,0.0,0.0,0.818,0.0,0.0,0.0,0.0,0.8682,0.8587,0.8648,0.0,0.871,0.8913,0.9069,0.9069,0.9198,0.935,0.935,0.935,0.935,0.935,0.935,0.935,0.935,0.9347,0.9354,0.935,0.935,0.9266,0.9205,0.9259,0.935,0.935,0.9354,0.9381,0.9381,0.9381,0.9476,0.9646,0.9646,0.9646,0.9646,0.9646,0.968,0.9734,0.9734,0.9768,0.9822,0.9822,0.9822,0.9822,0.9822,0.9822,0.9822,0.9822,1.0247,1.0785,1.0785,1.1277,1.201,1.3315,1.3965,1.4634,1.646,1.7158,1.7456,1.7899,1.7849,1.7729,1.7609,1.7582,1.7582,1.7582,1.7582,1.7582,1.7582,1.7582,1.7582,1.7582,1.7582,1.7582,1.7582,1.7582,1.7582,1.7582,1.7582,1.7527,1.7233,1.7416,1.7463,1.7255,1.7456,1.7562,1.7548,1.7538,1.7457,1.734,1.7279,1.7792,1.8796,1.8796,1.9467,2.0782,2.1427,2.1872,2.229,2.3036,2.3398,0.5899,0.0,0.0,0.0,0.0,0.0,0.0,0.0,0.8771,0.8858,0.0,0.873,0.873,0.873,0.873,0.873,0.8845,0.8885,0.8885,0.9049,0.9187,0.9187,0.9187,0.9187,0.9187,0.9187,0.9187,0.9187,0.9259,0.9279,0.9193,0.9187,0.9076,0.8885,0.9062,0.9187,0.9187,0.9273,0.934,0.934,0.934,0.934,0.934,0.9367,0.9381,0.9381,0.9381,0.9462,0.9591,0.9591,0.9673,0.9802,0.9802,0.9808,0.9822,0.9822,0.9822,0.9822,0.9822,1.0247,1.0785,1.0831,1.1269,1.207,1.3407,1.4447,1.5387,1.6746,1.7754,1.8384,1.8022,1.7955,1.7876,1.7649,1.7582,1.7582,1.7582,1.7582,1.7582,1.7582,1.7582,1.7582,1.7582,1.7582,1.7582,1.7582,1.7582,1.7582,1.7582,1.7582,1.7527,1.7273,1.7696,1.7901,1.7638,1.8087,1.8239,1.7892,1.7882,1.7768,1.7569,1.7448,1.7917,1.8934,1.9042,2.0019,2.1883,2.192,2.2403,2.3218,2.3672,2.3848,0.0,0.6064,0.0,0.0,0.0,0.0,0.0,0.8716,0.8844,0.8878,0.8858,0.8838,0.8838,0.8838,0.8838,0.8838,0.8865,0.8885,0.8885,0.8912,0.8988,0.8988,0.8988,0.8988,0.8988,0.8988,0.8988,0.8988,0.9015,0.9022,0.8988,0.8988,0.8974,0.8885,0.8967,0.8988,0.8988,0.9015,0.9035,0.9035,0.9035,0.9035,0.9042,0.9273,0.9381,0.9381,0.9381,0.9401,0.9429,0.9429,0.9517,0.9652,0.9652,0.972,0.9822,0.9822,0.9822,0.9822,1.0126,1.049,1.0831,1.0942,1.1355,1.2165,1.429,1.5014,1.5528,1.7616,1.8137,1.8022,1.7756,1.7689,1.7662,1.7595,1.7582,1.7582,1.7582,1.7582,1.7582,1.7582,1.7582,1.7582,1.7582,1.7582,1.7582,1.7582,1.7582,1.7582,1.7582,1.7582,1.7555,1.7502,1.7818,1.8067,1.8188,1.8329,1.8441,1.8584,1.8335,1.8551,1.9317,1.8801,1.8918,1.9877,2.0989,2.2153,2.3339,2.3666,2.3912,2.4095,2.4238,2.4277,0.0,0.0,0.0,0.0,0.0,0.0,0.0,0.0,0.8797,0.8865,0.8885,0.8885,0.8885,0.8885,0.8885,0.8885,0.8885,0.8885,0.8885,0.8885,0.8885,0.8885,0.8885,0.8885,0.8885,0.8885,0.8885,0.8885,0.8885,0.8885,0.8885,0.8885,0.8885,0.8885,0.8885,0.8885,0.8885,0.8885,0.8885,0.8885,0.8885,0.8885,0.8892,0.9096,0.9171,0.9171,0.9171,0.9205,0.933,0.933,0.9361,0.9503,0.9503,0.9544,0.9612,0.9612,0.9612,0.9671,0.9968,1.0258,1.0598,1.0809,1.1142,1.1955,1.4384,1.4966,1.5243,1.7588,1.8063,1.7782,1.7622,1.7582,1.7582,1.7582,1.7582,1.7582,1.7582,1.7582,1.7582,1.7582,1.7582,1.7582,1.7582,1.7582,1.7582,1.7582,1.7582,1.7582,1.7582,1.7582,1.7582,1.7582,1.795,1.8279,1.837,1.8645,1.9052,1.9532,1.9399,1.9724,2.0651,2.0742,2.1049,2.1511,2.228,2.3101,2.4102,2.4316,2.4414,2.4414,2.4629,2.4727,0.0,0.0,0.0,0.0,0.0,0.0,0.0,0.0,0.8743,0.8817,0.8865,0.8885,0.8885,0.8885,0.8885,0.8885,0.8885,0.8885,0.8885,0.8885,0.8885,0.8885,0.8885,0.8885,0.8885,0.8885,0.8885,0.8885,0.8885,0.8885,0.8885,0.8885,0.8885,0.8885,0.8885,0.8885,0.8885,0.8885,0.8885,0.8885,0.8885,0.8885,0.8885,0.8885,0.8885,0.8885,0.8885,0.9008,0.9173,0.9173,0.9262,0.934,0.934,0.9361,0.9381,0.9381,0.9439,0.9497,0.9787,1.0127,1.0409,1.0666,1.1077,1.1954,1.4184,1.4765,1.5164,1.7386,1.7822,1.7582,1.7582,1.7582,1.7582,1.7582,1.7582,1.7582,1.7582,1.7582,1.7582,1.7582,1.7582,1.7582,1.7582,1.7582,1.7582,1.7582,1.7582,1.7582,1.7582,1.7582,1.7582,1.7582,1.8055,1.837,1.8422,1.8907,1.9604,2.0414,2.0498,2.095,2.1896,2.2756,2.3296,2.3438,2.3411,2.3767,2.4531,2.4609,2.4602,2.4648,2.5019,2.5176,0.0,0.0,0.0,0.0,0.0,0.0,0.0,0.0,0.8716,0.0,0.8845,0.8885,0.8885,0.8885,0.8885,0.8885,0.8885,0.8885,0.8885,0.8885,0.8885,0.8885,0.8885,0.8885,0.8885,0.8885,0.8885,0.8885,0.8885,0.8885,0.8885,0.8885,0.8885,0.8885,0.8885,0.8885,0.8885,0.8885,0.8885,0.8885,0.8885,0.8885,0.8885,0.8885,0.8885,0.8885,0.8885,0.8892,0.8967,0.8967,0.9055,0.9241,0.9241,0.9323,0.9381,0.9381,0.9555,0.978,1.0127,1.0416,1.0682,1.0883,1.1776,1.3003,1.4267,1.5242,1.615,1.7603,1.7822,1.7582,1.7582,1.7582,1.7582,1.7582,1.7582,1.7582,1.7582,1.7582,1.7582,1.7582,1.7582,1.7582,1.7582,1.7582,1.7582,1.7582,1.7582,1.7582,1.7582,1.7582,1.7582,1.7582,1.7845,1.8174,1.837,1.875,1.9517,2.0762,2.0813,2.1694,2.3686,2.3883,2.4391,2.5305,2.4985,2.4886,2.5028,2.5371,2.5518,2.5518,2.5577,2.5596,0.6098,0.6607,0.7105,0.0,0.0,0.0,0.0,0.0,0.8486,0.8567,0.8703,0.8838,0.8865,0.8885,0.8885,0.8885,0.8885,0.8885,0.8885,0.8885,0.8885,0.8885,0.8885,0.8885,0.8885,0.8885,0.8885,0.8885,0.8885,0.8885,0.8885,0.8885,0.8885,0.8885,0.8885,0.8885,0.8885,0.8885,0.8885,0.8885,0.8885,0.8885,0.8885,0.8885,0.8885,0.8885,0.8885,0.8885,0.8885,0.8885,0.8974,0.9035,0.9035,0.9076,0.913,0.9356,0.9469,0.9638,1.0145,1.0362,1.0635,1.1492,1.2183,1.3005,1.481,1.5653,1.6258,1.7462,1.7689,1.7582,1.7582,1.7582,1.7582,1.7582,1.7582,1.7582,1.7582,1.7582,1.7582,1.7582,1.7582,1.7582,1.7582,1.7582,1.7582,1.7582,1.7582,1.7582,1.7582,1.7582,1.7582,1.7582,1.7859,1.8069,1.8174,1.9153,2.0277,2.1489,2.2282,2.3402,2.4922,2.502,2.5216,2.5693,2.5547,2.5449,2.5449,2.5596,2.5693,2.5693,2.5693,2.5693,0.6288,0.6614,0.6892,0.7448,0.0,0.0,0.0,0.0,0.8354,0.0,0.8547,0.8689,0.8804,0.8831,0.8885,0.8885,0.8885,0.8885,0.8885,0.8885,0.8885,0.8885,0.8885,0.8885,0.8885,0.8885,0.8885,0.8885,0.8885,0.8885,0.8885,0.8885,0.8885,0.8885,0.8885,0.8885,0.8885,0.8885,0.8885,0.8885,0.8885,0.8885,0.8885,0.8885,0.8885,0.8885,0.8885,0.8885,0.8885,0.8885,0.8885,0.8885,0.8885,0.894,0.9051,0.9327,0.9485,0.9706,1.0147,1.0523,1.1017,1.2037,1.2788,1.3599,1.537,1.6074,1.6499,1.7371,1.7582,1.7582,1.7582,1.7582,1.7582,1.7582,1.7582,1.7582,1.7582,1.7582,1.7582,1.7582,1.7582,1.7582,1.7582,1.7582,1.7582,1.7582,1.7582,1.7582,1.7582,1.7582,1.7582,1.7582,1.7806,1.7911,1.7964,1.9413,2.0826,2.203,2.3302,2.451,2.5645,2.5693,2.5693,2.5693,2.5693,2.5693,2.5693,2.5693,2.5693,2.5693,2.5693,2.5693,0.5725,0.6064,0.0,0.0,0.0,0.0,0.0,0.0,0.8327,0.8333,0.8397,0.8499,0.8506,0.8743,0.8885,0.8885,0.8885,0.8885,0.8885,0.8885,0.8885,0.8885,0.8885,0.8885,0.8885,0.8885,0.8885,0.8885,0.8885,0.8885,0.8885,0.8885,0.8885,0.8885,0.8885,0.8885,0.8885,0.8885,0.8885,0.8885,0.8885,0.8885,0.8885,0.8885,0.8885,0.8885,0.8885,0.8885,0.8885,0.8885,0.8885,0.8885,0.8885,0.9106,0.9375,0.9375,0.9761,1.0257,1.0312,1.1173,1.2309,1.2363,1.3922,1.5755,1.5861,1.667,1.7529,1.7582,1.7582,1.7582,1.7582,1.7582,1.7582,1.7582,1.7582,1.7582,1.7582,1.7582,1.7582,1.7582,1.7582,1.7582,1.7582,1.7582,1.7582,1.7582,1.7582,1.7582,1.7582,1.7582,1.7582,1.7582,1.7635,1.774,1.7964,1.9063,2.0431,2.1979,2.312,2.4332,2.5645,2.5693,2.5693,2.5693,2.5693,2.5693,2.5693,2.5693,2.5693,2.5693,2.5693,2.5693,0.5569,0.5813,0.0,0.0,0.0,0.0,0.7597,0.7828,0.8004,0.8099,0.8241,0.8343,0.8343,0.8513,0.8676,0.8777,0.8791,0.8825,0.8871,0.8885,0.8885,0.8885,0.8885,0.8885,0.8885,0.8885,0.8885,0.8885,0.8885,0.8885,0.8885,0.8885,0.8885,0.8885,0.8885,0.8885,0.8885,0.8885,0.8885,0.8885,0.8885,0.8885,0.8885,0.8885,0.8885,0.8885,0.8885,0.8885,0.8885,0.8885,0.8885,0.894,0.9161,0.9272,0.943,0.9816,1.0091,1.0312,1.0476,1.1391,1.2526,1.3275,1.4567,1.6021,1.6776,1.7265,1.7582,1.7582,1.7582,1.7582,1.7582,1.7582,1.7582,1.7582,1.7582,1.7582,1.7582,1.7582,1.7582,1.7582,1.7582,1.7582,1.7582,1.7582,1.7582,1.7582,1.7582,1.7582,1.7582,1.7582,1.7582,1.7582,1.7582,1.7898,1.8722,1.9968,2.1285,2.2534,2.3768,2.4775,2.543,2.543,2.5528,2.5693,2.5693,2.5693,2.5693,2.5693,2.5693,2.5693,2.5693,2.5693,0.5365,0.0,0.0,0.0,0.0,0.0,0.74,0.0,0.7719,0.7874,0.8085,0.8194,0.8194,0.8269,0.8397,0.8601,0.8635,0.8669,0.8771,0.8784,0.8784,0.8784,0.8784,0.8784,0.8784,0.8784,0.8784,0.8784,0.8784,0.8784,0.8784,0.8784,0.8784,0.8784,0.8831,0.8858,0.8811,0.8858,0.8885,0.8885,0.8885,0.8885,0.8885,0.8885,0.8885,0.8885,0.8885,0.8885,0.8885,0.8885,0.894,0.9106,0.9327,0.9541,0.9761,1.0147,1.0366,1.0523,1.1072,1.2037,1.3166,1.4352,1.5541,1.6617,1.7371,1.7582,1.7582,1.7582,1.7582,1.7582,1.7582,1.7582,1.7582,1.7582,1.7582,1.7582,1.7582,1.7582,1.7582,1.7582,1.7582,1.7582,1.7582,1.7582,1.7582,1.7582,1.7582,1.7582,1.7582,1.7582,1.7582,1.7582,1.7582,1.8042,1.9124,2.0416,2.1641,2.2835,2.4165,2.5039,2.5284,2.5382,2.5528,2.5693,2.5693,2.5693,2.5693,2.5693,2.5693,2.5693,2.5693,2.5693,0.0,0.0,0.0,0.0,0.0,0.0,0.7221,0.0,0.7434,0.774,0.7874,0.7975,0.7988,0.7988,0.8083,0.8425,0.8472,0.8479,0.8479,0.8479,0.8479,0.8479,0.8479,0.8479,0.8479,0.8479,0.8479,0.8479,0.8479,0.8479,0.8479,0.8479,0.8479,0.8479,0.8771,0.8797,0.8703,0.8797,0.8871,0.8871,0.8871,0.8878,0.8878,0.8885,0.8885,0.8885,0.8885,0.8885,0.8885,0.8885,0.9106,0.9382,0.9437,0.9761,1.0312,1.0312,1.0476,1.0907,1.2037,1.3166,1.4352,1.5541,1.667,1.7582,1.7582,1.7582,1.7582,1.7582,1.7582,1.7582,1.7582,1.7582,1.7582,1.7582,1.7582,1.7582,1.7582,1.7582,1.7582,1.7582,1.7582,1.7582,1.7582,1.7582,1.7582,1.7582,1.7582,1.7582,1.7582,1.7582,1.7582,1.7582,1.7582,1.8042,1.9176,2.0261,2.1489,2.2835,2.4165,2.499,2.5284,2.5547,2.5693,2.5693,2.5693,2.5693,2.5693,2.5693,2.5693,2.5693,2.5693,2.5693,0.4935,0.0,0.0,0.0,0.0,0.0,0.0,0.0,0.6941,0.7529,0.7604,0.7651,0.7928,0.7988,0.8015,0.8096,0.8255,0.8364,0.8465,0.8479,0.8479,0.8479,0.8479,0.8479,0.8479,0.8479,0.8479,0.8479,0.8479,0.8479,0.8479,0.8479,0.8479,0.8479,0.8567,0.8587,0.8547,0.8587,0.8608,0.8608,0.8723,0.8771,0.8777,0.8831,0.8885,0.8885,0.8885,0.8885,0.8885,0.8885,0.9106,0.9437,0.9596,0.9926,1.0312,1.0531,1.1173,1.1982,1.2309,1.3706,1.5476,1.5808,1.667,1.7582,1.7582,1.7582,1.7582,1.7582,1.7582,1.7582,1.7582,1.7582,1.7582,1.7582,1.7582,1.7582,1.7582,1.7582,1.7582,1.7582,1.7582,1.7582,1.7582,1.7582,1.7582,1.7582,1.7582,1.7582,1.7582,1.7582,1.7582,1.7582,1.7582,1.8356,2.0261,2.0723,2.1743,2.3737,2.4332,2.4726,2.499,2.5284,2.5479,2.5693,2.5693,2.5693,2.5693,2.5693,2.5693,2.5693,2.5693,2.5693,0.5121,0.0,0.0,0.0,0.0,0.0,0.6395,0.6463,0.662,0.0,0.7387,0.7468,0.7794,0.7855,0.7826,0.7887,0.8018,0.8133,0.8275,0.8296,0.8296,0.8296,0.8296,0.8296,0.8296,0.8296,0.8296,0.8296,0.8296,0.8296,0.8296,0.8357,0.8364,0.8303,0.8418,0.8452,0.8391,0.8452,0.8479,0.8486,0.8635,0.871,0.8716,0.8811,0.8885,0.8885,0.8885,0.8885,0.8885,0.8885,0.9154,0.9596,0.9761,1.0359,1.1173,1.1337,1.2146,1.3166,1.3706,1.4781,1.5968,1.6446,1.7041,1.7582,1.7582,1.7582,1.7582,1.7582,1.7582,1.7582,1.7582,1.7582,1.7582,1.7582,1.7582,1.7582,1.7582,1.7582,1.7582,1.7582,1.7582,1.7582,1.7582,1.7582,1.7582,1.7582,1.7582,1.7582,1.7582,1.7582,1.7582,1.7582,1.7989,1.8968,2.0723,2.1302,2.2316,2.4102,2.448,2.4726,2.4873,2.5235,2.5528,2.5693,2.5693,2.5693,2.5693,2.5693,2.5693,2.5693,2.5693,2.5693,0.5453,0.5589,0.0,0.0,0.5806,0.0,0.63,0.6327,0.6409,0.0,0.7136,0.7285,0.7489,0.7522,0.757,0.7712,0.7767,0.7848,0.7968,0.7988,0.7988,0.7988,0.7988,0.7988,0.7988,0.7988,0.7988,0.7988,0.7988,0.7988,0.7988,0.8167,0.818,0.7995,0.8296,0.837,0.8248,0.837,0.8431,0.8431,0.8587,0.8669,0.8689,0.8845,0.8865,0.8885,0.8885,0.8885,0.8885,0.8885,0.9265,0.9816,0.9816,1.0789,1.2254,1.2363,1.3112,1.4298,1.5488,1.5968,1.6234,1.7265,1.7582,1.7582,1.7582,1.7582,1.7582,1.7582,1.7582,1.7582,1.7582,1.7582,1.7582,1.7582,1.7582,1.7582,1.7582,1.7582,1.7582,1.7582,1.7582,1.7582,1.7582,1.7582,1.7582,1.7582,1.7582,1.7582,1.7582,1.7582,1.7635,1.774,1.8617,1.9694,2.0979,2.1962,2.2987,2.4152,2.4646,2.4892,2.4892,2.543,2.5693,2.5693,2.5693,2.5693,2.5693,2.5693,2.5693,2.5693,2.5693,2.5693,0.5555,0.5671,0.5779,0.5698,0.5813,0.0,0.5786,0.5827,0.5996,0.0,0.6356,0.6451,0.6923,0.7018,0.7058,0.7206,0.7482,0.7733,0.7955,0.7988,0.7988,0.7988,0.7988,0.7988,0.7988,0.7988,0.7988,0.7988,0.7988,0.7988,0.7988,0.8015,0.8022,0.7988,0.8049,0.8062,0.8035,0.8062,0.8076,0.8076,0.8282,0.8418,0.8533,0.8682,0.8825,0.8885,0.8885,0.8885,0.8885,0.8885,0.9265,0.9816,0.9816,1.0304,1.1126,1.2037,1.3112,1.4298,1.5488,1.6499,1.7318,1.7529,1.7582,1.7582,1.7582,1.7582,1.7582,1.7582,1.7582,1.7582,1.7582,1.7582,1.7582,1.7582,1.7582,1.7582,1.7582,1.7582,1.7582,1.7582,1.7582,1.7582,1.7582,1.7582,1.7582,1.7582,1.7582,1.7582,1.7582,1.7582,1.795,1.8812,1.9072,2.0004,2.2013,2.2367,2.2987,2.4152,2.4646,2.4892,2.4892,2.543,2.5693,2.5693,2.5693,2.5693,2.5693,2.5693,2.5693,2.5693,2.5693,2.5693,0.5847,0.5915,0.6054,0.5979,0.0,0.0,0.0,0.5861,0.5908,0.6327,0.6186,0.6128,0.662,0.6702,0.6776,0.6957,0.7179,0.7448,0.7678,0.7847,0.7988,0.7988,0.7988,0.7988,0.7988,0.7988,0.7988,0.7988,0.7988,0.7988,0.7988,0.7988,0.7988,0.7988,0.7988,0.7988,0.7988,0.7988,0.7988,0.7988,0.8194,0.8361,0.8384,0.8608,0.875,0.8832,0.8851,0.8885,0.8885,0.8885,0.9588,1.0625,1.0625,1.1383,1.2526,1.3706,1.4888,1.5914,1.6552,1.7094,1.7582,1.7582,1.7582,1.7582,1.7582,1.7582,1.7582,1.7582,1.7582,1.7582,1.7582,1.7582,1.7582,1.7582,1.7582,1.7582,1.7582,1.7582,1.7582,1.7582,1.7582,1.7582,1.7582,1.7582,1.7582,1.7582,1.7582,1.7582,1.7582,1.7582,1.7989,1.9072,1.9694,2.0723,2.2367,2.3038,2.3587,2.4152,2.4646,2.4843,2.4677,2.5333,2.5693,2.5693,2.5693,2.5693,2.5693,2.5693,2.5693,2.5693,2.5693,2.5693,0.6234,0.6274,0.6409,0.632,0.0,0.62,0.0,0.0,0.0,0.632,0.6152,0.0,0.0,0.0,0.0,0.6667,0.6856,0.7054,0.7228,0.7563,0.78,0.7853,0.7887,0.7914,0.7941,0.7921,0.7928,0.7988,0.7934,0.7928,0.7988,0.7988,0.7988,0.7988,0.7988,0.7988,0.7988,0.7988,0.7988,0.7988,0.8167,0.8241,0.8333,0.8547,0.8682,0.8716,0.8817,0.8885,0.894,0.921,1.0186,1.1483,1.1483,1.2571,1.4245,1.5423,1.6499,1.7318,1.7529,1.7582,1.7582,1.7582,1.7582,1.7582,1.7582,1.7582,1.7582,1.7582,1.7582,1.7582,1.7582,1.7582,1.7582,1.7582,1.7582,1.7582,1.7582,1.7582,1.7582,1.7582,1.7582,1.7582,1.7582,1.7582,1.7582,1.7582,1.7582,1.7582,1.7582,1.7582,1.8094,1.9383,2.0364,2.1404,2.2719,2.3687,2.4202,2.4202,2.4597,2.4745,2.4529,2.5235,2.5645,2.5645,2.5693,2.5693,2.5693,2.5693,2.5693,2.5693,2.5693,2.5693,0.0,0.0,0.0,0.0,0.6546,0.6613,0.6003,0.0,0.6184,0.5922,0.0,0.0,0.0,0.0,0.0,0.0,0.6363,0.6593,0.6613,0.6851,0.7156,0.7414,0.7563,0.7699,0.7828,0.7726,0.776,0.7968,0.7794,0.776,0.7975,0.7988,0.7988,0.7988,0.7988,0.7988,0.7988,0.7988,0.7988,0.7988,0.8008,0.814,0.8327,0.8438,0.8581,0.8716,0.8817,0.8885,0.8989,1.0296,1.1109,1.1483,1.1483,1.2571,1.4245,1.5423,1.5968,1.6234,1.7252,1.7582,1.7582,1.7582,1.7582,1.7582,1.7582,1.7582,1.7582,1.7582,1.7582,1.7582,1.7582,1.7582,1.7582,1.7582,1.7582,1.7582,1.7582,1.7582,1.7582,1.7582,1.7582,1.7582,1.7582,1.7582,1.7582,1.7582,1.7582,1.7582,1.7582,1.7582,1.8408,2.0467,2.0826,2.1759,2.3836,2.4152,2.4202,2.4202,2.4449,2.4529,2.448,2.5039,2.5333,2.5333,2.5596,2.5693,2.5693,2.5693,2.5693,2.5693,2.5693,2.5693,0.0,0.0,0.0,0.6586,0.6654,0.6688,0.6281,0.6159,0.6118,0.6078,0.0,0.0,0.0,0.0,0.0,0.0,0.6132,0.6186,0.6098,0.6349,0.6715,0.7183,0.7143,0.717,0.7355,0.7448,0.7556,0.7767,0.7672,0.7692,0.7896,0.7941,0.7988,0.7988,0.7988,0.7988,0.7988,0.7988,0.7988,0.7988,0.7988,0.8022,0.814,0.8289,0.8438,0.8587,0.8743,0.9235,1.0021,1.0781,1.2082,1.3545,1.3696,1.4341,1.5263,1.6446,1.6882,1.6935,1.7424,1.7582,1.7582,1.7582,1.7582,1.7582,1.7582,1.7582,1.7582,1.7582,1.7582,1.7582,1.7582,1.7582,1.7582,1.7582,1.7582,1.7582,1.7582,1.7582,1.7582,1.7582,1.7582,1.7582,1.7582,1.7582,1.7582,1.7582,1.7582,1.7582,1.7582,1.8146,1.9124,2.0723,2.1454,2.2467,2.4053,2.4202,2.4202,2.4202,2.4301,2.4548,2.4941,2.5039,2.5235,2.5547,2.5645,2.5693,2.5693,2.5693,2.5693,2.5693,2.5693,2.5693,0.6939,0.6993,0.7048,0.677,0.6729,0.6702,0.6504,0.6308,0.6234,0.634,0.6207,0.0,0.0,0.0,0.0,0.0,0.0,0.5925,0.0,0.5972,0.0,0.6674,0.6729,0.6803,0.7011,0.7109,0.7282,0.7516,0.7421,0.7489,0.7794,0.7916,0.7948,0.7988,0.7988,0.7988,0.7988,0.7988,0.7988,0.7988,0.7988,0.7988,0.7995,0.8201,0.835,0.8545,0.9016,0.9761,1.0781,1.1701,1.3221,1.506,1.5648,1.6074,1.6446,1.7305,1.7582,1.7582,1.7582,1.7582,1.7582,1.7582,1.7582,1.7582,1.7582,1.7582,1.7582,1.7582,1.7582,1.7582,1.7582,1.7582,1.7582,1.7582,1.7582,1.7582,1.7582,1.7582,1.7582,1.7582,1.7582,1.7582,1.7582,1.7582,1.7582,1.7582,1.7582,1.7687,1.7989,1.8708,1.9746,2.1183,2.2064,2.2987,2.4102,2.4202,2.4202,2.4202,2.4202,2.4449,2.499,2.4941,2.5088,2.5479,2.5645,2.5693,2.5693,2.5693,2.5693,2.5693,2.5693,2.5693,0.7428,0.7461,0.7434,0.6844,0.681,0.681,0.6409,0.6478,0.6641,0.6538,0.6695,0.6809,0.6709,0.0,0.0,0.0,0.0,0.0,0.0,0.0,0.0,0.0,0.0,0.0,0.6876,0.6675,0.6784,0.7378,0.6973,0.7048,0.7773,0.7814,0.7889,0.7982,0.7988,0.7988,0.7988,0.7988,0.7988,0.7988,0.7988,0.7988,0.7995,0.8201,0.835,0.8598,0.9861,1.0517,1.0891,1.3437,1.4685,1.5114,1.6577,1.7331,1.7529,1.7582,1.7582,1.7582,1.7582,1.7582,1.7582,1.7582,1.7582,1.7582,1.7582,1.7582,1.7582,1.7582,1.7582,1.7582,1.7582,1.7582,1.7582,1.7582,1.7582,1.7582,1.7582,1.7582,1.7582,1.7582,1.7582,1.7582,1.7582,1.7582,1.7582,1.7582,1.7582,1.8003,1.902,1.9176,2.0055,2.2215,2.2485,2.2987,2.4102,2.4202,2.4202,2.4202,2.4202,2.4202,2.4251,2.4646,2.4892,2.4941,2.543,2.5693,2.5693,2.5693,2.5693,2.5693,2.5693,2.5693,0.7719,0.7848,0.7896,0.7292,0.7183,0.7075,0.6566,0.6559,0.6654,0.6545,0.6715,0.6836,0.6729,0.0,0.0,0.0,0.0,0.0,0.0,0.0,0.0,0.0,0.0,0.0,0.0,0.6356,0.6641,0.6905,0.6878,0.7048,0.7495,0.7706,0.7834,0.7889,0.7934,0.7988,0.7988,0.7988,0.7988,0.7988,0.7988,0.7988,0.7995,0.8201,0.835,0.8598,0.9914,1.1003,1.1982,1.3814,1.5221,1.6193,1.6908,1.7384,1.7582,1.7582,1.7582,1.7582,1.7582,1.7582,1.7582,1.7582,1.7582,1.7582,1.7582,1.7582,1.7582,1.7582,1.7582,1.7582,1.7582,1.7582,1.7582,1.7582,1.7582,1.7582,1.7582,1.7582,1.7582,1.7582,1.7582,1.7582,1.7582,1.7582,1.7582,1.7582,1.7582,1.7989,1.9072,1.9849,2.0877,2.2316,2.3188,2.3805,2.4152,2.4202,2.4202,2.4202,2.4202,2.4251,2.4381,2.4745,2.499,2.5137,2.5528,2.5693,2.5693,2.5693,2.5693,2.5693,2.5693,2.5693,0.8011,0.8119,0.8204,0.7651,0.7529,0.738,0.6837,0.6871,0.6959,0.6749,0.6912,0.7075,0.7027,0.681,0.0,0.0,0.0,0.0,0.0,0.5047,0.0,0.0,0.0,0.0,0.0,0.6051,0.6288,0.66,0.6661,0.6865,0.7272,0.7522,0.7699,0.7807,0.7909,0.7934,0.7988,0.7988,0.7988,0.7988,0.7988,0.7988,0.7995,0.8201,0.8601,0.9167,1.0543,1.1854,1.3122,1.4471,1.5713,1.6736,1.6948,1.7265,1.7582,1.7582,1.7582,1.7582,1.7582,1.7582,1.7582,1.7582,1.7582,1.7582,1.7582,1.7582,1.7582,1.7582,1.7582,1.7582,1.7582,1.7582,1.7582,1.7582,1.7582,1.7582,1.7582,1.7582,1.7582,1.7582,1.7582,1.7582,1.7582,1.7582,1.7582,1.7582,1.7582,1.8146,1.9591,2.0467,2.1454,2.2937,2.3755,2.4202,2.4202,2.4202,2.4202,2.4202,2.4202,2.4251,2.4381,2.4745,2.499,2.5137,2.5479,2.5693,2.5693,2.5693,2.5693,2.5693,2.5693,2.5693]}]]